[[{"header":{"parameterUnit":"m.s-1","parameterCategory":1,"la1":30.6,"la2":28.766,"lo1":-90.7593,"lo2":-88.6598,"dy":0.0162,"dx":0.0183,"nx":116,"ny":114,"refTime":"2023-04-21T12:00:00:Z","depth":0,"parameterNumber":2,"parameterNumberName":"U-component_of_WINDS"},"data":[0.0,0.0,0.0,0.0,0.0,0.0,0.0,0.0,0.0,0.0,0.0,0.0,0.0,0.0,0.0,0.0,0.0,0.0,0.0,0.0,0.0,0.0,0.0,0.0,0.0,0.0,0.0,0.0,0.0,0.0,0.0,0.0,0.0,0.0,0.0,0.0,0.0,0.0,0.0,0.0,0.0,0.0,0.0,0.0,0.0,0.0,0.0,0.0,0.0,0.0,0.0,0.0,0.0,0.0,0.0,0.0,0.0,0.0,0.0,0.0,0.0,0.0,0.0,0.0,0.0,0.0,0.0,0.0,0.0,0.0,0.0,0.0,0.0,0.0,0.0,0.0,0.0,0.0,0.0,0.0,0.0,0.0,0.0,0.0,0.0,0.0,0.0,0.0,0.0,0.0,0.0,0.0,0.0,0.0,0.0,0.0,0.0,0.0,0.0,0.0,0.0,0.0,0.0,0.0,0.0,0.0,0.0,0.0,0.0,0.0,0.0,0.0,0.0,0.0,0.0,0.0,0.0,0.0,0.0,0.0,0.0,0.0,0.0,0.0,0.0,0.0,0.0,0.0,0.0,0.0,0.0,0.0,0.0,0.0,0.0,0.0,0.0,0.0,0.0,0.0,0.0,0.0,0.0,0.0,0.0,0.0,0.0,0.0,0.0,0.0,0.0,0.0,0.0,0.0,0.0,0.0,0.0,0.0,0.0,0.0,0.0,0.0,0.0,0.0,0.0,0.0,0.0,0.0,0.0,0.0,0.0,0.0,0.0,0.0,0.0,0.0,0.0,0.0,0.0,0.0,0.0,0.0,0.0,0.0,0.0,0.0,0.0,0.0,0.0,0.0,0.0,0.0,0.0,0.0,0.0,0.0,0.0,0.0,0.0,0.0,0.0,0.0,0.0,0.0,0.0,0.0,0.0,0.0,0.0,0.0,0.0,0.0,0.0,0.0,0.0,0.0,0.0,0.0,0.0,0.0,0.0,0.0,0.0,0.0,0.0,0.0,0.0,0.0,0.0,0.0,0.0,0.0,0.0,0.0,0.0,0.0,0.0,0.0,0.0,0.0,0.0,0.0,0.0,0.0,0.0,0.0,0.0,0.0,0.0,0.0,0.0,0.0,0.0,0.0,0.0,0.0,0.0,0.0,0.0,0.0,0.0,0.0,0.0,0.0,0.0,0.0,0.0,0.0,0.0,0.0,0.0,0.0,0.0,0.0,0.0,0.0,0.0,0.0,0.0,0.0,0.0,0.0,0.0,0.0,0.0,0.0,0.0,0.0,0.0,0.0,0.0,0.0,0.0,0.0,0.0,0.0,0.0,0.0,0.0,0.0,0.0,0.0,0.0,0.0,0.0,0.0,0.0,0.0,0.0,0.0,0.0,0.0,0.0,0.0,0.0,0.0,0.0,0.0,0.0,0.0,0.0,0.0,0.0,0.0,0.0,0.0,0.0,0.0,0.0,0.0,0.0,0.0,0.0,0.0,0.0,0.0,0.0,0.0,0.0,0.0,0.0,0.0,0.0,0.0,0.0,0.0,0.0,0.0,0.0,0.0,0.0,0.0,0.0,0.0,0.0,0.0,0.0,0.0,0.0,0.0,0.0,0.0,0.0,0.0,0.0,0.0,0.0,0.0,0.0,0.0,0.0,0.0,0.0,0.0,0.0,0.0,0.0,0.0,0.0,0.0,0.0,0.0,0.0,0.0,0.0,0.0,0.0,0.0,0.0,0.0,0.0,0.0,0.0,0.0,0.0,0.0,0.0,0.0,0.0,0.0,0.0,0.0,0.0,0.0,0.0,0.0,0.0,0.0,0.0,0.0,0.0,0.0,0.0,0.0,0.0,0.0,0.0,0.0,0.0,0.0,0.0,0.0,0.0,0.0,0.0,0.0,0.0,0.0,0.0,0.0,0.0,0.0,0.0,0.0,0.0,0.0,0.0,0.0,0.0,0.0,0.0,0.0,0.0,0.0,0.0,0.0,0.0,0.0,0.0,0.0,0.0,0.0,0.0,0.0,0.0,0.0,0.0,0.0,0.0,0.0,0.0,0.0,0.0,0.0,0.0,0.0,0.0,0.0,0.0,0.0,0.0,0.0,0.0,0.0,0.0,0.0,0.0,0.0,0.0,0.0,0.0,0.0,0.0,0.0,0.0,0.0,0.0,0.0,0.0,0.0,0.0,0.0,0.0,0.0,0.0,0.0,0.0,0.0,0.0,0.0,0.0,0.0,0.0,0.0,0.0,0.0,0.0,0.0,0.0,0.0,0.0,0.0,0.0,0.0,0.0,0.0,0.0,0.0,0.0,0.0,0.0,0.0,0.0,0.0,0.0,0.0,0.0,0.0,0.0,0.0,0.0,0.0,0.0,0.0,0.0,0.0,0.0,0.0,0.0,0.0,0.0,0.0,0.0,0.0,0.0,0.0,0.0,0.0,0.0,0.0,0.0,0.0,0.0,0.0,0.0,0.0,0.0,0.0,0.0,0.0,0.0,0.0,0.0,0.0,0.0,0.0,0.0,0.0,0.0,0.0,0.0,0.0,0.0,0.0,0.0,0.0,0.0,0.0,0.0,0.0,0.0,0.0,0.0,0.0,0.0,0.0,0.0,0.0,0.0,0.0,0.0,0.0,0.0,0.0,0.0,0.0,0.0,0.0,0.0,0.0,0.0,0.0,0.0,0.0,0.0,0.0,0.0,0.0,0.0,0.0,0.0,0.0,0.0,0.0,0.0,0.0,0.0,0.0,0.0,0.0,0.0,0.0,0.0,0.0,0.0,0.0,0.0,0.0,0.0,0.0,0.0,0.0,0.0,0.0,0.0,0.0,0.0,0.0,0.0,0.0,0.0,0.0,0.0,0.0,0.0,0.0,0.0,0.0,0.0,0.0,0.0,0.0,0.0,0.0,0.0,0.0,0.0,0.0,0.0,0.0,0.0,0.0,0.0,0.0,0.0,0.0,0.0,0.0,0.0,0.0,0.0,0.0,0.0,0.0,0.0,0.0,0.0,0.0,0.0,0.0,0.0,0.0,0.0,0.0,0.0,0.0,0.0,0.0,0.0,0.0,0.0,0.0,0.0,0.0,0.0,0.0,0.0,0.0,0.0,0.0,0.0,0.0,0.0,0.0,0.0,0.0,0.0,0.0,0.0,0.0,0.0,0.0,0.0,0.0,0.0,0.0,0.0,0.0,0.0,0.0,0.0,0.0,0.0,0.0,0.0,0.0,0.0,0.0,0.0,0.0,0.0,0.0,0.0,0.0,0.0,0.0,0.0,0.0,0.0,0.0,0.0,0.0,0.0,0.0,0.0,0.0,0.0,0.0,0.0,0.0,0.0,0.0,0.0,0.0,0.0,0.0,0.0,0.0,0.0,0.0,0.0,0.0,0.0,0.0,0.0,0.0,0.0,0.0,0.0,0.0,0.0,0.0,0.0,0.0,0.0,0.0,0.0,0.0,0.0,0.0,0.0,0.0,0.0,0.0,0.0,0.0,0.0,0.0,0.0,0.0,0.0,0.0,0.0,0.0,0.0,0.0,0.0,0.0,0.0,0.0,0.0,0.0,0.0,0.0,0.0,0.0,0.0,0.0,0.0,0.0,0.0,0.0,0.0,0.0,0.0,0.0,0.0,0.0,0.0,0.0,0.0,0.0,0.0,0.0,0.0,0.0,0.0,0.0,0.0,0.0,0.0,0.0,0.0,0.0,0.0,0.0,0.0,0.0,0.0,0.0,0.0,0.0,0.0,0.0,0.0,0.0,0.0,0.0,0.0,0.0,0.0,0.0,0.0,0.0,0.0,0.0,0.0,0.0,0.0,0.0,0.0,0.0,0.0,0.0,0.0,0.0,0.0,0.0,0.0,0.0,0.0,0.0,0.0,0.0,0.0,0.0,0.0,0.0,0.0,0.0,0.0,0.0,0.0,0.0,0.0,0.0,0.0,0.0,0.0,0.0,0.0,0.0,0.0,0.0,0.0,0.0,0.0,0.0,0.0,0.0,0.0,0.0,0.0,0.0,0.0,0.0,0.0,0.0,0.0,0.0,0.0,0.0,0.0,0.0,0.0,0.0,0.0,0.0,0.0,0.0,0.0,0.0,0.0,0.0,0.0,0.0,0.0,0.0,0.0,0.0,0.0,0.0,0.0,0.0,0.0,0.0,0.0,0.0,0.0,0.0,0.0,0.0,0.0,0.0,0.0,0.0,0.0,0.0,0.0,0.0,0.0,0.0,0.0,0.0,0.0,0.0,0.0,0.0,0.0,0.0,0.0,0.0,0.0,0.0,0.0,0.0,0.0,0.0,0.0,0.0,0.0,0.0,0.0,0.0,0.0,0.0,0.0,0.0,0.0,0.0,0.0,0.0,0.0,0.0,0.0,0.0,0.0,0.0,0.0,0.0,0.0,0.0,0.0,0.0,0.0,0.0,0.0,0.0,0.0,0.0,0.0,0.0,0.0,0.0,0.0,0.0,0.0,0.0,0.0,0.0,0.0,0.0,0.0,0.0,0.0,0.0,0.0,0.0,0.0,0.0,0.0,0.0,0.0,0.0,0.0,0.0,0.0,0.0,0.0,0.0,0.0,0.0,0.0,0.0,0.0,0.0,0.0,0.0,0.0,0.0,0.0,0.0,0.0,0.0,0.0,0.0,0.0,0.0,0.0,0.0,0.0,0.0,0.0,0.0,0.0,0.0,0.0,0.0,0.0,0.0,0.0,0.0,0.0,0.0,0.0,0.0,0.0,0.0,0.0,0.0,0.0,0.0,0.0,0.0,0.0,0.0,0.0,0.0,0.0,0.0,0.0,0.0,0.0,0.0,0.0,0.0,0.0,0.0,0.0,0.0,0.0,0.0,0.0,0.0,0.0,0.0,0.0,0.0,0.0,0.0,0.0,0.0,0.0,0.0,0.0,0.0,0.0,0.0,0.0,0.0,0.0,0.0,0.0,0.0,0.0,0.0,0.0,0.0,0.0,0.0,0.0,0.0,0.0,0.0,0.0,0.0,0.0,0.0,0.0,0.0,0.0,0.0,0.0,0.0,0.0,0.0,0.0,0.0,0.0,0.0,0.0,0.0,0.0,0.0,0.0,0.0,0.0,0.0,0.0,0.0,0.0,0.0,0.0,0.0,0.0,0.0,0.0,0.0,0.0,0.0,0.0,0.0,0.0,0.0,0.0,0.0,0.0,0.0,0.0,0.0,0.0,0.0,0.0,0.0,0.0,0.0,0.0,0.0,0.0,0.0,0.0,0.0,0.0,0.0,0.0,0.0,0.0,0.0,0.0,0.0,0.0,0.0,0.0,0.0,0.0,0.0,0.0,0.0,0.0,0.0,0.0,0.0,0.0,0.0,0.0,0.0,0.0,0.0,0.0,0.0,0.0,0.0,0.0,0.0,0.0,0.0,0.0,0.0,0.0,0.0,0.0,0.0,0.0,0.0,0.0,0.0,0.0,0.0,0.0,0.0,0.0,0.0,0.0,0.0,0.0,0.0,0.0,0.0,0.0,0.0,0.0,0.0,0.0,0.0,0.0,0.0,0.0,0.0,0.0,0.0,0.0,0.0,0.0,0.0,0.0,0.0,0.0,0.0,0.0,0.0,0.0,0.0,0.0,0.0,0.0,0.0,0.0,0.0,0.0,0.0,0.0,0.0,0.0,0.0,0.0,0.0,0.0,0.0,0.0,0.0,0.0,0.0,0.0,0.0,0.0,0.0,0.0,0.0,0.0,0.0,0.0,0.0,0.0,0.0,0.0,0.0,0.0,0.0,0.0,0.0,0.0,0.0,0.0,0.0,0.0,0.0,0.0,0.0,0.0,0.0,0.0,0.0,0.0,0.0,0.0,0.0,0.0,0.0,0.0,0.0,0.0,0.0,0.0,0.0,0.0,0.0,0.0,0.0,0.0,0.0,0.0,0.0,0.0,0.0,0.0,0.0,0.0,0.0,0.0,0.0,0.0,0.0,0.0,0.0,0.0,0.0,0.0,0.0,0.0,0.0,0.0,0.0,0.0,0.0,0.0,0.0,0.0,0.0,0.0,0.0,0.0,0.0,0.0,0.0,0.0,0.0,0.0,0.0,0.0,0.0,0.0,0.0,0.0,0.0,0.0,0.0,0.0,0.0,0.0,0.0,1.7219,0.0,0.0,0.0,0.0,0.0,0.0,0.0,0.0,0.0,0.0,0.0,0.0,0.0,0.0,0.0,0.0,0.0,0.0,0.0,0.0,0.0,0.0,0.0,0.0,0.0,0.0,0.0,0.0,0.0,0.0,0.0,0.0,0.0,0.0,0.0,0.0,0.0,0.0,1.1195,1.1195,1.1848,1.3032,1.2786,1.3681,1.5416,0.0,0.0,0.0,0.0,0.0,0.0,0.0,0.0,0.0,0.0,0.0,0.0,0.0,0.0,0.0,0.0,0.0,0.0,0.0,0.0,0.0,0.0,0.0,0.0,0.0,0.0,0.0,0.0,0.0,0.0,0.0,0.0,0.0,0.0,0.0,0.0,0.0,0.0,0.0,0.0,0.0,0.0,0.0,0.0,0.0,0.0,0.0,0.0,0.0,0.0,0.0,0.0,0.0,0.0,0.0,0.0,0.0,0.0,0.0,0.0,0.0,0.0,0.0,0.0,0.0,0.0,0.0,0.0,0.0,0.0,0.0,1.6198,0.0,0.0,0.0,0.0,0.0,0.0,0.0,0.0,0.0,0.0,0.0,0.0,0.0,0.0,0.0,0.0,0.0,0.0,0.0,0.0,0.0,0.0,0.0,1.072,1.0745,1.0745,1.0935,1.1041,0.0,0.0,0.0,0.0,0.0,0.0,1.1292,1.1292,1.1292,1.1292,1.1516,1.2145,1.3116,1.3116,1.3691,1.4663,1.3697,0.0,0.0,0.0,0.0,0.0,0.0,0.0,0.0,0.0,0.0,0.0,0.0,0.0,0.0,0.0,0.0,0.0,0.0,0.0,0.0,0.0,0.0,0.0,0.0,0.0,0.0,0.0,0.0,0.0,0.0,0.0,0.0,0.0,0.0,0.0,0.0,0.0,0.0,0.0,0.0,0.0,0.0,0.0,0.0,0.0,0.0,0.0,0.0,0.0,0.0,0.0,0.0,0.0,0.0,0.0,0.0,0.0,0.0,0.0,0.0,0.0,0.0,0.0,1.3519,1.3394,1.3433,1.3433,1.3433,1.3433,1.3201,1.3346,1.3865,1.5204,0.0,0.0,0.0,0.0,0.0,0.0,0.0,0.0,0.0,0.0,0.0,0.0,0.0,0.0,0.0,0.0,0.0,0.0,0.0,1.0688,1.0688,1.0862,1.096,1.096,1.1086,1.1163,1.1163,0.0,0.0,0.0,0.0,0.0,1.1733,1.1733,1.1733,1.1733,1.2824,1.3461,1.3609,1.3609,1.3699,1.3897,1.4286,1.4555,1.4696,0.0,0.0,0.0,0.0,0.0,0.0,0.0,0.0,0.0,0.0,0.0,0.0,0.0,0.0,0.0,0.0,0.0,0.0,0.0,0.0,0.0,0.0,0.0,0.0,0.0,0.0,0.0,0.0,0.0,0.0,0.0,0.0,0.0,0.0,0.0,0.0,0.0,0.0,0.0,0.0,0.0,1.4547,1.4367,0.0,0.0,0.0,0.0,0.0,0.0,0.0,0.0,0.0,0.0,0.0,0.0,0.0,1.4173,1.4319,1.2958,1.2382,1.2599,1.1203,1.0638,1.0813,1.0813,1.0813,1.0813,1.0751,0.0,1.4063,1.429,0.0,0.0,0.0,0.0,0.0,0.0,0.0,0.0,0.0,0.0,0.0,0.0,0.0,0.0,0.0,0.0,0.0,0.0,0.0,0.0,0.0,1.0892,1.111,1.111,1.1273,1.1291,1.1115,1.1203,0.0,0.0,0.0,1.1439,1.1518,1.1716,1.1806,1.1806,1.2371,1.2634,1.2634,1.2634,1.2634,1.2655,1.2954,1.3077,1.3077,1.3077,0.0,0.0,0.0,0.0,0.0,0.0,0.0,0.0,0.0,0.0,0.0,0.0,0.0,0.0,0.0,0.0,0.0,0.0,0.0,0.0,0.0,0.0,0.0,0.0,0.0,0.0,0.0,0.0,0.0,0.0,0.0,0.0,0.0,0.0,0.0,0.0,0.0,0.0,0.0,1.4226,1.4072,1.3128,1.3839,1.4393,0.0,0.0,0.0,0.0,0.0,0.0,0.0,0.0,0.0,1.1963,1.1787,1.174,1.1822,1.1114,1.0853,1.1031,1.0325,1.0103,1.0315,1.0315,1.0315,1.0315,1.0315,1.0875,1.1864,1.2886,1.3377,1.3511,0.0,0.0,0.0,0.0,1.3581,1.3523,0.0,0.0,0.0,0.0,0.0,0.0,0.0,0.0,0.0,0.0,0.0,0.0,1.0576,1.099,1.1289,1.1289,1.1459,1.1417,1.109,1.1237,1.1148,1.0815,1.1027,1.1186,1.1186,1.1436,1.1587,1.1677,1.1547,1.1493,1.1493,1.1445,1.1429,1.1429,1.1477,1.1615,1.1806,1.1806,1.1695,1.1654,0.0,0.0,0.0,0.0,0.0,0.0,0.0,0.0,0.0,0.0,0.0,0.0,0.0,0.0,0.0,0.0,0.0,0.0,0.0,0.0,0.0,0.0,0.0,0.0,0.0,0.0,0.0,0.0,0.0,0.0,0.0,0.0,0.0,0.0,0.0,0.0,0.0,1.2707,1.2799,1.1663,1.2632,1.3377,0.0,0.0,0.0,0.0,0.0,0.0,1.1839,1.1597,1.1134,1.0337,1.006,0.9958,0.9992,0.9992,1.0055,1.0213,1.0213,1.0326,1.054,1.054,1.054,1.054,1.054,1.0439,1.0388,1.1524,1.2019,1.2128,1.3154,1.3619,1.3523,1.2472,1.2147,1.2054,0.0,0.0,0.0,0.0,0.0,0.0,0.0,0.0,0.0,0.0,0.0,1.0718,1.069,1.1166,1.1484,1.1484,1.1654,1.1639,1.1322,1.1299,1.1148,1.0815,1.0823,1.0815,1.0815,1.0846,1.0997,1.1337,1.0882,1.0658,1.0658,1.0463,1.0388,1.0396,1.0583,1.1077,1.1806,1.1806,1.1798,1.179,1.185,0.0,0.0,0.0,0.0,0.0,0.0,0.0,0.0,0.0,0.0,0.0,0.0,0.0,0.0,0.0,0.0,0.0,0.0,0.0,0.0,0.0,0.0,0.0,0.0,0.0,0.0,0.0,0.0,0.0,0.0,0.0,0.0,0.0,0.0,0.0,0.0,0.0,0.0,0.9751,0.9914,0.0,0.0,0.0,0.0,1.0028,1.0028,1.0066,1.0118,1.0163,1.0232,1.0288,1.0288,1.0356,1.046,1.046,1.0609,1.0833,1.0833,1.0948,1.1152,1.1152,1.1152,1.1152,1.1152,1.1145,1.1084,1.0415,1.0153,1.0153,1.0201,1.0353,1.0517,1.0446,1.0422,1.0428,0.0,0.0,0.0,0.0,0.0,0.0,0.0,0.0,0.9958,0.9889,1.0273,1.0523,1.0318,1.0755,1.1063,1.1063,1.1125,1.1005,1.0671,1.0671,1.052,1.0186,1.0368,1.0529,1.0673,1.0666,1.0733,1.0845,1.0673,1.0636,1.0733,1.0673,1.0614,1.0614,1.0711,1.0891,1.1156,1.1398,1.1488,1.1488,1.1716,1.1806,0.0,0.0,0.0,0.0,0.0,0.0,0.0,0.0,0.0,0.0,0.0,0.0,0.0,0.0,0.0,0.0,0.0,0.0,0.0,0.0,0.0,0.0,0.0,0.0,0.0,0.0,0.0,0.0,0.0,0.0,0.0,0.0,0.0,0.0,0.0,0.0,0.0,1.0032,1.0086,0.0,1.0243,1.0256,1.0331,1.0495,1.0515,1.0576,1.0758,1.0893,1.0975,1.1029,1.109,1.1165,1.1219,1.1219,1.1286,1.1482,1.1482,1.1592,1.1778,1.1778,1.1778,1.1778,1.1778,1.1723,1.1572,1.1272,1.1023,1.0758,1.063,1.063,1.0664,1.0602,1.0622,1.0677,0.0,0.0,0.0,0.0,0.0,0.0,0.0,0.0,0.9838,0.9734,1.0147,1.0367,1.0188,1.0545,1.0785,1.0785,1.0785,1.0671,1.0308,1.0308,1.0135,0.9754,0.991,1.0151,1.0487,1.0397,1.0426,1.0568,1.0447,1.0438,1.0539,1.0481,1.0459,1.0459,1.051,1.051,1.049,1.0883,1.108,1.1148,1.1312,1.1418,1.1466,0.0,0.0,0.0,0.0,0.0,0.0,0.0,0.0,0.0,0.0,0.0,0.0,0.0,0.0,0.0,0.0,0.0,0.0,0.0,0.0,0.0,0.0,0.0,0.0,0.0,0.0,0.0,0.0,0.0,0.0,0.0,0.0,0.0,0.0,0.0,1.0285,1.0419,1.0514,1.0648,1.0744,1.0765,1.088,1.1049,1.111,1.1205,1.1382,1.1484,1.1586,1.1694,1.1796,1.187,1.1918,1.1918,1.1965,1.2016,1.1419,1.1202,1.1296,1.0722,1.0457,1.0451,1.0411,1.0341,1.0216,1.0213,1.0044,0.9865,1.0174,0.992,0.9393,0.9307,0.933,0.9399,0.0,0.0,0.0,0.0,0.0,0.0,0.9221,0.9393,0.9552,0.9612,0.9975,1.0247,1.027,1.0581,1.0762,1.0762,1.0762,1.0611,1.024,1.027,1.0079,0.9605,0.9462,0.9671,1.0263,0.9967,1.0019,1.0481,1.017,0.999,1.0021,0.9873,0.9805,0.9812,0.9961,0.994,0.9836,1.0293,1.0611,1.0755,1.0651,1.0681,1.0778,0.0,0.0,0.0,0.0,0.0,0.0,0.0,0.0,0.0,0.0,0.0,0.0,0.0,0.0,0.0,0.0,0.0,0.0,0.0,0.0,0.0,0.0,0.0,0.0,0.0,0.0,0.0,0.0,0.0,0.0,0.0,0.0,0.0,1.0376,1.0555,1.0738,1.0711,1.0995,1.1206,1.122,1.1349,1.1409,1.1409,1.1552,1.1665,1.1727,1.174,1.1881,1.2139,1.2152,1.2219,1.236,1.236,1.236,1.2321,1.0558,0.9742,0.9664,0.7989,0.7209,0.7201,0.7157,0.7118,0.7114,0.7103,0.7067,0.719,0.8508,0.7997,0.6512,0.6512,0.6512,0.6512,0.0,0.0,0.0,0.0,0.0,0.0,0.9449,0.8716,0.8528,0.9597,0.9061,0.8897,0.9846,1.0035,1.0065,1.0065,1.0065,0.9633,0.8623,0.9329,0.9687,0.9478,0.951,0.9614,0.9786,0.9798,0.9927,1.0208,1.0084,1.0076,1.0215,1.0175,1.0154,1.0154,1.0202,1.0134,0.9961,1.0094,1.018,1.0242,1.0486,1.0614,1.0636,0.0,0.0,0.0,0.0,0.0,0.0,0.0,0.0,0.0,0.0,0.0,0.0,0.0,0.0,0.0,0.0,0.0,0.0,0.0,0.0,0.0,0.0,0.0,0.0,0.0,0.0,0.0,0.0,0.0,0.0,0.0,0.0,1.0975,1.0759,1.0921,1.1118,1.1192,1.128,1.1409,1.1626,1.1687,1.1755,1.1907,1.202,1.1552,1.0254,1.0432,1.0019,0.8792,0.8823,0.8915,0.8943,0.8943,0.8943,0.8943,0.846,0.822,0.818,0.7705,0.7505,0.7501,0.7477,0.7469,0.7465,0.7481,0.6763,0.5792,0.7123,0.7371,0.6945,0.6945,0.6945,0.6945,0.0,0.0,0.0,0.0,0.0,0.0,0.7927,0.7365,0.7206,0.8063,0.752,0.7337,0.8069,0.8653,0.8988,0.8988,0.8988,0.869,0.7906,0.8373,0.8929,0.9535,0.953,0.9632,0.9883,0.9971,1.012,1.0363,1.0366,1.0468,1.0682,1.0682,1.0682,1.0682,1.0682,1.0568,1.0354,1.0326,1.0258,1.0202,1.0238,1.0305,1.0325,1.0232,1.0154,1.0096,1.0096,1.0096,1.0096,1.0096,0.0,0.0,0.0,0.0,0.0,0.0,0.0,0.0,0.0,0.0,0.0,0.0,0.0,0.0,0.0,0.0,0.0,0.0,0.0,0.0,0.0,0.0,0.0,0.0,1.0929,1.0856,1.0795,1.1131,1.1409,1.1558,1.1687,1.1837,1.2006,1.1452,1.1138,1.1256,1.069,0.9857,0.8832,0.8951,0.8602,0.7597,0.7645,0.773,0.777,0.777,0.777,0.777,0.7028,0.666,0.666,0.5883,0.5555,0.5552,0.5526,0.5514,0.5512,0.5486,0.493,0.0,0.0,0.0,0.0,0.0,0.5178,0.5178,0.0,0.0,0.0,0.0,0.0,0.0,0.571,0.5695,0.5743,0.5865,0.5774,0.5743,0.5896,0.6966,0.7673,0.7673,0.7662,0.7629,0.7555,0.7338,0.7892,0.9482,0.9458,0.9703,1.0322,1.0304,1.046,1.0772,1.0874,1.1036,1.12,1.12,1.12,1.12,1.12,1.1084,1.0873,1.0786,1.0683,1.0507,1.0127,0.9961,0.9988,0.9974,0.9886,0.9771,0.9785,0.9792,0.9792,0.9792,0.0,0.0,0.0,0.0,0.0,0.0,0.0,0.0,0.0,0.0,0.0,0.0,0.0,0.0,0.0,0.0,0.0,0.0,0.0,0.0,0.0,0.0,0.0,0.0,1.0042,0.9916,1.0073,1.0596,1.1156,1.167,1.1823,1.188,1.1938,1.0593,0.9729,0.9729,0.8424,0.7548,0.7346,0.0,0.0,0.0,0.0,0.7263,0.7379,0.7383,0.7383,0.7383,0.5831,0.5077,0.5036,0.3447,0.2692,0.2691,0.2622,0.261,0.2609,0.2623,0.2612,0.2771,0.4259,0.3857,0.2523,0.2523,0.2523,0.2523,0.0,0.0,0.0,0.0,0.0,0.0,0.5829,0.4971,0.4671,0.5743,0.4947,0.4702,0.5774,0.6141,0.6294,0.6294,0.6289,0.62,0.6052,0.5933,0.6506,0.7955,0.8913,0.9743,1.0432,1.0453,1.0656,1.1111,1.1145,1.1172,1.12,1.12,1.12,1.12,1.12,1.1084,1.0921,1.1043,1.0995,1.0826,1.0894,1.0487,0.9819,0.971,0.965,0.9666,0.9751,0.9792,0.9792,0.9792,0.9792,0.9792,0.9792,0.9792,0.0,0.0,0.0,0.0,0.0,0.0,0.0,0.0,0.0,0.0,0.0,0.0,0.0,0.0,0.0,0.0,0.0,0.0,0.0,0.6755,0.6739,0.6751,0.6872,0.7007,0.8149,1.0998,1.0186,0.944,0.9531,0.8331,0.7504,0.7504,0.7669,0.711,0.5678,0.5725,0.5177,0.3728,0.3686,0.369,0.3742,0.3742,0.3742,0.3742,0.0,0.0,0.3195,0.2861,0.2692,0.2692,0.2686,0.2684,0.2683,0.2677,0.2675,0.2711,0.2981,0.2872,0.2585,0.2585,0.2585,0.2585,0.0,0.0,0.0,0.0,0.0,0.0,0.3932,0.3389,0.3204,0.3848,0.3358,0.3204,0.3879,0.4521,0.4885,0.4885,0.4912,0.4746,0.4421,0.4516,0.5256,0.668,0.7371,0.8307,0.9631,0.9645,0.9808,1.0144,1.0144,1.018,1.0248,1.0248,1.0677,1.1389,1.1389,1.1355,1.1252,1.128,1.1233,1.113,1.109,1.0785,1.0339,1.0191,0.9994,0.9819,0.9998,0.9998,0.9913,1.0025,1.0053,1.0053,1.0053,1.0053,1.0066,0.0,0.0,0.0,0.0,0.0,0.0,0.0,0.0,0.0,0.0,0.0,0.0,0.0,0.0,0.7013,0.0,0.0,0.545,0.559,0.5432,0.5341,0.5484,0.5552,0.6371,0.8481,0.8077,0.7625,0.7673,0.6325,0.5443,0.5443,0.4894,0.4163,0.325,0.3517,0.3194,0.2018,0.244,0.2566,0.2356,0.2356,0.2356,0.2356,0.2356,0.2356,0.2356,0.2608,0.2692,0.2692,0.2692,0.2692,0.2692,0.244,0.2356,0.2352,0.2326,0.2439,0.2647,0.2647,0.2647,0.2647,0.0,0.0,0.0,0.0,0.0,0.0,0.0,0.2008,0.2008,0.2008,0.2008,0.2008,0.2008,0.2927,0.3531,0.3509,0.3519,0.3364,0.2948,0.3423,0.4211,0.541,0.5761,0.6689,0.8267,0.8615,0.893,0.9144,0.9428,0.9627,0.9759,0.9759,1.0413,1.1584,1.1289,1.1325,1.1577,1.1164,1.1147,1.1416,1.1137,1.1029,1.0988,1.0867,1.0542,1.0163,1.0317,1.0283,1.0163,1.029,1.0178,0.9973,0.9973,0.9781,0.9549,0.9576,0.9619,0.0,0.0,0.0,0.0,0.0,0.0,0.0,0.0,0.0,0.7518,0.5872,0.536,0.5204,0.5153,0.4604,0.4236,0.4328,0.4064,0.3908,0.4022,0.411,0.4413,0.502,0.5467,0.5746,0.5746,0.4299,0.336,0.336,0.2059,0.1304,0.1304,0.1643,0.1688,0.1308,0.203,0.2244,0.1862,0.1862,0.1862,0.1862,0.1862,0.1861,0.1857,0.2237,0.2445,0.244,0.244,0.244,0.2398,0.2018,0.185,0.185,0.185,0.2103,0.244,0.265,0.2692,0.2692,0.0,0.0,0.0,0.0,0.0,0.0,0.0,0.0,0.2008,0.2008,0.2008,0.2008,0.2008,0.213,0.2198,0.2136,0.2184,0.2132,0.1977,0.3054,0.3763,0.385,0.5075,0.598,0.6473,0.8001,0.8955,0.9269,1.0646,1.1312,1.1325,1.1325,1.1433,1.1548,1.0161,1.0305,1.1512,1.0108,1.0323,1.1556,1.1558,1.1463,1.1341,1.1321,1.1036,1.0617,1.0663,1.063,1.0596,1.0507,0.9731,0.88,0.88,0.79,0.6785,0.6509,0.6431,0.6345,0.6053,0.5868,0.5729,0.5566,0.5733,0.5912,0.0,0.0,0.5954,0.5354,0.4174,0.3116,0.2766,0.1539,0.0599,0.0607,0.0573,0.0536,0.0537,0.0584,0.063,0.0713,0.2137,0.3144,0.3144,0.1891,0.1052,0.1052,0.122,0.1304,0.1304,0.1359,0.1366,0.1323,0.1422,0.1429,0.1386,0.1386,0.1386,0.1386,0.1386,0.1379,0.1366,0.1452,0.1444,0.1472,0.1472,0.1472,0.1472,0.1388,0.1388,0.1388,0.1388,0.143,0.1556,0.2398,0.2692,0.2692,0.0,0.0,0.0,0.0,0.0,0.0,0.0,0.0,0.2008,0.2008,0.2008,0.2008,0.2008,0.1822,0.1622,0.1407,0.1585,0.1509,0.1028,0.1875,0.2303,0.2052,0.2653,0.3505,0.455,0.5268,0.6187,0.7279,0.7905,0.8688,0.9554,0.9554,1.0059,1.093,1.0275,1.0347,1.093,1.0269,1.0383,1.0894,0.9945,0.9515,0.9382,0.849,0.7985,0.7868,0.8928,0.8659,0.0,0.7583,0.7169,0.6728,0.675,0.6327,0.5772,0.5635,0.5605,0.5404,0.4394,0.4145,0.3966,0.0,0.365,0.4097,0.2966,0.3415,0.3761,0.2425,0.1676,0.1145,0.1,0.0445,0.0,0.0,0.0,0.0,0.0,0.0,0.0,0.0,0.0673,0.1135,0.1135,0.0631,0.0295,0.0295,0.0466,0.0553,0.0553,0.0816,0.0821,0.0561,0.1041,0.1174,0.0956,0.0956,0.0956,0.0956,0.0956,0.0954,0.095,0.1209,0.1292,0.1286,0.132,0.1316,0.1273,0.1055,0.0968,0.0968,0.0968,0.0968,0.101,0.164,0.1892,0.1892,0.0,0.0,0.0,0.0,0.0,0.0,0.0,0.0,0.0,0.0,0.1853,0.1822,0.173,0.1513,0.1258,0.0997,0.1219,0.1145,0.0692,0.1104,0.1238,0.0914,0.1009,0.1546,0.2621,0.3126,0.3977,0.5181,0.5594,0.6387,0.7469,0.7469,0.8071,0.9206,0.9206,0.9443,0.9837,0.9837,1.0072,1.0329,0.917,0.8683,0.85,0.6971,0.6067,0.5783,0.7027,0.6702,0.5603,0.5386,0.507,0.4803,0.4809,0.4541,0.4205,0.4082,0.3995,0.3694,0.2597,0.0,0.0,0.1066,0.1673,0.2181,0.0763,0.1312,0.1717,0.0277,0.0,0.0,0.0,0.0,0.0,0.0,0.0,0.0,0.0,0.0,0.0,0.0,0.0,0.0,0.0,0.0,0.0,0.0,0.0,0.0,0.0,0.0304,0.0349,0.0,0.0613,0.079,0.0526,0.0526,0.0526,0.0526,0.0526,0.0525,0.0524,0.0827,0.0956,0.0956,0.0948,0.0945,0.0902,0.0639,0.051,0.051,0.0508,0.0508,0.055,0.0842,0.1093,0.1304,0.0,0.0,0.0,0.0,0.0,0.0,0.0,0.0,0.0,0.0,0.0,0.0,0.0,0.1019,0.0982,0.0906,0.0965,0.1102,0.1268,0.1111,0.0973,0.0913,0.0958,0.0901,0.069,0.2465,0.3454,0.3568,0.5069,0.5811,0.5857,0.5857,0.5906,0.5948,0.5955,0.6785,0.8167,0.8172,0.898,1.0307,1.0237,1.0158,0.9879,0.847,0.6975,0.5577,0.5505,0.5464,0.5376,0.5176,0.4282,0.3252,0.3283,0.2343,0.1159,0.0748,0.0437,0.0149,0.0111,0.0112,0.0076,0.0038,0.0076,0.0077,0.0039,0.004,0.008,0.0,0.0,0.0,0.0,0.0,0.0,0.0,0.0,0.0,0.0,0.0,0.0,0.0,0.0,0.0,0.0,0.0,0.0,0.0,0.0,0.0,0.0,0.0,0.0,0.0,0.0045,0.0045,0.0,0.0,0.0,0.0,0.0,0.0,0.0,0.0044,0.0043,0.0043,0.0043,0.0043,0.0043,0.0043,0.0,0.0,0.0,0.0,0.0043,0.0042,0.0589,0.1304,0.0,0.0,0.0,0.0,0.0,0.0,0.0,0.0,0.0,0.0,0.0,0.0,0.0,0.0,0.0,0.0,0.0643,0.0605,0.0439,0.0587,0.0557,0.0319,0.0324,0.0301,0.0218,0.082,0.1672,0.2698,0.3235,0.4021,0.5068,0.5081,0.5058,0.5066,0.5066,0.5891,0.7253,0.7222,0.8053,0.9282,0.8154,0.7686,0.7374,0.494,0.3691,0.3074,0.0,0.1967,0.2099,0.181,0.1439,0.1062,0.1078,0.0735,0.0357,0.0219,0.0074,0.0,0.0,0.0,0.0,0.0,0.0,0.0,0.0,0.0,0.0,0.0,0.0,0.0,0.0,0.0,0.0,0.0,0.0,0.0,0.0,0.0,0.0,0.0,0.0,0.0,0.0,0.0,0.0,0.0,0.0,0.0,0.0,0.0,0.0,0.0,0.0,0.0,0.0,0.0,0.0,0.0,0.0,0.0,0.0,0.0,0.0,0.0,0.0,0.0,0.0,0.0,0.0,0.0,0.0,0.0,0.0,0.0,0.0172,0.0429,0.0,0.0,0.0,0.0,0.0,0.0,0.0,0.0,0.0,0.0,0.0,0.0,0.0,0.0,0.0,0.0,0.0,0.0273,0.0149,0.0264,0.0262,0.0145,0.0059,0.0,0.0,0.0,0.0473,0.1471,0.1491,0.2004,0.3031,0.3025,0.3027,0.3034,0.3585,0.4332,0.5273,0.6356,0.7005,0.7277,0.6702,0.6156,0.5369,0.2946,0.2036,0.0,0.0493,0.0143,0.0288,0.0071,0.0,0.0,0.0,0.0,0.0,0.0,0.0,0.0,0.0,0.0,0.0,0.0,0.0,0.0,0.0,0.0,0.0,0.0,0.0,0.0,0.0,0.0,0.0,0.0,0.0,0.0,0.0,0.0,0.0,0.0,0.0,0.0,0.0,0.0,0.0,0.0,0.0,0.0,0.0,0.0,0.0,0.0,0.0,0.0,0.0,0.0,0.0,0.0,0.0,0.0,0.0,0.0,0.0,0.0,0.0,0.0,0.0,0.0,0.0,0.0,0.0,0.0,0.0,0.0,0.0,0.0,0.0,0.0,0.0,0.0,0.0,0.0,0.0,0.0,0.0,0.0,0.0,0.0,0.0,0.0,0.0,0.0,0.0,0.0,0.0362,0.0146,0.0116,0.0382,0.0147,0.0,0.0,0.0,0.0,0.0,0.0,0.0,0.0,0.0,0.0,0.0067,0.1544,0.2214,0.2476,0.5333,0.5746,0.4615,0.5934,0.5596,0.4116,0.2646,0.2095,0.1925,0.0491,0.0,0.0,0.0,0.0,0.0,0.0,0.0,0.0,0.0,0.0,0.0,0.0,0.0,0.0,0.0,0.0,0.0,0.0,0.0,0.0,0.0,0.0,0.0,0.0,0.0,0.0,0.0,0.0,0.0,0.0,0.0,0.0,0.0,0.0,0.0,0.0,0.0,0.0,0.0,0.0,0.0,0.0,0.0,0.0,0.0,0.0,0.0,0.0,0.0,0.0,0.0,0.0,0.0,0.0,0.0,0.0,0.0,0.0,0.0,0.0,0.0,0.0,0.0,0.0,0.0,0.0,0.0,0.0,0.0,0.0,0.0,0.0,0.0,0.0,0.0,0.0,0.0,0.0,0.0,0.0,0.0,0.0,0.0,0.0,0.0,0.0,0.0,0.0091,0.003,0.0029,0.0087,0.0029,0.0,0.0,0.0,0.0,0.0,0.0,0.0,0.0,0.0,0.0,0.0033,0.0396,0.1163,0.2209,0.2974,0.369,0.4378,0.4621,0.4496,0.4003,0.2567,0.2032,0.1834,0.0495,0.0,0.0,0.0,0.0,0.0,0.0,0.0,0.0,0.0,0.0,0.0,0.0,0.0,0.0,0.0,0.0,0.0,0.0,0.0,0.0,0.0,0.0,0.0,0.0,0.0,0.0,0.0,0.0,0.0,0.0,0.0,0.0,0.0,0.0,0.0,0.0,0.0,0.0,0.0,0.0,0.0,0.0,0.0,0.0,0.0,0.0,0.0,0.0,0.0,0.0,0.0,0.0,0.0,0.0,0.0,0.0,0.0,0.0,0.0,0.0,0.0,0.0,0.0,0.0,0.0,0.0,0.0,0.0,0.0,0.0,0.0,0.0,0.0,0.0,0.0,0.0,0.0,0.0,0.0,0.0,0.0,0.0,0.0,0.0,0.0,0.0,0.0,0.0,0.0,0.0,0.0,0.0,0.0,0.0,0.0,0.0,0.0,0.0,0.0,0.0,0.0,0.0,0.0,0.0,0.0423,0.1219,0.1825,0.2204,0.0,0.0,0.2839,0.2228,0.1407,0.1119,0.1034,0.0283,0.0,0.0,0.0,0.0,0.0,0.0,0.0,0.0,0.0,0.0,0.0,0.0,0.0,0.0,0.0,0.0,0.0,0.0,0.0,0.0,0.0,0.0,0.0,0.0,0.0,0.0,0.0,0.0,0.0,0.0,0.0,0.0,0.0,0.0,0.0,0.0,0.0,0.0,0.0,0.0,0.0,0.0,0.0,0.0,0.0,0.0,0.0,0.0,0.0,0.0,0.0,0.0,0.0,0.0,0.0,0.0,0.0,0.0,0.0,0.0,0.0,0.0,0.0,0.0,0.0,0.0,0.0,0.0,0.0,0.0,0.0,0.0,0.0,0.0,0.0,0.0,0.0,0.0,0.0,0.0185,0.0,0.0,0.0,0.0,0.0,0.0,0.0,0.0,0.0,0.0,0.0,0.0,0.0,0.0,0.0,0.0,0.0,0.0,0.0,0.0,0.0,0.0,0.0,0.0,0.0,0.0066,0.1312,0.1126,0.0101,0.1323,0.1096,0.0,0.0,0.0,0.0,0.0,0.0,0.0,0.0,0.0,0.0,0.0,0.0,0.0,0.0,0.0,0.0,0.0,0.0,0.0,0.0,0.0,0.0,0.0,0.0,0.0,0.0,0.0,0.0,0.0,0.0,0.0,0.0,0.0,0.0,0.0,0.0,0.0,0.0,0.0,0.0,0.0,0.0,0.0,0.0,0.0,0.0,0.0,0.0,0.0,0.0,0.0,0.0,0.0,0.0,0.0,0.0,0.0,0.0,0.0,0.0,0.0,0.0,0.0,0.0,0.0,0.0,0.0,0.0,0.0,0.0,0.0,0.0,0.0,0.0,0.0,0.0,0.0,0.0,0.0,0.0,0.0,0.0,0.0,0.0,0.0031,0.0,0.0,0.0,0.0,0.0,0.0,0.0,0.0,0.0,0.0,0.0,0.0,0.0,0.0,0.0,0.0,0.0,0.0,0.0,0.0,0.0,0.0,0.0,0.0,0.0,0.0032,0.0258,0.0229,0.0033,0.0264,0.0233,0.0,0.0,0.0,0.0,0.0,0.0,0.0,0.0,0.0,0.0,0.0,0.0,0.0,0.0,0.0,0.0,0.0,0.0,0.0,0.0,0.0,0.0,0.0,0.0,0.0,0.0,0.0,0.0,0.0,0.0,0.0,0.0,0.0,0.0,0.0,0.0,0.0,0.0,0.0,0.0,0.0,0.0,0.0,0.0,0.0,0.0,0.0,0.0,0.0,0.0,0.0,0.0,0.0,0.0,0.0,0.0,0.0,0.0,0.0,0.0,0.0,0.0,0.0,0.0,0.0,0.0,0.0,0.0,0.0,0.0,0.0,0.0,0.0,0.0,0.0,0.0,0.0,0.0,0.0,0.0,0.0,0.1235,0.0895,0.0556,0.0216,0.0,0.0,0.0,0.0,0.0,0.0,0.0,0.0,0.0,0.0,0.0,0.0,0.0,0.0,0.0,0.0,0.0,0.0,0.0,0.0,0.0,0.0,0.0,0.0,0.0,0.0,0.0,0.0,0.0,0.0,0.0,0.0,0.0,0.0,0.0,0.0,0.0,0.0,0.0,0.0,0.0,0.0,0.0,0.0,0.0,0.0,0.0,0.0,0.0,0.0,0.0,0.0,0.0,0.0,0.0,0.0,0.0,0.0,0.0,0.0,0.0,0.0,0.0,0.0,0.0,0.0,0.0,0.0,0.0,0.0,0.0,0.0,0.0,0.0,0.0,0.0,0.0,0.0,0.0,0.0,0.0,0.0,0.0,0.0,0.0,0.0,0.0,0.0,0.0,0.0,0.0,0.0,0.0,0.0,0.0,0.0,0.0,0.0,0.0,0.0,0.0,0.0,0.0,0.0,0.0,0.0,0.0,0.0,0.0,0.0,0.0,0.0,0.1389,0.0988,0.0895,0.037,0.0,0.0,0.0,0.0,0.0,0.0,0.0,0.0,0.0,0.0,0.0,0.0,0.0,0.0,0.0,0.0,0.0,0.0,0.0,0.0,0.0,0.0,0.0,0.0,0.0,0.0,0.0,0.0,0.0,0.0,0.0,0.0,0.0,0.0,0.0,0.0,0.0,0.0,0.0,0.0,0.0,0.0,0.0,0.0,0.0,0.0,0.0,0.0,0.0,0.0,0.0,0.0,0.0,0.0,0.0,0.0,0.0,0.0,0.0,0.0,0.0,0.0,0.0,0.0,0.0,0.0,0.0,0.0,0.0,0.0,0.0,0.0,0.0,0.0,0.0,0.0,0.0,0.0,0.0,0.0,0.0,0.0,0.0,0.0,0.0,0.0,0.0,0.0,0.0,0.0,0.0,0.0,0.0,0.0,0.0,0.0,0.0,0.0,0.0,0.0,0.0,0.0,0.0,0.0,0.0,0.0,0.0,0.0,0.0,0.0,0.0,0.0,0.1235,0.0895,0.0587,0.0216,0.0,0.0,0.0,0.0,0.0,0.0,0.0,0.0,0.0,0.0,0.0,0.0,0.0,0.0,0.0,0.0,0.0,0.0,0.0,0.0,0.0,0.0,0.0,0.0,0.0,0.0,0.0,0.0,0.0,0.0,0.0,0.0,0.0,0.0,0.0,0.0,0.0,0.0,0.0,0.0,0.0,0.0,0.0,0.0,0.0,0.0,0.0,0.0,0.0,0.0,0.0,0.0,0.0,0.0,0.0,0.0,0.0,0.0,0.0,0.0,0.0,0.0,0.0,0.0,0.0,0.0,0.0,0.0,0.0,0.0,0.0,0.0,0.0,0.0,0.0,0.0,0.0,0.0,0.0,0.0,0.0,0.0,0.0,0.0,0.0,0.0,0.0,0.0,0.0,0.0,0.0,0.0,0.0,0.0,0.0,0.0,0.0,0.0,0.0,0.0,0.0,0.0,0.0,0.0,0.0,0.0,0.0,0.0,0.0,0.0,0.0,0.1822,0.1358,0.0957,0.0833,0.034,0.0,0.0,0.0,0.0,0.0,0.0,0.0,0.0,0.0,0.0,0.0,0.0,0.0,0.0,0.0,0.0,0.0,0.0,0.0,0.0,0.0,0.0,0.0,0.0,0.0,0.0,0.0,0.0,0.0,0.0,0.0,0.0,0.0,0.0,0.0,0.0,0.0,0.0,0.0,0.0,0.0,0.0,0.0,0.0,0.0,0.0,0.0,0.0,0.0,0.0,0.0,0.0,0.0,0.0,0.0,0.0,0.0,0.0,0.0,0.0,0.0,0.0,0.0,0.0,0.0,0.0,0.0,0.0,0.0,0.0,0.0,0.0,0.0,0.0,0.0,0.0,0.0,0.0,0.0,0.0,0.0,0.0,0.0,0.0,0.0,0.0,0.0,0.0,0.0,0.0,0.0,0.0,0.0,0.0,0.0,0.0,0.0,0.0,0.0,0.0,0.0,0.0,0.0,0.0,0.0,0.0,0.0,0.0,0.0,0.0,0.1977,0.1853,0.1358,0.0957,0.0864,0.0369,0.0,0.0,0.0,0.0,0.0,0.0,0.0,0.0,0.0,0.0,0.0,0.0,0.0,0.0,0.0,0.0,0.0,0.0,0.0,0.0,0.0,0.0,0.0,0.0,0.0,0.0,0.0,0.0,0.0,0.0,0.0,0.0,0.0,0.0,0.0,0.0,0.0,0.0,0.0,0.0,0.0,0.0,0.0,0.0,0.0,0.0,0.0,0.0,0.0,0.0,0.0,0.0,0.0,0.0,0.0,0.0,0.0,0.0,0.0,0.0,0.0,0.0,0.0,0.0,0.0,0.0,0.0,0.0,0.0,0.0,0.0,0.0,0.0,0.0,0.0,0.0,0.0,0.0,0.0,0.0,0.0,0.0,0.0,0.0,0.0,0.0,0.0,0.0,0.0,0.0,0.0,0.0,0.0,0.0,0.0,0.0,0.0,0.0,0.0,0.0,0.0,0.0,0.0,0.0,0.0,0.0,0.0,0.0,0.0,0.0,0.0,0.1544,0.1204,0.0895,0.0556,0.0213,0.0,0.0,0.0,0.0,0.0,0.0,0.0,0.0,0.0,0.0,0.0,0.0,0.0,0.0,0.0,0.0,0.0,0.0,0.0,0.0,0.0,0.0,0.0,0.0,0.0,0.0,0.0,0.0,0.0,0.0,0.0,0.0,0.0,0.0,0.0,0.0,0.0,0.0,0.0,0.0,0.0,0.0,0.0,0.0,0.0,0.0,0.0,0.0,0.0,0.0,0.0,0.0,0.0,0.0,0.0,0.0,0.0,0.0,0.0,0.0,0.0,0.0,0.0,0.0,0.0,0.0,0.0,0.0,0.0,0.0,0.0,0.0,0.0,0.0,0.0,0.0,0.0,0.0,0.0,0.0,0.0,0.0,0.0,0.0,0.0,0.0,0.0,0.0,0.0,0.0,0.0,0.0,0.0,0.0,0.0,0.0,0.0,0.0,0.0,0.0,0.0,0.0,0.0,0.0,0.0,0.0,0.0,0.0,0.0,0.0,0.0,0.0,0.1019,0.0615,0.0517,0.0212,0.0,0.0,0.0,0.0,0.0,0.0,0.0,0.0,0.0,0.0,0.0,0.0,0.0,0.0,0.0,0.0,0.0,0.0,0.0,0.0,0.0,0.0,0.0,0.0,0.0,0.0,0.0,0.0,0.0,0.0,0.0,0.0,0.0,0.0,0.0,0.0,0.0,0.0,0.0,0.0,0.0,0.0,0.0,0.0,0.0,0.0,0.0,0.0,0.0,0.0,0.0,0.0,0.0,0.0,0.0,0.0,0.0,0.0,0.0,0.0,0.0,0.0,0.0,0.0,0.0,0.0,0.0,0.0,0.0,0.0,0.0,0.0,0.0,0.0,0.0,0.0,0.0,0.0,0.0,0.0,0.0,0.0,0.0,0.0,0.0,0.0,0.0,0.0,0.0,0.0,0.0,0.0,0.0,0.0,0.0,0.0,0.0,0.0,0.0,0.0,0.0,0.0,0.0,0.0,0.0,0.0,0.0,0.0,0.0,0.0,0.0,0.0,0.0768,0.0457,0.0332,0.0119,0.0,0.0,0.04,0.068,0.0673,0.1103,0.0,0.0,0.0,0.0,0.0,0.0,0.0,0.0,0.0,0.0,0.0,0.0,0.0,0.0,0.0,0.0,0.0,0.0,0.0,0.0,0.0,0.0,0.0,0.0,0.0,0.0,0.0,0.0,0.0,0.0,0.0,0.0,0.0,0.0,0.0,0.0,0.0,0.0,0.0,0.0,0.0,0.0,0.0,0.0,0.0,0.0,0.0,0.0,0.0,0.0,0.0,0.0,0.0,0.0,0.0,0.0,0.0,0.0,0.0,0.0,0.0,0.0,0.0,0.0,0.0,0.0,0.0,0.0,0.0,0.0,0.0,0.0,0.0,0.0,0.0,0.0,0.0,0.0,0.0,0.0,0.0,0.0,0.0,0.0,0.0,0.0,0.0,0.0,0.0,0.0,0.0,0.0,0.0,0.0,0.0,0.0,0.0,0.0,0.0,0.0,0.0,0.0,0.0,0.0,0.0,0.0,0.0487,0.0362,0.003,0.0,0.0,0.0,0.0989,0.1707,0.1791,0.0,0.0,0.0,0.0,0.0,0.0,0.0,0.0,0.0029,0.0,0.0,0.0,0.0,0.0,0.0,0.0,0.0,0.0,0.0,0.0,0.0,0.0,0.0,0.0,0.0,0.0,0.0,0.0,0.0,0.0,0.0,0.0,0.0,0.0,0.0,0.0,0.0,0.0,0.0,0.0,0.0,0.0,0.0,0.0,0.0,0.0,0.0,0.0,0.0,0.0,0.0,0.0,0.0,0.0,0.0,0.0,0.0,0.0,0.0,0.0,0.0,0.0,0.0,0.0,0.0,0.0,0.0,0.0,0.0,0.0,0.0,0.0,0.0,0.0,0.0,0.0,0.0,0.0,0.0,0.0,0.0,0.0,0.0,0.0,0.0,0.0,0.0,0.0,0.0,0.0,0.0,0.0,0.0,0.0,0.0,0.0,0.0,0.0,0.0,0.0,0.0,0.0,0.0,0.0,0.0,0.0,0.0,0.0,0.0,0.0,0.0,0.0,0.0,0.0253,0.0784,0.0,0.0,0.0,0.0,0.0,0.0,0.0,0.0,0.0,0.0028,0.0,0.0,0.0,0.0,0.0,0.0,0.0,0.0,0.0,0.0,0.0,0.0,0.0,0.0,0.0,0.0,0.0,0.0,0.0,0.0,0.0,0.0,0.0,0.0,0.0,0.0,0.0,0.0,0.0,0.0,0.0,0.0,0.0,0.0,0.0,0.0,0.0,0.0,0.0,0.0,0.0,0.0,0.0,0.0,0.0,0.0,0.0,0.0,0.0,0.0,0.0,0.0,0.0,0.0,0.0,0.0,0.0,0.0,0.0,0.0,0.0,0.0,0.0,0.0,0.0,0.0,0.0,0.0,0.0,0.0,0.0,0.0,0.0,0.0,0.0,0.0,0.0,0.0,0.0,0.0,0.0,0.0,0.0,0.0,0.0,0.0,0.0,0.0,0.0,0.0,0.0,0.0,0.0,0.0,0.0,0.0,0.0,0.0,0.0,0.0,0.0,0.0,0.0,0.0,0.0504,0.0,0.0,0.0,0.0,0.0,0.0,0.0,0.0,0.0,0.1791,0.0028,0.0,0.0,0.0,0.0,0.0,0.0,0.0,0.0,0.0,0.0,0.0,0.0,0.0,0.0,0.0,0.0,0.0,0.0,0.0,0.0,0.0,0.0,0.0,0.0,0.0,0.0,0.0,0.0,0.0,0.0,0.0,0.0,0.0,0.0,0.0,0.0,0.0,0.0,0.0,0.0,0.0,0.0,0.0,0.0,0.0,0.0,0.0,0.0,0.0,0.0,0.0,0.0,0.0,0.0,0.0,0.0,0.0,0.0,0.0,0.0,0.0,0.0,0.0,0.0,0.0,0.0,0.0,0.0,0.0,0.0,0.0,0.0,0.0,0.0,0.0,0.0,0.0,0.0,0.0,0.0,0.0,0.0,0.0,0.0,0.0,0.0,0.0,0.0,0.0,0.0,0.0,0.0,0.0,0.0,0.0,0.0,0.0,0.0,0.0,0.0,0.0,0.0,0.0,0.0,0.0,0.0,0.0,0.0,0.0,0.0,0.0,0.0,0.0,0.2781,0.2272,0.0056,0.0,0.0,0.0,0.0,0.0,0.0,0.0,0.0,0.0,0.0,0.0,0.0,0.0,0.0,0.0,0.0,0.0,0.0,0.0,0.0,0.0,0.0,0.0,0.0,0.0,0.0,0.0,0.0,0.0,0.0,0.0,0.0,0.0,0.0,0.0,0.0,0.0,0.0,0.0,0.0,0.0,0.0,0.0,0.0,0.0,0.0,0.0,0.0,0.0,0.0,0.0,0.0,0.0,0.0,0.0,0.0,0.0,0.0,0.0,0.0,0.0,0.0,0.0,0.0,0.0,0.0,0.0,0.0,0.0,0.0,0.0,0.0,0.0,0.0,0.0,0.0,0.0,0.0,0.0,0.0,0.0,0.0,0.0,0.0,0.0,0.0,0.0,0.0,0.0,0.0,0.0,0.0,0.0,0.0,0.0,0.0,0.0,0.0,0.0,0.0,0.0,0.0,0.0,0.0,0.0,0.0,0.0,0.0,0.0,0.0,0.0,0.0,0.1857,0.1972,0.1421,0.0028,0.0,0.0,0.0,0.0,0.0,0.0,0.0,0.0,0.0,0.0,0.0,0.0,0.0,0.0,0.0,0.0,0.0,0.0,0.0,0.0,0.0,0.0,0.0,0.0,0.0,0.0,0.0,0.0,0.0,0.0,0.0,0.0,0.0,0.0,0.0,0.0,0.0,0.0,0.0,0.0,0.0,0.0,0.0,0.0,0.0,0.0,0.0,0.0,0.0,0.0,0.0,0.0,0.0,0.0,0.0,0.0,0.0,0.0,0.0,0.0,0.0,0.0,0.0,0.0,0.0,0.0,0.0,0.0,0.0,0.0,0.0,0.0,0.0,0.0,0.0,0.0,0.0,0.0,0.0,0.0,0.0,0.0,0.0,0.0,0.0,0.0,0.0,0.0,0.0,0.0,0.0,0.0,0.0,0.0,0.0,0.0,0.0,0.0,0.0,0.0,0.0,0.0,0.0,0.0,0.0,0.0,0.0,0.0,0.0,0.0,0.0,0.2098,0.089,0.084,0.0578,0.0,0.0,0.0,0.0,0.0,0.0,0.0,0.0,0.0,0.0,0.0,0.0,0.0,0.0,0.0,0.0,0.0,0.0,0.0,0.0,0.0,0.0,0.0,0.0,0.0,0.0,0.0,0.0,0.0,0.0,0.0,0.0,0.0,0.0,0.0,0.0,0.0,0.0,0.0,0.0,0.0,0.0,0.0,0.0,0.0,0.0,0.0,0.0,0.0,0.0,0.0,0.0,0.0,0.0,0.0,0.0,0.0,0.0,0.0,0.0,0.0,0.0,0.0,0.0,0.0,0.0,0.0,0.0,0.0,0.0,0.0,0.0,0.0,0.0,0.0,0.0,0.0,0.0,0.0,0.0,0.0,0.0,0.0,0.0,0.0,0.0,0.0,0.0,0.0,0.0,0.0,0.0,0.0,0.0,0.0,0.0,0.0,0.0,0.0,0.0,0.0,0.0,0.0,0.0,0.0,0.0,0.0,0.0,0.0,0.0,0.0,0.0872,0.096,0.0029,0.0,0.0,0.0,0.0,0.0,0.0,0.0,0.0,0.0,0.0,0.0,0.0,0.0,0.0,0.0,0.0,0.0,0.0,0.0,0.0,0.0,0.0,0.0,0.0,0.0,0.0,0.0,0.0,0.0,0.0,0.0,0.0,0.0,0.0,0.0,0.0,0.0,0.0,0.0,0.0,0.0,0.0,0.0,0.0,0.0,0.0,0.0,0.0,0.0,0.0,0.0,0.0,0.0,0.0,0.0,-0.0398,-0.0673,-0.0673,-0.1076,-0.1171,-0.0728,-0.0684,-0.0505,-0.0047,0.0,0.0,0.0,0.0,0.0,0.0,0.0,0.0,0.0,0.0,0.0,0.0,0.0,0.0,0.0,0.0,0.0,0.0,0.0,0.0,0.0,0.0,0.0,0.0,0.0,0.0,0.0,0.0,0.0,0.0,0.0,0.0,0.0,0.0,0.0,0.0,0.0,0.0,0.0,0.0,0.0,0.0,0.0,0.0,0.0,0.0,0.0,0.0,0.0,0.0086,0.0086,0.0,0.0,0.0,0.0,0.0,0.0,0.0,0.0,0.0,0.0,0.0,0.0,0.0,0.0,0.0,0.0,0.0,0.0,0.0,0.0,0.0,0.0,0.0,0.0,0.0,0.0,0.0,0.0,0.0,0.0,0.0,0.0,0.0,0.0,0.0,0.0,0.0,0.0,0.0,0.0,0.0,0.0,0.0,0.0,0.0,0.0,0.0,0.0,0.0,0.0,0.0,0.0,0.0,0.0,0.0,0.0,0.0,-0.2688,-0.2688,-0.4208,-0.4585,-0.2864,-0.2685,-0.1921,-0.0139,0.0,0.0,0.0,0.0,0.0,0.0,0.0,0.0,0.0,0.0,0.0,0.0,0.0,0.0,0.0,0.0,0.0,0.0,0.0,0.0,0.0,0.0,0.0,0.0,0.0,0.0,0.0,0.0,0.0,0.0,0.0,0.0,0.0,0.0,0.0,0.0,0.0,0.0,0.0,0.0,0.0,0.0,0.0,0.0,0.0,0.0,0.0,0.0,0.0,0.0,0.0,0.0,0.0,0.0,0.0,0.0,0.0,0.0,0.0,0.0,0.0,0.0,0.0,0.0,0.0,0.0,0.0,0.0,0.0,0.0,0.0,0.0,0.0,0.0,0.0,0.0,0.0,0.0,0.0,0.0,0.0,0.0,0.0,0.0,0.0,0.0,0.0,0.0,0.0,-0.077,-0.1296,-0.0264,-0.0765,-0.1282,-0.0237,0.0,0.0,0.0,0.0,0.0,0.0,-0.0926,-0.1682,-0.1682,-0.2653,-0.3427,-0.3427,-0.4108,-0.4655,-0.4655,-0.5281,-0.5423,-0.4727,-0.3604,-0.258,-0.1876,-0.069,0.0,0.0,0.0,0.0,0.0,0.0,0.0,0.0,0.0,0.0,0.0,0.0,0.0,0.0,0.0,0.0,0.0,0.0,0.0,0.0,0.0,0.0,0.0,0.0,0.0,0.0,0.0,0.0,0.0,0.0,0.0,0.0,0.0,0.0,0.0,0.0,0.0,0.0,0.0,0.0,0.0,0.0,0.0,0.0,0.0,0.0,0.0,0.0,0.0,0.0,0.0,0.0,0.0,0.0,0.0,0.0,0.0,0.0,0.0,0.0,0.0,0.0,0.0,0.0,0.0,0.0,0.0,0.0,0.0,0.0,0.0,0.0,0.0,0.0,0.0,0.0,0.0,0.0,0.0,0.0,0.0,0.0,0.0,0.0,0.0,-0.0357,-0.0729,-0.0729,-0.1581,-0.2158,-0.1018,-0.1233,-0.1575,-0.1,-0.0403,-0.0162,-0.0742,-0.0871,-0.1042,-0.1596,-0.227,0.0,0.0,-0.4663,-0.551,-0.551,-0.6139,-0.6621,-0.6621,-0.7156,-0.729,-0.6665,-0.4879,-0.3549,-0.2942,-0.1682,-0.0914,-0.0921,-0.1488,-0.1825,-0.1878,-0.1844,-0.19,-0.1905,-0.1905,-0.1905,-0.1905,-0.1905,-0.124,0.0,0.0,0.0,-0.0046,-0.0641,-0.0906,-0.0942,-0.1569,-0.1793,-0.1793,-0.1793,-0.1793,-0.1793,-0.1793,-0.1793,-0.1793,0.0,0.0,0.0,0.0,0.0,0.0,0.0,0.0,0.0,0.0,0.0,0.0,0.0,0.0,0.0,0.0,0.0,0.0,0.0,0.0,0.0,0.0,0.0,0.0,0.0,0.0,0.0,0.0,0.0,0.0,0.0,0.0,0.0,0.0,0.0,0.0,0.0,0.0,0.0,0.0,0.0,0.0,0.0,0.0,0.0,0.0,0.0,0.0,0.0,0.0,0.0,0.0,0.0,0.0,0.0,0.0,-0.1071,-0.2293,-0.2293,-0.2315,-0.2307,-0.2299,-0.1195,-0.0553,-0.2302,-0.1312,-0.0496,-0.2314,-0.271,-0.3276,-0.5077,-0.3946,0.0,-0.5119,-0.5514,-0.5551,-0.5553,-0.7329,-0.8631,-0.8631,-1.0332,-1.0738,-0.881,-0.6889,-0.4968,-0.3091,-0.2941,-0.2912,-0.2912,-0.4683,-0.575,-0.5901,-0.5904,-0.5978,-0.6082,-0.6082,-0.6082,-0.6085,-0.6085,-0.3997,-0.0048,-0.0047,-0.0047,-0.0185,-0.2104,-0.2941,-0.3091,-0.4923,-0.5683,-0.5683,-0.5683,-0.5683,-0.5683,-0.5683,-0.5683,-0.5683,0.0,0.0,0.0,0.0,0.0,0.0,0.0,0.0,0.0,0.0,0.0,0.0,0.0,0.0,0.0,0.0,0.0,0.0,0.0,0.0,0.0,0.0,0.0,0.0,0.0,0.0,0.0,0.0,0.0,0.0,0.0,0.0,0.0,0.0,0.0,0.0,0.0,0.0,0.0,0.0,0.0,0.0,0.0,0.0,0.0,0.0,0.0,0.0,0.0,0.0,0.0,0.0,0.0,0.0,0.0,0.0,-0.0324,-0.0693,-0.0693,-0.2405,-0.3911,-0.2719,-0.3938,-0.5228,-0.4617,-0.2131,-0.0498,-0.2338,-0.3728,-0.4742,-0.5287,-0.5999,0.0,-0.7212,-0.8404,-0.9326,-0.9443,-1.0044,-1.0514,-1.0639,-1.1138,-1.1277,-1.0693,-0.8899,-0.7513,-0.6933,-0.5654,-0.4857,-0.4857,-0.5404,-0.5716,-0.5778,-0.5775,-0.5825,-0.5978,-0.5978,-0.5997,-0.6085,-0.6085,-0.5467,-0.428,-0.4268,-0.4287,-0.4335,-0.4801,-0.5026,-0.5065,-0.552,-0.5683,-0.5683,-0.5683,-0.5683,-0.5683,-0.5683,-0.5683,-0.5683,0.0,0.0,0.0,0.0,0.0,0.0,0.0,0.0,0.0,0.0,0.0,0.0,0.0,0.0,0.0,0.0,0.0,0.0,0.0,0.0,0.0,0.0,0.0,0.0,0.0,0.0,0.0,0.0,0.0,0.0,0.0,0.0,0.0,0.0,0.0,0.0,0.0,0.0,0.0,0.0,0.0,0.0,0.0,0.0,0.0,0.0,0.0,0.0,0.0,0.0,0.0,0.0,0.0,0.0,-0.0136,-0.0742,-0.1371,-0.2006,-0.2674,-0.4352,-0.5629,-0.4634,-0.5582,-0.6462,-0.5496,-0.4216,-0.3539,-0.4609,-0.5706,-0.6668,-0.7379,-0.7843,0.0,-0.9017,-1.012,-1.0944,-1.102,-1.1166,-1.1341,-1.1417,-1.1472,-1.1499,-1.1499,-0.9749,-0.8587,-0.8587,-0.7513,-0.6844,-0.6844,-0.7604,-0.8009,-0.8042,-0.8046,-0.8113,-0.8242,-0.8276,-0.836,-0.8457,-0.8491,-0.8506,-0.8459,-0.6844,-0.6096,-0.6129,-0.6783,-0.7495,-0.8171,-0.8042,-0.8007,-0.8007,-0.8007,-0.8007,-0.8007,-0.8007,-0.8007,-0.8007,0.0,0.0,0.0,0.0,0.0,0.0,0.0,0.0,0.0,0.0,0.0,0.0,0.0,0.0,0.0,0.0,0.0,0.0,0.0,0.0,0.0,0.0,0.0,0.0,0.0,0.0,0.0,0.0,0.0,0.0,0.0,0.0,0.0,0.0,0.0,0.0,0.0,0.0,0.0,0.0,0.0,0.0,0.0,0.0,0.0,0.0,0.0,0.0,0.0,0.0,0.0,0.0,0.0,0.0,-0.0306,-0.1838,-0.3353,-0.4853,-0.6536,-0.7141,-0.7302,-0.7354,-0.6555,-0.575,-0.5843,-0.717,-0.8344,-0.8136,-0.8219,-0.8804,-1.0398,-0.9392,-0.8845,-1.0445,-1.0787,-1.0905,-1.0916,-1.1107,-1.1292,-1.1313,-1.1417,-1.1488,-1.1499,-0.9887,-0.8854,-0.8854,-0.8854,-0.8854,-0.8854,-1.056,-1.1548,-1.1573,-1.1573,-1.1632,-1.1803,-1.1906,-1.196,-1.1976,-1.2096,-1.2203,-1.2062,-0.836,-0.6665,-0.6733,-0.8358,-1.0061,-1.1583,-1.152,-1.151,-1.1499,-1.1499,-1.1543,-1.1543,-1.1543,-1.1588,-1.1632,0.0,0.0,0.0,0.0,0.0,0.0,0.0,0.0,0.0,0.0,0.0,0.0,0.0,0.0,0.0,0.0,0.0,0.0,0.0,0.0,0.0,0.0,0.0,0.0,0.0,0.0,0.0,0.0,0.0,0.0,0.0,0.0,0.0,0.0,0.0,0.0,0.0,0.0,0.0,0.0,0.0,0.0,0.0,0.0,0.0,0.0,0.0,0.0,0.0,0.0,0.0,0.0,0.0,0.0,-0.031,-0.1863,-0.2542,-0.3174,-0.4875,-0.6537,-0.7829,-0.7926,-0.8845,-0.9703,-0.9594,-1.0148,-1.0185,-0.847,-0.9184,-1.0273,-1.0612,-1.0398,-1.0273,-1.0654,-1.0717,-1.0766,-1.0905,-1.0965,-1.1063,-1.1248,-1.1341,-1.1395,-1.1488,-1.1138,-1.0871,-1.0871,-1.0871,-1.0871,-1.0871,-1.1277,-1.151,-1.1537,-1.1537,-1.1552,-1.1627,-1.1654,-1.1759,-1.1857,-1.1971,-1.2025,-1.2031,-1.1224,-1.0822,-1.0762,-1.114,-1.1436,-1.1589,-1.1562,-1.1542,-1.1499,-1.1499,-1.1721,-1.2032,-1.2032,-1.2299,-1.2609,0.0,0.0,0.0,0.0,0.0,0.0,0.0,0.0,0.0,0.0,0.0,0.0,0.0,0.0,0.0,0.0,0.0,0.0,0.0,0.0,0.0,0.0,0.0,0.0,0.0,0.0,0.0,0.0,0.0,0.0,0.0,0.0,0.0,0.0,0.0,0.0,0.0,0.0,0.0,0.0,0.0,0.0,0.0,0.0,0.0,0.0,0.0,0.0,0.0,0.0,0.0,0.0,0.0,0.0,-0.045,-0.277,-0.3457,-0.3976,-0.6385,-0.8071,-0.923,-0.9703,-1.0594,-1.134,-1.1346,-1.157,-1.1397,-1.0268,-1.0565,-1.0987,-1.0737,-1.0695,-1.0779,-1.0987,-1.1029,-1.1051,-1.1118,-1.1179,-1.1221,-1.1133,-1.1204,-1.1341,-1.1406,-1.1466,-1.1499,-1.1499,-1.1499,-1.1499,-1.1499,-1.1721,-1.1855,-1.1855,-1.1855,-1.1977,-1.2219,-1.2012,-1.2119,-1.2414,-1.2535,-1.2627,-1.269,-1.2353,-1.2181,-1.2121,-1.2248,-1.224,-1.2163,-1.2272,-1.2321,-1.2252,-1.2188,-1.2299,-1.252,-1.252,-1.2698,-1.292,0.0,0.0,0.0,0.0,0.0,0.0,0.0,0.0,0.0,0.0,0.0,0.0,0.0,0.0,0.0,0.0,0.0,0.0,0.0,0.0,0.0,0.0,0.0,0.0,0.0,0.0,0.0,0.0,0.0,0.0,0.0,0.0,0.0,0.0,0.0,0.0,0.0,0.0,0.0,0.0,0.0,0.0,0.0,0.0,0.0,0.0,0.0,0.0,0.0,0.0,0.0,0.0,0.0,0.0,-0.0557,-0.3459,-0.4475,-0.5326,-0.8306,-0.9739,-1.065,-1.1583,-1.1792,-1.1866,-1.2049,-1.2152,-1.2193,-1.211,-1.1778,-1.1403,-1.1029,-1.0945,-1.107,-1.1445,-1.1528,-1.1528,-1.1528,-1.1621,-1.1528,-1.117,-1.1305,-1.1488,-1.1532,-1.1627,-1.1699,-1.1721,-1.1721,-1.1721,-1.1721,-1.2121,-1.2299,-1.2299,-1.2299,-1.252,-1.292,-1.2583,-1.2642,-1.3052,-1.3129,-1.3263,-1.3403,-1.2741,-1.2433,-1.245,-1.2765,-1.2847,-1.2859,-1.3059,-1.3126,-1.3071,-1.2961,-1.2989,-1.3008,-1.3008,-1.3053,-1.3147,0.0,0.0,0.0,0.0,0.0,0.0,0.0,0.0,0.0,0.0,0.0,0.0,0.0,0.0,0.0,0.0,0.0,0.0,0.0,0.0,0.0,0.0,0.0,0.0,0.0,0.0,0.0,0.0,0.0,0.0,0.0,0.0,0.0,0.0,0.0,0.0,0.0,0.0,0.0,0.0,0.0,0.0,0.0,0.0,0.0,0.0,0.0,0.0,0.0,0.0,0.0,0.0,0.0,0.0,-0.0357,-0.2102,-0.3603,-0.5107,-0.6982,-0.9195,-1.1184,-1.2006,-1.2234,-1.2189,-1.2132,-1.2359,-1.2526,0.0,-1.2069,-1.1986,-1.1902,-1.1902,-1.1944,-1.1986,-1.2027,-1.2027,-1.2027,-1.2004,-1.2017,-1.2047,-1.2047,-1.2203,-1.2475,-1.2511,-1.2571,-1.2692,-1.2698,-1.2698,-1.2698,-1.2787,-1.2787,-1.2787,-1.2787,-1.2831,-1.292,-1.2849,-1.2861,-1.295,-1.304,-1.3175,-1.3257,-1.3305,-1.3385,-1.3493,-1.3569,-1.3497,-1.3381,-1.3437,-1.3291,-1.3083,-1.3065,-1.3253,-1.3502,-1.3502,-1.3768,-1.4122,0.0,0.0,0.0,0.0,0.0,0.0,0.0,0.0,0.0,0.0,0.0,0.0,0.0,0.0,0.0,0.0,0.0,0.0,0.0,0.0,0.0,0.0,0.0,0.0,0.0,0.0,0.0,0.0,0.0,0.0,0.0,0.0,0.0,0.0,0.0,0.0,0.0,0.0,0.0,0.0,0.0,0.0,0.0,0.0,0.0,0.0,0.0,0.0,0.0,0.0,0.0,0.0,0.0,0.0,0.0,0.0,-0.3457,-0.5369,-0.8452,-1.011,-1.1245,-1.2285,-1.2615,-1.2695,-1.2688,-1.2923,-1.3024,-1.2858,-1.2816,-1.2692,-1.2193,-1.211,-1.2152,-1.2401,-1.2443,-1.2443,-1.2443,-1.2443,-1.2343,-1.2154,-1.2185,-1.2277,-1.2392,-1.2582,-1.2742,-1.2803,-1.2877,-1.292,-1.292,-1.3141,-1.3274,-1.3274,-1.3274,-1.3413,-1.3679,-1.3413,-1.3413,-1.3679,-1.3822,-1.3919,-1.3932,-1.4081,-1.3953,-1.3619,-1.3927,-1.4068,-1.4005,-1.4255,-1.429,-1.416,-1.3952,-1.3982,-1.4095,-1.4016,-1.4122,-1.4299,0.0,0.0,0.0,0.0,0.0,0.0,0.0,0.0,0.0,0.0,0.0,0.0,0.0,0.0,0.0,0.0,0.0,0.0,0.0,0.0,0.0,0.0,0.0,0.0,0.0,0.0,0.0,0.0,0.0,0.0,0.0,0.0,0.0,0.0,0.0,0.0,0.0,0.0,0.0,0.0,0.0,0.0,0.0,0.0,0.0,0.0,0.0,0.0,0.0,0.0,0.0,0.0,0.0,0.0,0.0,0.0,0.0,-0.6064,-0.9706,-1.0803,-1.1145,-1.2219,-1.2707,-1.2949,-1.3173,-1.3261,-1.3356,-1.339,-1.3403,-1.3189,-1.2567,-1.2443,-1.2526,-1.2816,-1.2899,-1.2899,-1.2899,-1.2899,-1.2775,-1.2484,-1.2453,-1.2528,-1.2566,-1.2797,-1.2947,-1.306,-1.3161,-1.3243,-1.323,-1.3591,-1.3768,-1.3768,-1.3768,-1.3945,-1.4299,-1.3945,-1.3945,-1.4299,-1.4407,-1.4462,-1.4462,-1.4566,-1.4329,-1.3797,-1.43,-1.4584,-1.4651,-1.4925,-1.5051,-1.4989,-1.4672,-1.455,-1.4496,-1.4353,-1.4299,-1.4299,0.0,0.0,0.0,0.0,0.0,0.0,0.0,0.0,0.0,0.0,0.0,0.0,0.0,0.0,0.0,0.0,0.0,0.0,0.0,0.0,0.0,0.0,0.0,0.0,0.0,0.0,0.0,0.0,0.0,0.0,0.0,0.0,0.0,0.0,0.0,0.0,0.0,0.0,0.0,0.0,0.0,0.0,0.0,0.0,0.0,0.0,0.0,0.0,0.0,0.0,0.0,0.0,0.0,0.0,0.0,0.0,0.0,0.0,-0.9564,-1.0507,-1.1083,-1.1786,-1.2318,-1.2813,-1.3146,-1.322,-1.3268,-1.337,-1.3403,-1.3403,-1.3362,-1.3321,-1.3362,-1.3362,-1.3362,-1.3362,-1.3362,-1.3362,-1.3362,-1.3321,-1.3327,-1.3388,-1.3529,-1.3556,-1.3685,-1.4004,-1.4031,-1.4106,-1.4204,-1.4255,-1.4255,-1.4255,-1.4255,-1.4299,-1.4299,-1.4299,-1.4299,-1.4299,-1.4306,-1.4312,-1.4319,-1.4462,-1.4484,-1.446,-1.4802,-1.5059,-1.5181,-1.5174,-1.5092,-1.5003,-1.4794,-1.4593,-1.4496,-1.4353,-1.4299,-1.4299,0.0,0.0,0.0,0.0,0.0,0.0,0.0,0.0,0.0,0.0,0.0,0.0,0.0,0.0,0.0,0.0,0.0,0.0,0.0,0.0,0.0,0.0,0.0,0.0,0.0,0.0,0.0,0.0,0.0,-0.0469,-0.1313,-0.0413,-0.0483,-0.1297,-0.0418,0.0,-0.0065,-0.1059,0.0,0.0,0.0,0.0,0.0,0.0,0.0,0.0,0.0,0.0,0.0,0.0,0.0,0.0,0.0,0.0,0.0,0.0,0.0,-0.747,-0.9522,-1.0316,-1.0726,-1.1555,-1.2044,-1.2404,-1.2788,-1.3037,-1.3227,-1.3241,-1.3336,-1.3403,-1.3403,-1.3403,-1.3403,-1.3403,-1.3403,-1.3403,-1.3403,-1.3403,-1.3403,-1.3403,-1.3403,-1.3424,-1.3478,-1.3531,-1.3632,-1.3777,-1.3966,-1.4139,-1.415,-1.4245,-1.4299,-1.4299,-1.4299,-1.4299,-1.4299,-1.4299,-1.4299,-1.4299,-1.4299,-1.4299,-1.4299,-1.4353,-1.4428,-1.4516,-1.4631,-1.4814,-1.5091,-1.5091,-1.5072,-1.5092,-1.4943,-1.4794,-1.4593,-1.4489,-1.438,-1.4299,0.0,0.0,0.0,0.0,0.0,0.0,0.0,0.0,0.0,0.0,0.0,0.0,0.0,0.0,0.0,0.0,0.0,0.0,0.0,0.0,0.0,0.0,0.0,0.0,0.0,0.0,0.0,0.0,-0.0472,-0.0948,-0.1398,-0.1458,-0.1741,-0.2154,-0.1758,-0.1264,-0.087,0.0,0.0,-0.3205,0.0,0.0,-0.471,0.0,0.0,0.0,0.0,0.0,0.0,0.0,0.0,0.0,0.0,0.0,0.0,0.0,0.0,0.0,-0.9473,0.0,-1.038,-1.1044,-1.1593,-1.2063,-1.243,-1.2762,-1.3051,-1.3193,-1.3254,-1.3342,-1.339,-1.3403,-1.3403,-1.3403,-1.3403,-1.3403,-1.3403,-1.3403,-1.3403,-1.3403,-1.3403,-1.3403,-1.3403,-1.3492,-1.3531,-1.3585,-1.381,-1.3966,-1.4112,-1.417,-1.4245,-1.4299,-1.4299,-1.4299,-1.4299,-1.4299,-1.4299,-1.4299,-1.4299,-1.4299,-1.4299,-1.4299,-1.4353,-1.4441,-1.4441,-1.4611,-1.4896,-1.495,-1.5071,-1.5099,-1.5011,-1.4909,-1.4794,-1.4584,-1.4448,-1.4367,0.0,0.0,0.0,0.0,0.0,0.0,0.0,0.0,0.0,0.0,0.0,0.0,0.0,0.0,0.0,0.0,0.0,0.0,0.0,0.0,0.0,0.0,0.0,0.0,0.0,-0.0032,-0.0032,0.0,-0.1462,-0.1463,-0.0194,-0.3119,-0.3765,-0.2495,-0.4082,-0.3892,-0.2549,0.0,-0.4781,-0.4789,0.0,-0.4838,-0.4838,0.0,0.0,0.0,-0.4844,-0.4808,0.0,0.0,0.0,0.0,0.0,0.0,0.0,0.0,0.0,0.0,0.0,0.0,0.0,0.0,-1.1006,-1.1753,-1.203,-1.241,-1.2774,-1.3098,-1.3207,-1.3261,-1.337,-1.3397,-1.3403,-1.3403,-1.3403,-1.3403,-1.3403,-1.3403,-1.3403,-1.3403,-1.3403,-1.3403,-1.3403,-1.3403,-1.3464,-1.3572,-1.3585,-1.3756,-1.4084,-1.4112,-1.4143,-1.4292,-1.4299,-1.4299,-1.4299,-1.4299,-1.4299,-1.4299,-1.4299,-1.4299,-1.4299,-1.4299,-1.4299,-1.4299,-1.4299,-1.4462,-1.4694,-1.4896,-1.501,-1.5017,-1.5017,-1.5017,-1.4983,-1.4638,-1.4516,-1.4489,0.0,0.0,0.0,0.0,0.0,0.0,0.0,0.0,0.0,0.0,0.0,0.0,0.0,0.0,0.0,0.0,0.0,0.0,0.0,0.0,0.0,0.0,0.0,0.0,0.0,-0.0995,-0.1027,0.0,-0.2586,-0.3635,-0.3289,-0.42,-0.497,-0.5576,-0.6113,-0.6118,-0.5723,-0.6172,0.0,-0.6473,-0.7584,-0.8032,0.0,0.0,0.0,0.0,0.0,-0.7688,-0.6852,0.0,-0.6115,-0.5344,0.0,0.0,0.0,0.0,0.0,0.0,-0.9302,0.0,0.0,0.0,0.0,0.0,-1.1785,-1.2102,-1.2358,-1.2754,-1.3024,-1.3227,-1.3268,-1.3322,-1.3403,-1.3403,-1.3403,-1.3403,-1.3403,-1.3403,-1.3403,-1.3403,-1.3403,-1.3403,-1.3403,-1.3403,-1.3417,0.0,-1.3566,-1.3619,-1.3749,-1.3953,-1.4143,-1.4292,-1.4299,-1.4299,-1.4299,-1.4299,-1.4299,-1.4299,-1.4299,-1.4299,-1.4299,-1.4299,-1.4299,-1.4299,-1.4299,-1.4346,-1.4434,-1.4577,-1.4767,-1.5017,-1.5017,-1.5017,-1.501,-1.4921,-1.4699,-1.4509,0.0,0.0,0.0,0.0,0.0,0.0,0.0,0.0,0.0,0.0,0.0,0.0,0.0,0.0,0.0,0.0,0.0,0.0,0.0,0.0,0.0,0.0,0.0,0.0,0.0,-0.1428,-0.1792,-0.0969,-0.3974,-0.5156,-0.4612,-0.5935,-0.6653,-0.6914,-0.7634,0.0,0.0,0.0,0.0,0.0,-0.8941,0.0,0.0,-0.9459,-0.963,0.0,0.0,0.0,-0.881,-0.8995,-0.8251,0.0,0.0,0.0,0.0,0.0,0.0,0.0,0.0,0.0,0.0,0.0,0.0,0.0,-1.1184,-1.1669,-1.2102,0.0,-1.2748,-1.3024,-1.3193,-1.3247,-1.3329,-1.339,-1.3403,-1.3403,-1.3403,-1.3403,-1.3403,-1.3403,-1.3403,-1.3403,-1.3403,-1.3403,-1.3403,-1.3403,-1.3485,-1.3518,-1.3585,-1.3912,-1.4159,-1.4204,-1.4265,-1.4299,-1.4299,-1.4299,-1.4299,-1.4299,-1.4299,-1.4299,-1.4299,-1.4299,-1.4299,-1.4299,-1.4299,-1.4299,-1.4306,-1.4387,-1.4563,-1.4787,-1.4848,-1.4916,-1.501,-1.4896,-1.4801,-1.4692,0.0,0.0,0.0,0.0,0.0,0.0,0.0,0.0,0.0,0.0,0.0,0.0,0.0,0.0,0.0,0.0,0.0,0.0,0.0,0.0,-0.0069,-0.0241,-0.0244,-0.035,-0.0526,-0.2008,-0.2733,-0.2553,-0.5563,-0.6333,-0.5013,-0.7813,-0.8469,-0.7327,-0.8678,0.0,0.0,0.0,0.0,-0.9396,-0.9323,-0.9425,0.0,0.0,-0.993,-1.0402,-1.0419,-1.0413,-1.0514,-1.0834,-1.0637,0.0,0.0,0.0,0.0,0.0,-0.9349,0.0,0.0,0.0,0.0,0.0,0.0,0.0,-1.0477,-1.1215,-1.1882,0.0,-1.2403,-1.2774,-1.3078,-1.318,-1.3241,-1.3349,-1.3376,-1.3383,-1.3397,-1.3403,-1.3403,-1.3403,-1.3403,-1.3403,-1.3403,-1.3403,-1.3403,-1.3403,-1.3403,-1.3464,-1.3578,-1.3878,-1.4084,-1.4112,-1.4204,-1.4285,-1.4299,-1.4299,-1.4299,-1.4299,-1.4299,-1.4299,-1.4299,-1.4299,-1.4299,-1.4299,-1.4299,-1.4299,-1.4299,-1.4299,-1.438,-1.4523,-1.4613,-1.4821,-1.5003,-1.4814,-1.4855,-1.495,0.0,0.0,0.0,0.0,0.0,0.0,0.0,0.0,0.0,0.0,0.0,0.0,0.0,0.0,0.0,0.0,0.0,0.0,0.0,0.0,-0.0558,-0.1812,-0.1852,-0.2448,-0.3743,-0.5194,-0.5368,-0.423,-0.7191,-0.7936,-0.6606,-0.8422,-0.9125,-0.8873,-0.9147,-0.9302,-0.9302,0.0,0.0,-0.9925,-0.9595,0.0,-1.0025,-1.0225,-1.0582,-1.0972,-1.1069,-1.1236,-1.1435,0.0,-1.1294,-1.1126,0.0,0.0,0.0,0.0,0.0,0.0,0.0,0.0,0.0,0.0,0.0,0.0,-1.0477,-1.1011,-1.1501,0.0,-1.2331,-1.2706,-1.2807,-1.2915,-1.3091,-1.3234,-1.3254,-1.3261,-1.3383,-1.3403,-1.3403,-1.3403,-1.3403,-1.3403,-1.3403,-1.3403,-1.3403,-1.3403,-1.3403,-1.3464,-1.3578,-1.3639,-1.3824,-1.4105,-1.4146,-1.4177,-1.4299,-1.4299,-1.4299,-1.4299,-1.4299,-1.4299,-1.4299,-1.4299,-1.4299,-1.4299,-1.4299,-1.4299,-1.4299,-1.4299,-1.438,-1.4516,-1.4543,-1.4726,-1.5017,-1.4936,-1.4989,-1.497,0.0,0.0,0.0,0.0,0.0,0.0,0.0,0.0,0.0,0.0,0.0,0.0,0.0,0.0,-0.0322,-0.1072,-0.1143,-0.15,-0.2286,-0.2358,-0.2677,-0.346,-0.3496,-0.3888,-0.4674,-0.6133,-0.6559,-0.5848,-0.8112,-0.8821,-0.8172,-0.8951,-0.941,-0.959,-0.9374,-0.9443,-0.9686,0.0,-0.9612,-0.9908,-0.9846,0.0,-1.0309,-1.0437,-1.0839,-1.1319,-1.1381,-1.1752,-1.214,-1.1797,-1.1511,0.0,0.0,-1.0759,-1.0427,0.0,-0.9979,-1.0002,0.0,0.0,0.0,-0.9676,0.0,0.0,0.0,-1.0595,-1.1029,-1.1223,-1.1823,-1.2324,-1.2403,-1.2635,-1.2895,-1.3084,-1.3105,-1.3159,-1.3268,-1.3356,-1.3403,-1.3403,-1.3403,-1.3403,-1.3403,-1.3403,-1.3403,-1.3403,-1.3403,-1.3437,-1.3512,-1.3545,-1.3729,-1.3946,-1.4034,-1.4143,-1.4299,-1.4299,-1.4299,-1.4299,-1.4299,-1.4299,-1.4299,-1.4299,-1.4299,-1.4299,-1.4299,-1.4299,-1.4299,-1.4299,-1.434,-1.4407,-1.4407,-1.4543,-1.4753,-1.4828,-1.4903,-1.503,0.0,0.0,0.0,0.0,0.0,0.0,0.0,0.0,-0.0106,-0.0389,-0.0428,-0.0574,-0.0861,-0.0906,-0.1421,-0.2728,-0.2874,-0.3419,-0.4729,-0.4802,-0.4911,-0.5129,-0.5129,-0.5274,-0.5564,-0.6797,-0.7449,-0.7449,-0.8688,-0.9302,-0.9302,-0.9302,-0.9518,-0.9879,-0.9582,-0.9686,-1.0075,0.0,0.0,-1.0,0.0,-1.0419,-1.0523,-1.0668,-1.1098,-1.1665,-1.1744,-1.2219,-1.2673,-1.2161,0.0,-1.1299,-1.1491,-1.1074,0.0,0.0,0.0,0.0,0.0,0.0,0.0,0.0,0.0,-0.9807,0.0,0.0,0.0,-1.0602,-1.1223,0.0,0.0,0.0,0.0,-1.2813,0.0,0.0,0.0,-1.32,0.0,-1.3397,-1.3403,-1.3403,-1.3403,-1.3403,-1.3403,-1.3403,-1.3403,-1.3403,-1.3403,-1.3519,-1.3605,-1.3754,-1.3946,-1.4102,-1.4251,-1.4285,-1.4299,-1.4299,-1.4299,-1.4299,-1.4299,-1.4299,-1.4299,-1.4299,-1.4299,-1.4299,-1.4299,-1.4299,-1.4299,-1.4299,-1.4299,-1.4387,-1.4529,-1.4606,-1.4814,-1.503,0.0,0.0,0.0,0.0,0.0,0.0,0.0,0.0,-0.0508,-0.1849,-0.2032,-0.2578,-0.3993,0.0,0.0,0.0,0.0,0.0,-0.5126,0.0,0.0,-0.6688,-0.6725,-0.7381,-0.876,-0.8941,-0.9049,-0.9049,-0.923,-0.9302,-0.9302,-0.9302,-0.9518,-0.9921,-0.9964,-1.0021,-1.0118,0.0,-1.0506,0.0,-1.112,-1.0943,0.0,-1.1176,-1.1717,-1.2255,-1.2695,-1.2895,-1.2895,0.0,-1.2133,-1.1853,0.0,-1.1211,-1.1314,0.0,0.0,0.0,0.0,0.0,0.0,0.0,-0.9791,0.0,0.0,0.0,-1.0602,-1.0602,0.0,0.0,0.0,0.0,0.0,0.0,0.0,0.0,-1.2596,-1.2867,-1.3152,-1.337,-1.3403,-1.3403,-1.3403,-1.3403,-1.3403,-1.3403,-1.3403,-1.3403,-1.3403,-1.3417,-1.3498,-1.3605,-1.3747,-1.3939,-1.4139,-1.4231,-1.4299,-1.4299,-1.4299,-1.4299,-1.4299,-1.4299,-1.4299,-1.4299,-1.4299,-1.4299,-1.4299,-1.4299,-1.4299,-1.4299,-1.4299,-1.4387,-1.4516,-1.4529,-1.4719,-1.5017,0.0,0.0,0.0,0.0,0.0,-0.0289,-0.1192,-0.2154,-0.3016,-0.3678,-0.3812,-0.4127,0.0,0.0,0.0,0.0,0.0,-0.7052,0.0,0.0,0.0,0.0,-0.8489,0.0,-0.941,-0.934,-0.9302,-0.9302,-0.9302,-0.9449,-0.9776,-0.9776,-1.0035,-1.0473,-1.0533,-1.0598,-1.0607,0.0,-1.0791,0.0,0.0,0.0,0.0,-1.1792,-1.2194,-1.2518,-1.2963,-1.3125,-1.3071,0.0,-1.2315,0.0,0.0,0.0,0.0,0.0,0.0,0.0,0.0,0.0,0.0,0.0,0.0,0.0,-1.0047,0.0,-1.0253,0.0,0.0,0.0,0.0,0.0,0.0,0.0,-1.2515,0.0,0.0,0.0,-1.2935,0.0,0.0,0.0,-1.339,-1.3403,-1.3403,-1.3403,-1.3403,-1.3403,-1.3403,-1.3403,-1.3471,-1.3585,-1.3727,-1.3912,-1.4112,-1.4224,-1.4299,-1.4299,-1.4299,-1.4299,-1.4299,-1.4299,-1.4299,-1.4299,-1.4299,-1.4299,-1.4299,-1.4299,-1.4299,-1.4299,-1.4299,-1.434,-1.4401,-1.4482,-1.459,-1.4733,-0.059,0.0,0.0,0.0,-0.0696,-0.1211,-0.2792,-0.4073,-0.4989,-0.5435,0.0,0.0,-0.6228,-0.6378,0.0,0.0,-0.8669,-0.9229,0.0,0.0,-1.0242,0.0,0.0,0.0,0.0,-0.9559,-0.9478,-0.9587,-0.9478,-0.9595,-0.9979,-0.9979,-1.0328,-1.0902,-1.0945,-1.1075,-1.1249,0.0,-1.1279,-1.1696,-1.1511,-1.1806,-1.232,-1.2388,-1.2576,-1.2865,-1.3152,-1.3234,-1.322,-1.299,-1.2485,0.0,-1.2533,0.0,0.0,0.0,0.0,0.0,-1.0571,0.0,0.0,0.0,0.0,0.0,0.0,0.0,0.0,0.0,0.0,0.0,0.0,0.0,0.0,0.0,0.0,-1.2515,0.0,-1.2617,0.0,0.0,0.0,0.0,0.0,-1.3376,-1.3403,-1.3403,-1.3403,-1.3403,-1.3403,-1.3403,-1.3451,-1.3518,-1.3666,-1.3815,-1.4007,-1.4163,-1.4258,-1.4299,-1.4299,-1.4299,-1.4299,-1.4299,-1.4299,-1.4299,-1.4299,-1.4299,-1.4299,-1.4299,-1.4299,-1.4299,-1.4299,-1.4299,-1.4312,-1.4414,-1.4475,-1.455,-0.2116,-0.1112,0.0,0.0,-0.2411,-0.2978,-0.4667,-0.4941,0.0,0.0,0.0,0.0,0.0,0.0,0.0,0.0,0.0,-1.1382,-1.1457,0.0,-1.0859,0.0,0.0,-1.0073,0.0,0.0,-0.988,-1.0254,-0.988,-0.9698,-0.9703,-0.9703,-1.0153,-1.0908,-1.1043,-1.1364,-1.1882,-1.1991,-1.2139,-1.228,-1.2456,-1.2885,-1.3307,0.0,-1.2975,-1.3397,-1.3397,0.0,0.0,-1.2845,-1.2671,0.0,0.0,0.0,0.0,0.0,0.0,0.0,0.0,0.0,0.0,-1.0709,0.0,0.0,0.0,0.0,-0.998,0.0,0.0,0.0,0.0,0.0,0.0,0.0,0.0,0.0,0.0,0.0,0.0,0.0,0.0,0.0,0.0,-1.3315,-1.3403,-1.3403,-1.3403,-1.3403,-1.3403,-1.3403,-1.3403,-1.341,-1.3559,-1.366,-1.3802,-1.4,-1.4156,-1.4299,-1.4299,-1.4299,-1.4299,-1.4299,-1.4299,-1.4299,-1.4299,-1.4299,-1.4299,-1.4299,-1.4299,-1.4299,-1.4299,-1.4299,-1.4299,-1.4306,-1.4394,-1.4536,0.0,0.0,0.0,0.0,0.0,0.0,0.0,-0.7709,0.0,0.0,0.0,0.0,0.0,-1.0898,-1.1097,0.0,0.0,-1.1643,-1.1643,-1.1491,0.0,0.0,0.0,-1.062,0.0,0.0,0.0,0.0,-1.0153,-1.0425,-1.0999,-1.0999,-1.1238,-1.1594,-1.1973,-1.2102,0.0,0.0,0.0,0.0,0.0,-1.3232,-1.3403,0.0,-1.3272,-1.3403,-1.3403,-1.3403,0.0,-1.3238,-1.2949,-1.2703,-1.2827,-1.2548,-1.2162,-1.2272,-1.2165,-1.1972,0.0,0.0,-1.1831,-1.1066,0.0,0.0,0.0,0.0,0.0,0.0,0.0,0.0,0.0,0.0,0.0,0.0,0.0,0.0,0.0,0.0,0.0,0.0,0.0,0.0,0.0,0.0,-1.3295,-1.3397,-1.3403,-1.3403,-1.3403,-1.3403,-1.3403,-1.3403,-1.3553,-1.3653,-1.3795,-1.3994,-1.415,-1.4299,-1.4299,-1.4299,-1.4299,-1.4299,-1.4299,-1.4299,-1.4299,-1.4299,-1.4299,-1.4299,-1.4299,-1.4299,-1.4299,-1.4299,-1.4299,-1.4299,-1.4333,-1.4407,-0.6003,0.0,0.0,0.0,0.0,0.0,0.0,0.0,0.0,0.0,-1.1017,0.0,-1.1374,0.0,-1.1724,0.0,-1.2063,-1.2141,-1.2141,-1.2024,0.0,-1.1913,-1.1481,0.0,0.0,0.0,0.0,0.0,0.0,-1.0978,-1.1562,-1.1612,-1.176,-1.2005,-1.2391,-1.2523,-1.2502,-1.2686,-1.2955,0.0,0.0,-1.3403,0.0,0.0,-1.3403,-1.3403,0.0,-1.3403,-1.3403,-1.3403,-1.3189,-1.2982,-1.3314,-1.3024,-1.2589,-1.2829,-1.268,-1.2402,-1.2262,-1.2425,0.0,-1.1643,-1.1604,0.0,-1.0668,0.0,0.0,0.0,0.0,0.0,0.0,0.0,0.0,0.0,0.0,0.0,0.0,-1.2501,0.0,0.0,0.0,0.0,0.0,-1.3112,-1.3254,-1.3315,-1.337,-1.3403,-1.3403,-1.3403,-1.3403,-1.3403,-1.3498,-1.3578,-1.372,-1.3912,-1.4068,-1.4217,-1.4272,-1.4299,-1.4299,-1.4299,-1.4299,-1.4299,-1.4299,-1.4299,-1.4299,-1.4299,-1.4299,-1.4299,-1.4299,-1.4299,-1.4299,-1.4299,-1.4333,-1.4414,0.0,0.0,0.0,0.0,-0.8978,0.0,0.0,0.0,-1.0692,0.0,-1.12,-1.1555,-1.1555,-1.2037,-1.2314,-1.2314,-1.2762,-1.3003,-1.3003,-1.2595,0.0,0.0,-1.2066,-1.191,-1.266,0.0,0.0,0.0,0.0,-1.1358,-1.1403,-1.1493,-1.1792,-1.2154,-1.2262,-1.264,-1.3214,-1.322,-1.3268,-1.3403,-1.3403,-1.3403,-1.3403,-1.3403,-1.3403,-1.3403,-1.3403,-1.3403,-1.3403,-1.3403,-1.3403,-1.3403,-1.3403,-1.3403,-1.3403,-1.3403,-1.3403,-1.337,-1.322,-1.3227,-1.3071,-1.2453,-1.2333,0.0,0.0,0.0,-1.0922,0.0,0.0,0.0,0.0,0.0,0.0,0.0,0.0,0.0,0.0,0.0,0.0,0.0,0.0,0.0,0.0,-1.299,-1.3207,-1.3214,-1.3315,-1.3403,0.0,-1.3403,-1.3403,-1.3403,-1.3403,-1.3471,-1.3585,-1.3727,-1.3919,-1.4119,-1.4224,-1.4299,-1.4299,-1.4299,-1.4299,-1.4299,-1.4299,-1.4299,-1.4299,-1.4299,-1.4299,-1.4299,-1.4299,-1.4299,-1.4299,-1.4299,-1.4387,-1.4523,-0.982,-1.0325,-1.0614,0.0,-1.0448,-1.052,0.0,0.0,0.0,0.0,-1.2316,-1.2622,-1.2622,-1.2735,-1.2802,-1.2802,-1.2922,0.0,0.0,0.0,0.0,-1.3003,-1.2762,-1.2542,-1.2422,-1.2184,0.0,-1.2204,0.0,-1.2204,-1.2562,-1.2602,-1.2662,-1.2788,-1.2889,-1.3058,-1.322,-1.3295,-1.3363,-1.3403,-1.3403,-1.3403,-1.3403,0.0,-1.3403,-1.3403,-1.3403,-1.3403,-1.3403,-1.3403,-1.3403,-1.3403,-1.3403,-1.3403,-1.3403,-1.3403,-1.3403,-1.339,-1.3356,-1.3342,-1.3253,-1.2719,-1.2546,-1.2388,0.0,0.0,0.0,0.0,0.0,0.0,0.0,0.0,0.0,0.0,0.0,0.0,0.0,0.0,0.0,-1.2501,0.0,0.0,0.0,-1.2901,-1.3098,-1.3207,-1.3315,-1.3403,-1.3403,-1.3403,-1.3403,-1.3403,-1.3403,-1.3471,-1.3585,-1.3727,-1.3919,-1.4119,-1.4224,-1.4299,-1.4299,-1.4299,-1.4299,-1.4299,-1.4299,-1.4299,-1.4299,-1.4299,-1.4299,-1.4299,-1.4299,-1.4299,-1.4299,-1.4299,-1.4326,-1.4394,-1.1282,0.0,0.0,-1.1821,0.0,0.0,-1.1271,-1.1794,0.0,-1.2308,-1.2775,0.0,-1.3091,-1.3152,-1.3152,-1.3152,-1.3152,0.0,-1.3152,0.0,0.0,-1.3152,-1.3132,-1.297,-1.2687,-1.2628,0.0,-1.2602,0.0,-1.2762,-1.3003,-1.3064,-1.3091,-1.3098,-1.3248,-1.3275,-1.3275,-1.3363,-1.3403,-1.3403,-1.3403,-1.3403,0.0,-1.3403,-1.3403,-1.3403,-1.3403,-1.3403,-1.3403,-1.3403,-1.3403,-1.3403,-1.3403,-1.3403,-1.3403,-1.3403,-1.3403,-1.3403,-1.3403,-1.3403,-1.3362,-1.3065,-1.2964,-1.2816,-1.2364,-1.2181,-1.2162,0.0,-1.2088,-1.2033,0.0,0.0,0.0,0.0,0.0,0.0,0.0,0.0,0.0,0.0,-1.2501,0.0,-1.2623,-1.2827,-1.3037,-1.3111,-1.3281,-1.3403,-1.3403,-1.3403,-1.3403,-1.3403,-1.3403,-1.3444,-1.3532,-1.3632,-1.3781,-1.3973,-1.4129,-1.4238,-1.4299,-1.4299,-1.4299,-1.4299,-1.4299,-1.4299,-1.4299,-1.4299,-1.4299,-1.4299,-1.4299,-1.4299,-1.4299,-1.4299,-1.4299,-1.4333,-1.2274,0.0,0.0,0.0,0.0,0.0,0.0,-1.2192,0.0,-1.2446,0.0,-1.3241,-1.3241,-1.3322,-1.3403,-1.3403,0.0,-1.3403,-1.3403,-1.3403,-1.3403,-1.3403,-1.3275,-1.3241,-1.3241,-1.3125,0.0,0.0,0.0,-1.3057,-1.3064,-1.3186,-1.3241,-1.3248,-1.3342,-1.3403,0.0,-1.3403,-1.3403,-1.3403,-1.3403,-1.3403,-1.3403,-1.3403,-1.3403,-1.3403,-1.3403,-1.3403,-1.3403,-1.3403,-1.3403,-1.3403,-1.3403,-1.3403,-1.3403,-1.3403,-1.3403,-1.3403,-1.3403,-1.3403,-1.3403,-1.3403,-1.3403,-1.3279,-1.2899,-1.276,-1.2669,-1.2628,-1.2518,-1.2547,-1.2949,0.0,0.0,0.0,0.0,0.0,0.0,0.0,0.0,0.0,0.0,0.0,0.0,-1.2779,-1.3003,-1.3003,-1.3234,-1.3403,0.0,0.0,-1.3403,-1.3403,-1.3403,-1.3403,-1.3403,-1.3511,-1.366,-1.3802,-1.3994,-1.415,-1.4299,-1.4299,-1.4299,-1.4299,-1.4299,-1.4299,-1.4299,-1.4299,-1.4299,-1.4299,-1.4299,-1.4299,-1.4299,-1.4299,-1.4299,-1.4319,-1.2234,0.0,0.0,0.0,0.0,-1.3057,-1.3096,-1.305,-1.3098,-1.3185,-1.3301,-1.3363,-1.3363,-1.3383,-1.3403,-1.3403,-1.3403,0.0,0.0,0.0,0.0,-1.3403,-1.3376,-1.3363,-1.3363,-1.3336,-1.3322,0.0,0.0,0.0,-1.3322,-1.3349,-1.3363,-1.3363,-1.339,-1.3403,-1.3403,-1.3403,0.0,-1.3403,-1.3403,-1.3403,-1.3403,-1.3403,-1.3403,-1.3403,-1.3403,-1.3403,-1.3403,-1.3403,-1.3403,-1.3403,-1.3403,-1.3403,-1.3403,-1.3403,-1.3403,-1.3403,-1.3403,-1.3403,-1.3403,-1.3403,-1.3403,-1.3403,-1.3314,-1.3259,-1.328,-1.3239,-1.3159,-1.3051,-1.3132,0.0,0.0,0.0,0.0,0.0,0.0,0.0,0.0,0.0,0.0,-1.2501,0.0,0.0,0.0,0.0,0.0,0.0,0.0,0.0,-1.3403,-1.3403,-1.3403,-1.3403,-1.3403,-1.3511,-1.366,-1.3802,-1.3994,-1.415,-1.4299,-1.4299,-1.4299,-1.4299,-1.4299,-1.4299,-1.4299,-1.4299,-1.4299,-1.4299,-1.4299,-1.4299,-1.4299,-1.4299,-1.4299,-1.4319,0.0,0.0,0.0,0.0,0.0,0.0,0.0,-1.3336,-1.3315,-1.339,-1.3403,-1.3403,-1.3403,-1.3403,-1.3403,-1.3403,-1.3403,-1.3403,-1.3403,-1.3403,-1.3403,-1.3403,-1.3403,0.0,-1.3403,-1.3403,-1.3403,-1.3403,0.0,0.0,-1.3403,-1.3403,-1.3403,-1.3403,-1.3403,-1.3403,0.0,-1.3403,-1.3403,-1.3403,-1.3403,-1.3403,-1.3403,-1.3403,-1.3403,-1.3403,-1.3403,-1.3403,-1.3403,-1.3403,-1.3403,-1.3403,-1.3403,-1.3403,-1.3403,-1.3403,-1.3403,-1.3403,-1.3403,-1.3403,-1.3403,-1.3403,-1.3403,-1.3403,-1.3403,-1.3403,-1.3403,-1.3403,-1.3342,-1.3268,-1.3227,-1.3159,0.0,0.0,0.0,0.0,0.0,0.0,0.0,0.0,0.0,0.0,0.0,0.0,0.0,0.0,0.0,0.0,0.0,-1.3403,-1.3403,-1.3403,-1.3403,-1.3403,-1.3403,-1.3471,-1.3578,-1.3802,-1.3919,-1.4075,-1.4299,-1.4299,-1.4299,-1.4299,-1.4299,-1.4299,-1.4299,-1.4299,-1.4299,-1.4299,-1.4299,-1.4299,-1.4299,-1.4299,-1.4299,-1.4312,0.0,-1.3403,0.0,0.0,-1.3403,-1.3403,-1.3403,-1.3403,-1.3403,-1.3403,-1.3403,-1.3403,-1.3403,-1.3403,-1.3403,-1.3403,-1.3403,-1.3403,-1.3403,-1.3403,-1.3403,-1.3403,-1.3403,-1.3403,-1.3403,-1.3403,-1.3403,0.0,0.0,0.0,-1.3403,-1.3403,-1.3403,-1.3403,-1.3403,-1.3403,-1.3403,-1.3403,-1.3403,-1.3403,-1.3403,-1.3403,-1.3403,-1.3403,-1.3403,-1.3403,-1.3403,-1.3403,-1.3403,-1.3403,-1.3403,-1.3403,-1.3403,-1.3403,-1.3403,-1.3403,-1.3403,-1.3403,-1.3403,-1.3403,-1.3403,-1.3403,-1.3403,-1.3403,-1.3403,-1.3403,-1.3403,-1.3403,-1.3403,-1.3363,-1.3241,-1.322,0.0,0.0,0.0,0.0,0.0,0.0,0.0,0.0,0.0,0.0,0.0,0.0,0.0,0.0,0.0,0.0,-1.3403,-1.3403,-1.3403,-1.3403,-1.3403,-1.3403,-1.3403,-1.3403,-1.3546,-1.3795,-1.3795,-1.4,-1.4299,-1.4299,-1.4299,-1.4299,-1.4299,-1.4299,-1.4299,-1.4299,-1.4299,-1.4299,-1.4299,-1.4299,-1.4299,-1.4299,-1.4299,-1.4299,0.0,0.0,0.0,0.0,0.0,-1.3403,-1.3403,-1.3403,-1.3403,-1.3403,-1.3403,-1.3403,-1.3403,-1.3403,-1.3403,-1.3403,-1.3403,-1.3403,-1.3403,-1.3403,-1.3403,-1.3403,-1.3403,-1.3403,-1.3403,-1.3403,-1.3403,0.0,0.0,-1.3403,-1.3403,-1.3403,-1.3403,-1.3403,-1.3403,-1.3403,-1.3403,-1.3403,-1.3403,-1.3403,-1.3403,-1.3403,-1.3403,-1.3403,-1.3403,-1.3403,-1.3403,-1.3403,-1.3403,-1.3403,-1.3403,-1.3403,-1.3403,-1.3403,-1.3403,-1.3403,-1.3403,-1.3403,-1.3403,-1.3403,-1.3403,-1.3403,-1.3403,-1.3403,-1.3403,-1.3403,-1.3403,-1.3403,-1.3403,-1.3397,-1.3383,-1.3376,-1.3329,0.0,0.0,0.0,0.0,0.0,0.0,0.0,0.0,0.0,0.0,-1.3111,0.0,0.0,-1.3308,0.0,0.0,-1.3403,-1.3403,-1.3403,-1.3403,-1.3403,-1.3403,-1.3403,-1.3546,-1.3795,-1.3795,-1.4,-1.4299,-1.4299,-1.4299,-1.4299,-1.4299,-1.4299,-1.4299,-1.4299,-1.4299,-1.4299,-1.4299,-1.4299,-1.4299,-1.4299,-1.4299,-1.4299,0.0,0.0,-1.3403,-1.3403,0.0,-1.3539,-1.3539,-1.3607,-1.3619,-1.3619,-1.3512,-1.3403,-1.3403,-1.3403,-1.3403,-1.3403,-1.3403,-1.3403,-1.3403,-1.3403,-1.3403,-1.3403,-1.3403,-1.3403,-1.3403,-1.3403,-1.3403,0.0,0.0,0.0,0.0,-1.3403,-1.3403,-1.3403,-1.3403,-1.3403,-1.3403,-1.3403,-1.3451,-1.3539,-1.3539,-1.3587,-1.3619,-1.3619,-1.3619,-1.3619,-1.3619,-1.3607,-1.3539,-1.3539,-1.3478,-1.3403,-1.3403,-1.3403,-1.3403,-1.3403,-1.3403,-1.3403,-1.3403,-1.3403,-1.3403,-1.3403,-1.3403,-1.3403,-1.3403,-1.3403,-1.3403,-1.3403,-1.3403,-1.3403,-1.3403,-1.3403,-1.3383,-1.3322,0.0,0.0,0.0,0.0,0.0,0.0,0.0,0.0,0.0,0.0,0.0,0.0,0.0,0.0,0.0,-1.3403,-1.3403,-1.3403,-1.3403,-1.3403,-1.3403,-1.3403,-1.3546,-1.3795,-1.3795,-1.4,-1.4299,-1.4299,-1.4299,-1.4299,-1.4299,-1.4299,-1.4299,-1.4299,-1.4299,-1.4299,-1.4299,-1.4299,-1.4299,-1.4299,-1.4299,-1.4299,-1.3464,-1.3498,-1.3532,-1.3532,-1.362,-1.3646,-1.3646,-1.3734,-1.3795,-1.3795,-1.3661,-1.3532,-1.3532,-1.3532,-1.3532,-1.3532,-1.3532,-1.3532,-1.3532,-1.3492,-1.3464,-1.3464,-1.3424,0.0,-1.3403,-1.3403,-1.3403,-1.3403,-1.3403,0.0,0.0,-1.3403,-1.3403,-1.3403,-1.3403,-1.3424,-1.3464,-1.3464,-1.3553,-1.3646,-1.3646,-1.3707,-1.3795,-1.3795,-1.3795,-1.3795,-1.3795,-1.3734,-1.3646,-1.3646,-1.3551,-1.3458,-1.3417,-1.3403,-1.3403,-1.3403,-1.3403,-1.3403,-1.3403,-1.3403,-1.3403,-1.3403,-1.3403,-1.3403,-1.3403,-1.3403,-1.3403,-1.3403,-1.3403,-1.3403,-1.3403,-1.3403,-1.3403,-1.3403,0.0,0.0,0.0,0.0,0.0,0.0,-1.3282,-1.3282,-1.3282,-1.3282,0.0,0.0,0.0,0.0,0.0,-1.3403,-1.3403,-1.3403,-1.3403,-1.3403,-1.3403,-1.3403,-1.3546,-1.3795,-1.3795,-1.4,-1.4299,-1.4299,-1.4299,-1.4299,-1.4299,-1.4299,-1.4299,-1.4299,-1.4299,-1.4299,-1.4299,-1.4299,-1.4299,-1.4299,-1.4299,-1.4299,-1.3585,-1.3693,-1.3795,-1.3795,-1.3795,-1.3795,-1.3795,-1.3795,-1.3795,-1.3795,-1.3795,-1.3795,-1.3795,-1.3795,-1.3795,-1.3795,-1.3795,-1.3795,-1.3795,-1.366,-1.3585,0.0,0.0,-1.3403,-1.3403,-1.3403,-1.3403,-1.3403,0.0,0.0,-1.3403,-1.3403,-1.3403,-1.3403,-1.3403,-1.3485,-1.3585,-1.3585,-1.3666,-1.3795,-1.3795,-1.3795,-1.3795,-1.3795,-1.3795,-1.3795,-1.3795,-1.3795,-1.3795,-1.3795,-1.37,-1.3558,-1.3451,-1.3403,-1.3403,-1.3403,-1.3403,-1.3403,-1.3403,-1.3403,-1.3403,-1.3403,-1.3403,-1.3403,-1.3403,-1.3403,-1.3403,-1.3403,-1.3403,-1.3403,-1.3403,-1.3403,-1.3403,-1.3403,0.0,0.0,0.0,0.0,0.0,0.0,-1.3397,-1.3397,-1.3397,-1.3397,0.0,0.0,0.0,0.0,0.0,-1.3403,-1.3403,-1.3403,-1.3403,-1.3403,-1.3403,-1.3403,-1.3546,-1.3795,-1.3795,-1.4,-1.4299,-1.4299,-1.4299,-1.4299,-1.4299,-1.4299,-1.4299,-1.4299,-1.4299,-1.4299,-1.4299,-1.4299,-1.4299,-1.4299,-1.4299,-1.4299,-1.3734,-1.3768,-1.3795,-1.3795,-1.3926,-1.4,-1.4,-1.4089,-1.4156,-1.4156,-1.4156,-1.4156,-1.4156,-1.3923,-1.3795,0.0,-1.3795,-1.3795,0.0,-1.3754,-1.3734,-1.3734,-1.3687,-1.366,-1.366,-1.366,-1.366,-1.366,0.0,-1.366,-1.366,-1.366,-1.366,-1.366,-1.366,-1.3687,-1.3734,-1.3734,-1.3858,-1.4,-1.4,-1.4061,-1.4156,-1.4156,-1.4156,-1.4156,-1.4156,-1.4089,-1.4,-1.4,-1.3899,-1.3707,-1.3558,-1.3485,-1.3403,-1.3403,-1.3403,-1.3403,-1.3403,-1.3403,-1.3403,-1.3403,-1.3403,-1.3403,-1.3403,-1.3403,-1.3403,-1.3403,-1.3403,-1.3403,-1.3403,-1.3403,-1.3403,-1.3403,-1.3403,0.0,-1.3403,0.0,0.0,0.0,-1.3403,-1.3403,-1.3403,-1.3403,0.0,0.0,0.0,0.0,0.0,-1.3403,-1.3403,-1.3403,-1.3403,0.0,-1.3403,-1.3403,-1.3546,-1.3795,-1.3795,-1.4,-1.4299,-1.4299,-1.4299,-1.4299,-1.4299,-1.4299,-1.4299,-1.4299,-1.4299,-1.4299,-1.4299,-1.4299,-1.4299,-1.4299,-1.4299,-1.4299,-1.3926,-1.393,-1.3971,-1.3971,-1.4095,-1.42,-1.42,-1.4238,-1.4299,-1.4299,-1.4299,-1.4299,-1.4299,-1.4129,-1.3971,-1.3971,-1.3971,-1.3971,-1.3971,-1.396,-1.3926,-1.3926,-1.3829,-1.3795,-1.3795,-1.3795,-1.3795,-1.3795,-1.3795,-1.3795,-1.3795,-1.3795,-1.3795,-1.3795,-1.3795,-1.3829,-1.3926,-1.3926,-1.4014,-1.42,-1.42,-1.4217,-1.4299,-1.4299,-1.4299,-1.4299,-1.4299,-1.4238,-1.42,-1.42,-1.4055,-1.3912,-1.3824,-1.3654,-1.3478,-1.3417,-1.3403,-1.3403,-1.3403,-1.3403,-1.3403,-1.3403,-1.3403,-1.3403,-1.3403,-1.3403,-1.3403,-1.3403,-1.3403,-1.3403,-1.3403,-1.3403,-1.3403,-1.3403,-1.3403,-1.3403,-1.3403,0.0,0.0,0.0,0.0,0.0,0.0,-1.3403,-1.3403,0.0,0.0,0.0,0.0,-1.3403,-1.3403,-1.3403,-1.3403,-1.3403,-1.3403,-1.3403,-1.3546,-1.3802,-1.3916,-1.4116,-1.4299,-1.4299,-1.4299,-1.4299,-1.4299,-1.4299,-1.4299,-1.4299,-1.4299,-1.4299,-1.4299,-1.4299,-1.4299,-1.4299,-1.4299,-1.4299,-1.4132,-1.4204,-1.4299,-1.4299,-1.4299,-1.4299,-1.4299,-1.4299,-1.4299,-1.4299,-1.4299,-1.4299,-1.4299,-1.4299,-1.4299,-1.4299,-1.4299,-1.4299,-1.4299,-1.4163,-1.4132,-1.4132,-1.3946,-1.3829,-1.3829,-1.3957,-1.4043,-1.4043,-1.3914,-1.3829,-1.3829,-1.3829,-1.3829,-1.3829,-1.3829,-1.3953,-1.4132,-1.4132,-1.417,-1.4299,-1.4299,-1.4299,-1.4299,-1.4299,-1.4299,-1.4299,-1.4299,-1.4299,-1.4299,-1.4299,-1.4204,-1.4132,-1.4119,-1.3885,-1.3627,-1.3464,-1.341,-1.3403,-1.3403,-1.3403,-1.3403,-1.3403,-1.3403,-1.3403,-1.3403,-1.3403,-1.3403,-1.3403,-1.3403,-1.3403,-1.3403,-1.3403,-1.3403,-1.3403,-1.3403,-1.3403,-1.3403,-1.3403,0.0,0.0,0.0,-1.3403,-1.3403,-1.3403,-1.3403,0.0,0.0,0.0,-1.3403,-1.3403,-1.3403,-1.3403,-1.3403,-1.3403,-1.3403,-1.3403,-1.3546,-1.3802,-1.4156,-1.4299,-1.4299,-1.4299,-1.4299,-1.4299,-1.4299,-1.4299,-1.4299,-1.4299,-1.4299,-1.4299,-1.4299,-1.4299,-1.4299,-1.4299,-1.4299,-1.4299,-1.4245,-1.4278,-1.4299,-1.4299,-1.4299,-1.4299,-1.4299,-1.4299,-1.4299,-1.4299,-1.4299,-1.4299,-1.4299,-1.4299,-1.4299,-1.4299,-1.4299,-1.4299,-1.4299,-1.4265,-1.4245,-1.4245,-1.4211,-1.419,-1.419,-1.5578,-1.6312,-1.6312,-1.4885,-1.419,-1.419,-1.419,-1.419,-1.419,-1.419,-1.4211,-1.4245,-1.4245,-1.4265,-1.4299,-1.4299,-1.4299,-1.4299,-1.4299,-1.4299,-1.4299,-1.4299,-1.4299,-1.4299,-1.4299,-1.4278,-1.4224,-1.4109,-1.4064,-1.3919,-1.3654,-1.3492,-1.3403,-1.3403,-1.3403,-1.3403,-1.3403,-1.3403,-1.3403,-1.3403,-1.3403,-1.3403,-1.3403,-1.3403,-1.3403,-1.3403,-1.3403,-1.3403,-1.3403,-1.3403,-1.3403,-1.3403,-1.3403,-1.3403,0.0,-1.3403,-1.3403,-1.3403,-1.3403,-1.3403,0.0,0.0,-1.3403,-1.3403,-1.3403,-1.3403,-1.3403,-1.3403,-1.3403,-1.3403,-1.3403,-1.3546,-1.3802,-1.4156,-1.4299,-1.4299,-1.4299,-1.4299,-1.4299,-1.4299,-1.4299,-1.4299,-1.4299,-1.4299,-1.4299,-1.4299,-1.4299,-1.4299,-1.4299,-1.4299,-1.4299,-1.4299,-1.4299,-1.4299,-1.4299,-1.4299,-1.4299,-1.4299,-1.4299,-1.4299,-1.4299,-1.4299,-1.4299,-1.4299,-1.4299,-1.4299,-1.4299,-1.4299,-1.4299,-1.4299,-1.4299,-1.4299,-1.4299,-1.4299,-1.469,-1.5565,-1.5741,-1.6217,-1.7088,-1.6956,-1.6876,-1.6876,-1.6876,-1.6876,-1.6876,-1.6876,-1.6876,-1.6876,-1.6876,-1.6876,-1.6789,-1.5917,-1.6086,-1.6657,-1.4955,-1.4822,-1.5477,-1.4608,-1.4299,-1.4299,-1.4299,-1.4299,-1.4285,-1.4204,-1.4173,-1.4041,-1.3878,-1.3675,-1.3492,-1.3417,-1.3403,-1.3403,-1.3403,-1.3403,-1.3403,-1.3403,-1.3403,-1.3403,-1.3403,-1.3403,-1.3403,-1.3403,-1.3403,-1.3403,-1.3403,-1.3403,-1.3403,-1.3403,-1.3403,-1.3403,-1.3403,-1.3403,-1.3403,-1.3403,-1.3403,-1.3403,-1.3403,-1.3403,0.0,-1.3403,-1.3403,-1.3403,-1.3403,-1.3403,-1.3403,-1.3403,-1.3532,-1.3639,-1.3802,-1.4156,-1.4299,-1.4299,-1.4299,-1.4299,-1.4299,-1.4299,-1.4299,-1.4299,-1.4299,-1.4299,-1.4299,-1.4299,-1.4299,-1.4299,-1.4299,-1.4299,-1.4299,-1.4299,-1.4299,-1.4299,-1.4299,-1.4299,-1.4299,-1.4299,-1.4299,-1.4299,-1.4299,-1.4299,-1.4299,-1.4299,-1.4299,-1.4299,-1.4299,-1.4299,-1.4299,-1.4299,-1.4299,-1.4299,-1.4299,-1.4299,-1.5043,-1.6657,-1.5131,-1.5352,-1.7526,-1.8828,-1.9613,-1.9917,-1.9917,-1.9917,-1.9917,-1.9917,-1.9917,-1.9917,-1.9917,-1.9917,-1.9743,-1.8174,-1.8479,-1.9569,-1.6349,-1.613,-1.7307,-1.5741,-1.4955,-1.4734,-1.4734,-1.452,-1.4299,-1.4299,-1.4211,-1.4146,-1.4125,-1.3878,-1.3585,-1.3478,-1.3417,-1.3403,-1.3403,-1.3403,-1.3403,-1.3403,-1.3403,-1.3403,-1.3403,-1.3403,-1.3403,-1.3403,-1.3403,-1.3403,-1.3403,-1.3403,-1.3403,-1.3403,0.0,-1.3403,-1.3403,-1.3403,-1.3403,-1.3403,-1.3403,-1.3403,-1.3403,-1.3403,-1.3403,-1.3403,-1.3403,-1.3403,-1.3403,-1.3403,-1.3403,-1.3403,-1.3942,-1.4094,-1.3802,-1.4711,-1.4999,-1.4734,-1.4734,-1.4734,-1.4697,-1.4431,-1.4299,-1.4299,-1.4299,-1.4299,-1.4299,-1.4299,-1.4299,-1.4299,-1.4299,-1.4299,-1.4299,-1.4299,-1.4299,-1.4299,-1.4299,-1.4299,-1.4299,-1.4299,-1.4299,-1.4299,-1.4299,-1.4299,-1.4299,-1.4299,-1.4299,-1.4299,-1.4299,-1.4299,-1.4299,-1.4299,-1.4299,-1.4299,-1.4299,-1.4299,-1.4431,-1.4734,-1.4431,-1.6005,-1.9482,-1.8174,-1.8348,-1.9917,-1.9917,-1.9917,-1.9917,-1.9917,-1.9917,-1.9917,-1.9917,-1.9917,-1.9873,-1.9569,-1.9656,-1.983,-1.9264,-1.9221,-1.9438,-1.9134,-1.8007,-1.6657,-1.6657,-1.5609,-1.4299,-1.4299,-1.4285,-1.4238,-1.4109,-1.3946,-1.3734,-1.3592,-1.3498,-1.3403,-1.3403,-1.3403,-1.3403,-1.3403,-1.3403,-1.3403,-1.3403,-1.3403,-1.3403,-1.3403,-1.3403,-1.3403,-1.3403,-1.3403,-1.3403,-1.3403,-1.3403,-1.3403,-1.3403,-1.3403,-1.3403,-1.3403,-1.3403,-1.3403,-1.3403,-1.3403,-1.3403,-1.3403,-1.3403,-1.3403,-1.3403,-1.3403,-1.3403,-1.3403,-1.5237,-1.5361,-1.3844,-1.7343,-1.8217,-1.6657,-1.6657,-1.6657,-1.6569,-1.4999,-1.4299,-1.4299,-1.4299,-1.4299,-1.4299,-1.4299,-1.4299,-1.4299,-1.4299,-1.4299,-1.4299,-1.4299,-1.4299,-1.4299,-1.4299,-1.4299,-1.4299,-1.4299,-1.4299,-1.4299,-1.4299,-1.4299,-1.4299,-1.4299,-1.4299,-1.4299,-1.4299,-1.4299,-1.4299,-1.4299,-1.4299,-1.4299,-1.4299,-1.5264,-1.5829,-1.5829,-1.7789,-1.9177,-1.9917,-2.1002,-2.1996,-2.2869,-2.2869,-2.2869,-2.2869,-2.2869,-2.2869,-2.2869,-2.2869,-2.2869,-2.2783,-2.178,-2.1996,-2.2654,-2.0655,-2.0525,-2.1218,-2.0264,-1.9351,-1.861,-1.861,-1.8051,-1.7132,-1.613,-1.5829,-1.5594,-1.4518,-1.3973,-1.3653,-1.3546,-1.3458,-1.3403,-1.3403,-1.3403,-1.3403,-1.3403,-1.3403,-1.3403,-1.3403,-1.3403,-1.3403,-1.3403,-1.3403,-1.3403,-1.3403,-1.3403,-1.3403,-1.3403,-1.3403,-1.3403,-1.3403,-1.3403,-1.3769,-1.4706,-1.4788,-1.4788,-1.4788,-1.4788,-1.4375,-1.3445,-1.3403,-1.3403,-1.3403,-1.3403,-1.3929,-1.5006,-1.6077,-1.672,-1.6947,-1.8945,-1.9438,-1.8567,-1.757,-1.7088,-1.7,-1.5131,-1.4866,-1.5829,-1.5829,-1.5829,-1.5917,-1.6912,-1.6086,-1.4564,-1.6569,-1.6701,-1.5961,-1.4299,-1.4299,-1.4299,-1.4299,-1.4299,-1.4299,-1.4299,-1.4299,-1.4299,-1.4299,-1.4299,-1.4299,-1.4299,-1.4299,-1.4299,-1.4299,-1.4299,-1.4299,-1.4299,-1.4697,-1.4778,-1.4299,-1.6086,-1.7307,-1.7745,-2.0568,-2.1564,-2.0525,-2.3397,-2.5006,-2.5391,-2.5391,-2.5391,-2.5391,-2.5391,-2.5391,-2.5391,-2.5391,-2.5391,-2.5263,-2.3869,-2.4181,-2.5092,-2.2266,-2.204,-2.3084,-2.1694,-2.0915,-2.0525,-2.0525,-2.0264,-1.9656,-1.8217,-1.7438,-1.6833,-1.5389,-1.4347,-1.3599,-1.3451,-1.3403,-1.3403,-1.3403,-1.3403,-1.3403,-1.3403,-1.3403,-1.3403,-1.3403,-1.3403,-1.3403,-1.3403,-1.3403,-1.3521,-1.3935,-1.4011,-1.4135,-1.4548,-1.4631,-1.4631,-1.4631,-1.4631,-1.4994,-1.5925,-1.6008,-1.5843,-1.5432,-1.5399,-1.4829,-1.348,-1.3769,-1.4176,-1.4589,-1.4217,-1.4788,-1.6367,-1.7382,-1.8454,-1.9595,-2.0676,-2.0958,-2.0482,-1.9046,-1.8392,-1.8261,-1.6393,-1.6437,-1.7745,-1.7745,-1.7745,-1.7876,-1.9351,-1.813,-1.5961,-1.8828,-1.9003,-1.7964,-1.4299,-1.4299,-1.4299,-1.4299,-1.4299,-1.4299,-1.4299,-1.4299,-1.4299,-1.4299,-1.4299,-1.4299,-1.4299,-1.4299,-1.4299,-1.4299,-1.4299,-1.4299,-1.4299,-1.5917,-1.613,-1.4387,-1.6086,-1.792,-1.9656,-1.996,-2.0872,-2.2385,-2.274,-2.374,-2.5391,-2.5391,-2.5391,-2.5391,-2.5391,-2.5391,-2.5391,-2.5391,-2.5391,-2.5391,-2.5263,-2.5263,-2.5348,-2.5092,-2.5092,-2.5177,-2.5049,-2.3869,-2.2385,-2.2385,-2.1305,-1.9873,-1.9743,-1.8479,-1.7088,-1.6912,-1.5408,-1.372,-1.3478,-1.3403,-1.3403,-1.3403,-1.3403,-1.3403,-1.3403,-1.3403,-1.3403,-1.3403,-1.3403,-1.3403,-1.3403,-1.3403,-1.3928,-1.5555,-1.5802,-1.6377,-1.7973,-1.8218,-1.8218,-1.8218,-1.8218,-1.7647,-1.6131,-1.6008,-1.5316,-1.3728,-1.3604,-1.3521,-1.3403,-1.4946,-1.6541,-1.8178,-1.6664,-1.6014,-1.6409,-1.9857,-2.0916,-1.9638,-2.3274,-2.4084,-2.2385,-2.2255,-2.2169,-2.2083,-2.0264,-1.9569,-1.97,-1.97,-1.97,-1.97,-1.983,-1.9743,-1.9525,-1.9786,-1.983,-1.97,-1.452,-1.4299,-1.4299,-1.4299,-1.4299,-1.4299,-1.4299,-1.4299,-1.4299,-1.4299,-1.4299,-1.4299,-1.4299,-1.4299,-1.4299,-1.4299,-1.5344,-1.6049,-1.6049,-1.7789,-1.9046,-1.9482,-1.909,-1.97,-2.1521,-2.1564,-2.191,-2.2611,-2.3783,-2.4738,-2.5391,-2.5391,-2.5391,-2.5391,-2.5391,-2.5391,-2.5391,-2.5391,-2.5391,-2.5391,-2.5391,-2.5391,-2.5391,-2.5391,-2.5391,-2.5391,-2.5391,-2.4952,-2.4352,-2.4352,-2.3869,-2.3127,-2.1953,-2.1088,-2.025,-1.8833,-1.7801,-1.6842,-1.541,-1.4217,-1.3403,-1.3403,-1.3403,-1.3403,-1.3403,-1.3403,-1.3403,-1.3403,-1.3403,-1.3403,-1.3403,-1.43,-1.5234,-1.5884,-1.6008,-1.6623,-1.8341,-1.6746,-1.5769,-1.6869,-1.6016,-1.5522,-1.5966,-1.6008,-1.6172,-1.6582,-1.6623,-1.6623,-1.6623,-1.7238,-1.7933,-1.8585,-1.9159,-1.9622,-1.9879,-2.1453,-2.2573,-2.3209,-2.4691,-2.5049,-2.4309,-2.317,-2.2654,-2.2525,-2.0698,-2.0525,-2.1564,-2.1564,-2.1564,-2.1694,-2.2869,-2.191,-2.0178,-2.2481,-2.2611,-2.178,-1.5565,-1.5175,-1.5175,-1.5175,-1.469,-1.4299,-1.4299,-1.4778,-1.4955,-1.4387,-1.5344,-1.5829,-1.5256,-1.5697,-1.6042,-1.6042,-1.7219,-1.7964,-1.7964,-1.9743,-2.1348,-2.2611,-2.1435,-2.1608,-2.3428,-2.3471,-2.3471,-2.3471,-2.478,-2.5391,-2.5391,-2.5391,-2.5391,-2.5391,-2.5391,-2.5391,-2.5391,-2.5391,-2.5391,-2.5391,-2.5391,-2.5391,-2.5391,-2.5391,-2.5391,-2.5391,-2.5391,-2.5391,-2.5391,-2.5391,-2.5391,-2.5177,-2.3869,-2.303,-2.2075,-1.9861,-1.916,-1.8736,-1.7234,-1.5933,-1.4747,-1.3687,-1.3403,-1.3403,-1.3403,-1.3403,-1.3403,-1.3403,-1.3403,-1.3403,-1.3403,-1.4829,-1.6008,-1.6008,-1.6451,-1.7238,-1.8422,-1.6541,-1.5687,-1.7433,-1.6582,-1.6336,-1.7515,-1.7638,-1.7883,-1.8545,-1.8585,-1.883,-1.9389,-1.943,-1.9713,-2.0354,-2.1782,-2.2654,-2.2941,-2.3109,-2.3959,-2.5391,-2.5391,-2.5391,-2.5348,-2.4126,-2.3525,-2.3385,-2.2169,-2.2352,-2.3471,-2.3471,-2.3471,-2.3611,-2.4921,-2.3869,-2.191,-2.4481,-2.4609,-2.374,-1.7482,-1.7088,-1.7088,-1.7132,-1.5565,-1.4343,-1.4343,-1.5917,-1.6437,-1.4608,-1.757,-1.9177,-1.7351,-1.8785,-1.9917,-1.9917,-1.9917,-1.9917,-1.996,-2.1694,-2.2697,-2.26,-2.26,-2.3483,-2.5348,-2.5391,-2.5391,-2.5391,-2.5391,-2.5391,-2.5391,-2.5391,-2.5391,-2.5391,-2.5391,-2.5391,-2.5391,-2.5391,-2.5391,-2.5391,-2.5391,-2.5391,-2.5391,-2.5391,-2.5391,-2.5391,-2.5391,-2.5391,-2.5391,-2.5391,-2.5391,-2.5391,-2.5391,-2.3966,-2.1917,-1.9855,-1.9057,-1.8808,-1.8642,-1.8626,-1.781,-1.43,-1.3445,-1.3445,-1.3445,-1.3445,-1.3445,-1.3445,-1.3445,-1.3445,-1.3445,-1.4871,-1.6049,-1.6049,-1.7474,-1.8626,-1.8626,-1.8626,-1.9237,-2.098,-2.1182,-2.1182,-2.1182,-2.1182,-2.0484,-1.8748,-1.8626,-1.9399,-2.1141,-2.1222,-2.2151,-2.4145,-2.4451,-2.4716,-2.5005,-2.5005,-2.5138,-2.5391,-2.5391,-2.5391,-2.5391,-2.5391,-2.5391,-2.5391,-2.5391,-2.5391,-2.5391,-2.5391,-2.5391,-2.5391,-2.5391,-2.5391,-2.5391,-2.5391,-2.5391,-2.5391,-1.9438,-1.7999,-1.7526,-1.8828,-1.7526,-1.6701,-1.8051,-1.8698,-1.8872,-1.8305,-1.9221,-1.97,-1.9134,-1.9569,-1.9917,-1.9917,-2.1088,-2.2395,-2.3697,-2.4267,-2.4609,-2.4566,-2.4566,-2.4823,-2.5391,-2.5391,-2.5391,-2.5391,-2.5391,-2.5391,-2.5391,-2.5391,-2.5391,-2.5391,-2.5391,-2.5391,-2.5391,-2.5391,-2.5391,-2.5391,-2.5391,-2.5391,-2.5391,-2.5391,-2.5391,-2.5391,-2.5391,-2.5391,-2.5391,-2.5391,-2.5391,-2.5391,-2.5391,-2.4871,-2.4051,-2.323,-2.2815,-2.227,-2.0841,-2.0403,-1.9876,-1.7606,-1.7033,-1.7033,-1.7033,-1.7033,-1.7033,-1.7033,-1.7033,-1.7033,-1.7033,-1.8454,-1.9633,-1.9633,-2.0079,-2.0858,-2.2091,-2.013,-1.9237,-2.098,-2.012,-1.9389,-1.9389,-1.9389,-1.9674,-2.0362,-2.1556,-2.2493,-2.2987,-2.3027,-2.3385,-2.4186,-2.4451,-2.4716,-2.5005,-2.5186,-2.5318,-2.5391,-2.5391,-2.5391,-2.5391,-2.5391,-2.5391,-2.5391,-2.5391,-2.5391,-2.5391,-2.5391,-2.5391,-2.5391,-2.5391,-2.5391,-2.5391,-2.5391,-2.5391,-2.5391,-2.1348,-2.0091,-1.9656,-2.0785,-1.9438,-1.8567,-1.9743,-2.0525,-2.0698,-2.0004,-2.1175,-2.178,-2.1045,-2.1608,-2.2093,-2.2093,-2.3084,-2.4224,-2.5348,-2.5391,-2.5391,-2.5391,-2.5391,-2.5391,-2.5391,-2.5391,-2.5391,-2.5391,-2.5391,-2.5391,-2.5391,-2.5391,-2.5391,-2.5391,-2.5391,-2.5391,-2.5391,-2.5391,-2.5391,-2.5391,-2.5391,-2.5391,-2.5391,-2.5391,-2.5391,-2.5391,-2.5391,-2.5391,-2.5391,-2.5391,-2.5391,-2.5379,-2.527,-2.5053,-2.4788,-2.4511,-2.4246,-2.3803,-2.2567,-2.224,-2.1999,-2.0899,-1.9602,-1.8585,-1.8585,-1.8585,-1.8585,-1.8585,-1.8585,-1.8585,-1.8585,-1.9998,-2.0969,-2.0282,-2.0727,-2.1343,-2.1677,-1.9927,-1.9237,-2.098,-2.0282,-1.9886,-2.0575,-2.0667,-2.1111,-2.216,-2.3187,-2.38,-2.38,-2.3897,-2.4077,-2.4342,-2.4607,-2.4885,-2.5162,-2.5318,-2.5391,-2.5391,-2.5391,-2.5391,-2.5391,-2.5391,-2.5391,-2.5391,-2.5391,-2.5391,-2.5391,-2.5391,-2.5391,-2.5391,-2.5391,-2.5391,-2.5391,-2.5391,-2.5391,-2.5391,-2.3268,-2.2826,-2.274,-2.2826,-2.1348,-2.0221,-2.0351,-2.178,-2.2255,-2.0612,-2.3299,-2.4738,-2.3041,-2.4395,-2.5391,-2.5391,-2.5391,-2.5391,-2.5391,-2.5391,-2.5391,-2.5391,-2.5391,-2.5391,-2.5391,-2.5391,-2.5391,-2.5391,-2.5391,-2.5391,-2.5391,-2.5391,-2.5391,-2.5391,-2.5391,-2.5391,-2.5391,-2.5391,-2.5391,-2.5391,-2.5391,-2.5391,-2.5391,-2.5391,-2.5391,-2.5391,-2.5391,-2.5391,-2.5391,-2.5391,-2.5391,-2.5355,-2.509,-2.4812,-2.4535,-2.427,-2.4005,-2.38,-2.38,-2.38,-2.38,-2.38,-2.1394,-1.9074,-1.9074,-1.9074,-1.9074,-1.9074,-1.9074,-1.9074,-1.9074,-2.0362,-2.0899,-1.9318,-2.0413,-2.0899,-1.9277,-1.9074,-1.9643,-2.1222,-2.1424,-2.2079,-2.364,-2.38,-2.38,-2.38,-2.38,-2.3812,-2.3836,-2.4065,-2.4318,-2.462,-2.4873,-2.5126,-2.5391,-2.5391,-2.5391,-2.5391,-2.5391,-2.5391,-2.5391,-2.5391,-2.5391,-2.5391,-2.5391,-2.5391,-2.5391,-2.5391,-2.5391,-2.5391,-2.5391,-2.5391,-2.5391,-2.5391,-2.5391,-2.5391,-2.4866,-2.3654,-2.3127,-2.4566,-2.3256,-2.2525,-2.3998,-2.4524,-2.4652,-2.4267,-2.4921,-2.5263,-2.4823,-2.5177,-2.5391,-2.5391,-2.5391,-2.5391,-2.5391,-2.5391,-2.5391,-2.5391,-2.5391,-2.5391,-2.5391,-2.5391,-2.5391,-2.5391,-2.5391,-2.5391,-2.5391,-2.5391,-2.5391,-2.5391,-2.5391,-2.5391,-2.5391,-2.5391,-2.5391,-2.5391,-2.5391,-2.5391,-2.5391,-2.5391,-2.5391,-2.5391,-2.5391,-2.5391,-2.5391,-2.5391,-2.5391,-2.5355,-2.509,-2.4812,-2.4535,-2.427,-2.4005,-2.38,-2.38,-2.38,-2.38,-2.38,-2.3227,-2.2654,-2.2654,-2.2654,-2.2654,-2.2654,-2.2654,-2.2654,-2.2654,-2.2987,-2.3107,-2.2746,-2.2987,-2.3107,-2.2746,-2.2654,-2.2826,-2.3187,-2.3227,-2.3399,-2.376,-2.38,-2.38,-2.38,-2.38,-2.3897,-2.4101,-2.4162,-2.4415,-2.4897,-2.4969,-2.5126,-2.5391,-2.5391,-2.5391,-2.5391,-2.5391,-2.5391,-2.5391,-2.5391,-2.5391,-2.5391,-2.5391,-2.5391,-2.5391,-2.5391,-2.5391,-2.5391,-2.5391,-2.5391,-2.5391,-2.5391,-2.5391,-2.5391,-2.5391,-2.4652,-2.4309,-2.522,-2.4609,-2.4255,-2.5263,-2.5391,-2.5391,-2.5391,-2.5391,-2.5391,-2.5391,-2.5391,-2.5391,-2.5391,-2.5391,-2.5391,-2.5391,-2.5391,-2.5391,-2.5391,-2.5391,-2.5391,-2.5391,-2.5391,-2.5391,-2.5391,-2.5391,-2.5391,-2.5391,-2.5391,-2.5391,-2.5391,-2.5391,-2.5391,-2.5391,-2.5391,-2.5391,-2.5391,-2.5391,-2.5391,-2.5391,-2.5391,-2.5391,-2.5391,-2.5391,-2.5391,-2.5391,-2.5391,-2.5306,-2.5162,-2.4885,-2.462,-2.4342,-2.4089,-2.3909,-2.38,-2.38,-2.38,-2.38,-2.38,-2.38,-2.38,-2.38,-2.38,-2.38,-2.38,-2.38,-2.38,-2.38,-2.38,-2.38,-2.38,-2.38,-2.38,-2.38,-2.38,-2.38,-2.38,-2.38,-2.38,-2.38,-2.38,-2.38,-2.38,-2.3921,-2.4053,-2.4186,-2.4439,-2.4787,-2.5317,-2.5451,-2.5713,-2.6073,-2.6073,-2.6073,-2.6073,-2.5604,-2.5391,-2.5391,-2.5391,-2.5391,-2.5391,-2.5391,-2.5391,-2.5391,-2.5391,-2.5391,-2.5391,-2.5391,-2.5391,-2.5391,-2.5391,-2.5391,-2.5391,-2.5391,-2.5391,-2.5391,-2.5391,-2.5391,-2.5391,-2.5391,-2.5391,-2.5391,-2.5391,-2.5391,-2.5391,-2.5391,-2.5391,-2.5391,-2.5391,-2.5391,-2.5391,-2.5391,-2.5391,-2.5391,-2.5391,-2.5391,-2.5391,-2.5391,-2.5391,-2.5391,-2.5391,-2.5391,-2.5391,-2.5391,-2.5391,-2.5391,-2.5391,-2.5391,-2.5391,-2.5391,-2.5391,-2.5391,-2.5391,-2.5391,-2.5391,-2.5391,-2.5391,-2.5391,-2.5391,-2.5391,-2.5391,-2.5391,-2.5343,-2.5186,-2.4945,-2.462,-2.4366,-2.4138,-2.3884,-2.38,-2.38,-2.38,-2.38,-2.38,-2.38,-2.38,-2.38,-2.38,-2.38,-2.38,-2.38,-2.38,-2.38,-2.38,-2.38,-2.38,-2.38,-2.38,-2.38,-2.38,-2.38,-2.38,-2.38,-2.38,-2.38,-2.38,-2.38,-2.3824,-2.386,-2.4065,-2.4275,-2.4441,-2.4877,-2.5354,-2.5853,-2.6106,-2.6401,-2.6796,-2.6796,-2.6796,-2.6783,-2.603,-2.5647,-2.5647,-2.5562,-2.5519,-2.5519,-2.5519,-2.5476,-2.5391,-2.5391,-2.5391,-2.5391,-2.5391,-2.5391,-2.5391,-2.5391,-2.5391,-2.5391,-2.5391,-2.5391,-2.5391,-2.5391,-2.5391,-2.5391,-2.5391,-2.5391,-2.5391,-2.5391,-2.5391,-2.5391,-2.5391,-2.5391,-2.5391,-2.5391,-2.5391,-2.5391,-2.5391,-2.5391,-2.5391,-2.5391,-2.5391,-2.5391,-2.5391,-2.5391,-2.5391,-2.5391,-2.5391,-2.5391,-2.5391,-2.5391,-2.5391,-2.5391,-2.5391,-2.5391,-2.5391,-2.5391,-2.5391,-2.5391,-2.5391,-2.5391,-2.5391,-2.5391,-2.5391,-2.5391,-2.5391,-2.5391,-2.5355,-2.5138,-2.5029,-2.4921,-2.4403,-2.4222,-2.4138,-2.3884,-2.38,-2.38,-2.38,-2.38,-2.38,-2.38,-2.38,-2.38,-2.38,-2.38,-2.38,-2.38,-2.38,-2.38,-2.38,-2.38,-2.38,-2.38,-2.38,-2.38,-2.38,-2.38,-2.38,-2.38,-2.38,-2.38,-2.38,-2.38,-2.3897,-2.4125,-2.4174,-2.4596,-2.5433,-2.5573,-2.5932,-2.6635,-2.6685,-2.6753,-2.6796,-2.6796,-2.6796,-2.6796,-2.6668,-2.6626,-2.6626,-2.6188,-2.6018,-2.6018,-2.6018,-2.5763,-2.5391,-2.5391,-2.5391,-2.5391,-2.5391,-2.5391,-2.5391,-2.5391,-2.5391,-2.5391,-2.5391,-2.5391,-2.5391,-2.5391,-2.5391,-2.5391,-2.5391,-2.5391,-2.5391,-2.5391,-2.5391,-2.5391,-2.5391,-2.5391,-2.5391,-2.5391,-2.5391,-2.5391,-2.5391,-2.5391,-2.5391,-2.5391,-2.5391,-2.5391,-2.5391,-2.5391,-2.5391,-2.5391,-2.5391,-2.5391,-2.5391,-2.5391,-2.5391,-2.5391,-2.5391,-2.5391,-2.5391,-2.5391,-2.5391,-2.5391,-2.5391,-2.5391,-2.5391,-2.5391,-2.5391,-2.5391,-2.5391,-2.5391,-2.5379,-2.5258,-2.5017,-2.4728,-2.4487,-2.421,-2.3957,-2.3836,-2.38,-2.38,-2.38,-2.38,-2.38,-2.38,-2.38,-2.38,-2.38,-2.38,-2.38,-2.38,-2.38,-2.38,-2.38,-2.38,-2.38,-2.38,-2.38,-2.38,-2.38,-2.38,-2.38,-2.38,-2.38,-2.38,-2.38,-2.3933,-2.4065,-2.4186,-2.471,-2.5239,-2.5682,-2.6096,-2.6571,-2.7177,-2.7177,-2.7304,-2.7588,-2.7588,-2.7588,-2.7588,-2.7304,-2.705,-2.6783,-2.6571,-2.6486,-2.6486,-2.6486,-2.6358,-2.6201,-2.6201,-2.603,-2.5805,-2.5805,-2.5647,-2.5391,-2.5391,-2.5391,-2.5391]},{"header":{"parameterUnit":"m.s-1","parameterCategory":1,"la1":30.6,"la2":28.766,"lo1":-90.7593,"lo2":-88.6598,"dy":0.0162,"dx":0.0183,"nx":116,"ny":114,"refTime":"2023-04-21T12:00:00:Z","depth":0,"parameterNumber":3,"parameterNumberName":"V-component_of_WINDS"},"data":[0.0,0.0,0.0,0.0,0.0,0.0,0.0,0.0,0.0,0.0,0.0,0.0,0.0,0.0,0.0,0.0,0.0,0.0,0.0,0.0,0.0,0.0,0.0,0.0,0.0,0.0,0.0,0.0,0.0,0.0,0.0,0.0,0.0,0.0,0.0,0.0,0.0,0.0,0.0,0.0,0.0,0.0,0.0,0.0,0.0,0.0,0.0,0.0,0.0,0.0,0.0,0.0,0.0,0.0,0.0,0.0,0.0,0.0,0.0,0.0,0.0,0.0,0.0,0.0,0.0,0.0,0.0,0.0,0.0,0.0,0.0,0.0,0.0,0.0,0.0,0.0,0.0,0.0,0.0,0.0,0.0,0.0,0.0,0.0,0.0,0.0,0.0,0.0,0.0,0.0,0.0,0.0,0.0,0.0,0.0,0.0,0.0,0.0,0.0,0.0,0.0,0.0,0.0,0.0,0.0,0.0,0.0,0.0,0.0,0.0,0.0,0.0,0.0,0.0,0.0,0.0,0.0,0.0,0.0,0.0,0.0,0.0,0.0,0.0,0.0,0.0,0.0,0.0,0.0,0.0,0.0,0.0,0.0,0.0,0.0,0.0,0.0,0.0,0.0,0.0,0.0,0.0,0.0,0.0,0.0,0.0,0.0,0.0,0.0,0.0,0.0,0.0,0.0,0.0,0.0,0.0,0.0,0.0,0.0,0.0,0.0,0.0,0.0,0.0,0.0,0.0,0.0,0.0,0.0,0.0,0.0,0.0,0.0,0.0,0.0,0.0,0.0,0.0,0.0,0.0,0.0,0.0,0.0,0.0,0.0,0.0,0.0,0.0,0.0,0.0,0.0,0.0,0.0,0.0,0.0,0.0,0.0,0.0,0.0,0.0,0.0,0.0,0.0,0.0,0.0,0.0,0.0,0.0,0.0,0.0,0.0,0.0,0.0,0.0,0.0,0.0,0.0,0.0,0.0,0.0,0.0,0.0,0.0,0.0,0.0,0.0,0.0,0.0,0.0,0.0,0.0,0.0,0.0,0.0,0.0,0.0,0.0,0.0,0.0,0.0,0.0,0.0,0.0,0.0,0.0,0.0,0.0,0.0,0.0,0.0,0.0,0.0,0.0,0.0,0.0,0.0,0.0,0.0,0.0,0.0,0.0,0.0,0.0,0.0,0.0,0.0,0.0,0.0,0.0,0.0,0.0,0.0,0.0,0.0,0.0,0.0,0.0,0.0,0.0,0.0,0.0,0.0,0.0,0.0,0.0,0.0,0.0,0.0,0.0,0.0,0.0,0.0,0.0,0.0,0.0,0.0,0.0,0.0,0.0,0.0,0.0,0.0,0.0,0.0,0.0,0.0,0.0,0.0,0.0,0.0,0.0,0.0,0.0,0.0,0.0,0.0,0.0,0.0,0.0,0.0,0.0,0.0,0.0,0.0,0.0,0.0,0.0,0.0,0.0,0.0,0.0,0.0,0.0,0.0,0.0,0.0,0.0,0.0,0.0,0.0,0.0,0.0,0.0,0.0,0.0,0.0,0.0,0.0,0.0,0.0,0.0,0.0,0.0,0.0,0.0,0.0,0.0,0.0,0.0,0.0,0.0,0.0,0.0,0.0,0.0,0.0,0.0,0.0,0.0,0.0,0.0,0.0,0.0,0.0,0.0,0.0,0.0,0.0,0.0,0.0,0.0,0.0,0.0,0.0,0.0,0.0,0.0,0.0,0.0,0.0,0.0,0.0,0.0,0.0,0.0,0.0,0.0,0.0,0.0,0.0,0.0,0.0,0.0,0.0,0.0,0.0,0.0,0.0,0.0,0.0,0.0,0.0,0.0,0.0,0.0,0.0,0.0,0.0,0.0,0.0,0.0,0.0,0.0,0.0,0.0,0.0,0.0,0.0,0.0,0.0,0.0,0.0,0.0,0.0,0.0,0.0,0.0,0.0,0.0,0.0,0.0,0.0,0.0,0.0,0.0,0.0,0.0,0.0,0.0,0.0,0.0,0.0,0.0,0.0,0.0,0.0,0.0,0.0,0.0,0.0,0.0,0.0,0.0,0.0,0.0,0.0,0.0,0.0,0.0,0.0,0.0,0.0,0.0,0.0,0.0,0.0,0.0,0.0,0.0,0.0,0.0,0.0,0.0,0.0,0.0,0.0,0.0,0.0,0.0,0.0,0.0,0.0,0.0,0.0,0.0,0.0,0.0,0.0,0.0,0.0,0.0,0.0,0.0,0.0,0.0,0.0,0.0,0.0,0.0,0.0,0.0,0.0,0.0,0.0,0.0,0.0,0.0,0.0,0.0,0.0,0.0,0.0,0.0,0.0,0.0,0.0,0.0,0.0,0.0,0.0,0.0,0.0,0.0,0.0,0.0,0.0,0.0,0.0,0.0,0.0,0.0,0.0,0.0,0.0,0.0,0.0,0.0,0.0,0.0,0.0,0.0,0.0,0.0,0.0,0.0,0.0,0.0,0.0,0.0,0.0,0.0,0.0,0.0,0.0,0.0,0.0,0.0,0.0,0.0,0.0,0.0,0.0,0.0,0.0,0.0,0.0,0.0,0.0,0.0,0.0,0.0,0.0,0.0,0.0,0.0,0.0,0.0,0.0,0.0,0.0,0.0,0.0,0.0,0.0,0.0,0.0,0.0,0.0,0.0,0.0,0.0,0.0,0.0,0.0,0.0,0.0,0.0,0.0,0.0,0.0,0.0,0.0,0.0,0.0,0.0,0.0,0.0,0.0,0.0,0.0,0.0,0.0,0.0,0.0,0.0,0.0,0.0,0.0,0.0,0.0,0.0,0.0,0.0,0.0,0.0,0.0,0.0,0.0,0.0,0.0,0.0,0.0,0.0,0.0,0.0,0.0,0.0,0.0,0.0,0.0,0.0,0.0,0.0,0.0,0.0,0.0,0.0,0.0,0.0,0.0,0.0,0.0,0.0,0.0,0.0,0.0,0.0,0.0,0.0,0.0,0.0,0.0,0.0,0.0,0.0,0.0,0.0,0.0,0.0,0.0,0.0,0.0,0.0,0.0,0.0,0.0,0.0,0.0,0.0,0.0,0.0,0.0,0.0,0.0,0.0,0.0,0.0,0.0,0.0,0.0,0.0,0.0,0.0,0.0,0.0,0.0,0.0,0.0,0.0,0.0,0.0,0.0,0.0,0.0,0.0,0.0,0.0,0.0,0.0,0.0,0.0,0.0,0.0,0.0,0.0,0.0,0.0,0.0,0.0,0.0,0.0,0.0,0.0,0.0,0.0,0.0,0.0,0.0,0.0,0.0,0.0,0.0,0.0,0.0,0.0,0.0,0.0,0.0,0.0,0.0,0.0,0.0,0.0,0.0,0.0,0.0,0.0,0.0,0.0,0.0,0.0,0.0,0.0,0.0,0.0,0.0,0.0,0.0,0.0,0.0,0.0,0.0,0.0,0.0,0.0,0.0,0.0,0.0,0.0,0.0,0.0,0.0,0.0,0.0,0.0,0.0,0.0,0.0,0.0,0.0,0.0,0.0,0.0,0.0,0.0,0.0,0.0,0.0,0.0,0.0,0.0,0.0,0.0,0.0,0.0,0.0,0.0,0.0,0.0,0.0,0.0,0.0,0.0,0.0,0.0,0.0,0.0,0.0,0.0,0.0,0.0,0.0,0.0,0.0,0.0,0.0,0.0,0.0,0.0,0.0,0.0,0.0,0.0,0.0,0.0,0.0,0.0,0.0,0.0,0.0,0.0,0.0,0.0,0.0,0.0,0.0,0.0,0.0,0.0,0.0,0.0,0.0,0.0,0.0,0.0,0.0,0.0,0.0,0.0,0.0,0.0,0.0,0.0,0.0,0.0,0.0,0.0,0.0,0.0,0.0,0.0,0.0,0.0,0.0,0.0,0.0,0.0,0.0,0.0,0.0,0.0,0.0,0.0,0.0,0.0,0.0,0.0,0.0,0.0,0.0,0.0,0.0,0.0,0.0,0.0,0.0,0.0,0.0,0.0,0.0,0.0,0.0,0.0,0.0,0.0,0.0,0.0,0.0,0.0,0.0,0.0,0.0,0.0,0.0,0.0,0.0,0.0,0.0,0.0,0.0,0.0,0.0,0.0,0.0,0.0,0.0,0.0,0.0,0.0,0.0,0.0,0.0,0.0,0.0,0.0,0.0,0.0,0.0,0.0,0.0,0.0,0.0,0.0,0.0,0.0,0.0,0.0,0.0,0.0,0.0,0.0,0.0,0.0,0.0,0.0,0.0,0.0,0.0,0.0,0.0,0.0,0.0,0.0,0.0,0.0,0.0,0.0,0.0,0.0,0.0,0.0,0.0,0.0,0.0,0.0,0.0,0.0,0.0,0.0,0.0,0.0,0.0,0.0,0.0,0.0,0.0,0.0,0.0,0.0,0.0,0.0,0.0,0.0,0.0,0.0,0.0,0.0,0.0,0.0,0.0,0.0,0.0,0.0,0.0,0.0,0.0,0.0,0.0,0.0,0.0,0.0,0.0,0.0,0.0,0.0,0.0,0.0,0.0,0.0,0.0,0.0,0.0,0.0,0.0,0.0,0.0,0.0,0.0,0.0,0.0,0.0,0.0,0.0,0.0,0.0,0.0,0.0,0.0,0.0,0.0,0.0,0.0,0.0,0.0,0.0,0.0,0.0,0.0,0.0,0.0,0.0,0.0,0.0,0.0,0.0,0.0,0.0,0.0,0.0,0.0,0.0,0.0,0.0,0.0,0.0,0.0,0.0,0.0,0.0,0.0,0.0,0.0,0.0,0.0,0.0,0.0,0.0,0.0,0.0,0.0,0.0,0.0,0.0,0.0,0.0,0.0,0.0,0.0,0.0,0.0,0.0,0.0,0.0,0.0,0.0,0.0,0.0,0.0,0.0,0.0,0.0,0.0,0.0,0.0,0.0,0.0,0.0,0.0,0.0,0.0,0.0,0.0,0.0,0.0,0.0,0.0,0.0,0.0,0.0,0.0,0.0,0.0,0.0,0.0,0.0,0.0,0.0,0.0,0.0,0.0,0.0,0.0,0.0,0.0,0.0,0.0,0.0,0.0,0.0,0.0,0.0,0.0,0.0,0.0,0.0,0.0,0.0,0.0,0.0,0.0,0.0,0.0,0.0,0.0,0.0,0.0,0.0,0.0,0.0,0.0,0.0,0.0,0.0,0.0,0.0,0.0,0.0,0.0,0.0,0.0,0.0,0.0,0.0,0.0,0.0,0.0,0.0,0.0,0.0,0.0,0.0,0.0,0.0,0.0,0.0,0.0,0.0,0.0,0.0,0.0,0.0,0.0,0.0,0.0,0.0,0.0,0.0,0.0,0.0,0.0,0.0,0.0,0.0,0.0,0.0,0.0,0.0,0.0,0.0,0.0,0.0,0.0,0.0,0.0,0.0,0.0,0.0,0.0,0.0,0.0,0.0,0.0,0.0,0.0,0.0,0.0,0.0,0.0,0.0,0.0,0.0,0.0,0.0,0.0,0.0,0.0,0.0,0.0,0.0,0.0,0.0,0.0,0.0,0.0,0.0,0.0,0.0,0.0,0.0,0.0,0.0,0.0,0.0,0.0,0.0,0.0,0.0,0.0,0.0,0.0,0.0,0.0,0.0,0.0,0.0,0.0,0.0,0.0,0.0,0.0,0.0,0.0,0.0,0.0,0.0,0.0,0.0,0.0,0.0,0.0,0.0,0.0,0.0,0.0,0.0,0.0,0.0,0.0,0.0,0.0,0.0,0.0,0.0,0.0,0.0,0.0,0.0,0.0,0.0,0.0,0.0,0.0,0.0,0.0,0.0,0.0,0.0,0.0,0.0,0.0,0.0,0.0,0.0,0.0,0.0,0.0,0.0,0.0,0.0,0.0,0.0,0.0,0.0,0.0,0.0,0.0,0.0,0.0,0.0,0.0,0.0,0.0,0.0,0.0,0.0,0.0,0.0,0.0,0.0,0.0,0.0,0.0,0.0,0.0,0.0,0.0,0.0,0.0,0.0,0.0,0.0,0.0,0.0,0.0,0.0,0.0,0.0,0.0,0.0,0.0,0.0,0.0,0.0,0.0,0.0,0.0,0.0,0.0,0.0,0.0,0.0,0.0,0.0,0.0,0.0,0.0,0.0,0.0,0.0,0.0,5.0546,0.0,0.0,0.0,0.0,0.0,0.0,0.0,0.0,0.0,0.0,0.0,0.0,0.0,0.0,0.0,0.0,0.0,0.0,0.0,0.0,0.0,0.0,0.0,0.0,0.0,0.0,0.0,0.0,0.0,0.0,0.0,0.0,0.0,0.0,0.0,0.0,0.0,0.0,5.2811,5.2811,5.2628,5.2267,5.1402,5.0726,5.0226,0.0,0.0,0.0,0.0,0.0,0.0,0.0,0.0,0.0,0.0,0.0,0.0,0.0,0.0,0.0,0.0,0.0,0.0,0.0,0.0,0.0,0.0,0.0,0.0,0.0,0.0,0.0,0.0,0.0,0.0,0.0,0.0,0.0,0.0,0.0,0.0,0.0,0.0,0.0,0.0,0.0,0.0,0.0,0.0,0.0,0.0,0.0,0.0,0.0,0.0,0.0,0.0,0.0,0.0,0.0,0.0,0.0,0.0,0.0,0.0,0.0,0.0,0.0,0.0,0.0,0.0,0.0,0.0,0.0,0.0,0.0,5.1374,0.0,0.0,0.0,0.0,0.0,0.0,0.0,0.0,0.0,0.0,0.0,0.0,0.0,0.0,0.0,0.0,0.0,0.0,0.0,0.0,0.0,0.0,0.0,5.0436,5.055,5.055,5.1308,5.1805,0.0,0.0,0.0,0.0,0.0,0.0,5.3269,5.3269,5.3269,5.3269,5.3181,5.3001,5.2729,5.2729,5.2583,5.232,5.2258,0.0,0.0,0.0,0.0,0.0,0.0,0.0,0.0,0.0,0.0,0.0,0.0,0.0,0.0,0.0,0.0,0.0,0.0,0.0,0.0,0.0,0.0,0.0,0.0,0.0,0.0,0.0,0.0,0.0,0.0,0.0,0.0,0.0,0.0,0.0,0.0,0.0,0.0,0.0,0.0,0.0,0.0,0.0,0.0,0.0,0.0,0.0,0.0,0.0,0.0,0.0,0.0,0.0,0.0,0.0,0.0,0.0,0.0,0.0,0.0,0.0,0.0,0.0,5.2748,5.2861,5.3012,5.3012,5.3012,5.3012,5.307,5.2671,5.1971,5.1636,0.0,0.0,0.0,0.0,0.0,0.0,0.0,0.0,0.0,0.0,0.0,0.0,0.0,0.0,0.0,0.0,0.0,0.0,0.0,5.0283,5.0283,5.0965,5.1423,5.1423,5.2155,5.2658,5.2658,0.0,0.0,0.0,0.0,0.0,5.5052,5.5052,5.5052,5.5052,5.4728,5.4495,5.4458,5.4458,5.4436,5.4345,5.2627,5.1823,5.1783,0.0,0.0,0.0,0.0,0.0,0.0,0.0,0.0,0.0,0.0,0.0,0.0,0.0,0.0,0.0,0.0,0.0,0.0,0.0,0.0,0.0,0.0,0.0,0.0,0.0,0.0,0.0,0.0,0.0,0.0,0.0,0.0,0.0,0.0,0.0,0.0,0.0,0.0,0.0,0.0,0.0,5.2677,5.1916,0.0,0.0,0.0,0.0,0.0,0.0,0.0,0.0,0.0,0.0,0.0,0.0,0.0,5.2212,5.2861,5.3331,5.4309,5.5822,5.6159,5.6706,5.7468,5.7468,5.7468,5.7468,5.748,0.0,5.1918,5.1856,0.0,0.0,0.0,0.0,0.0,0.0,0.0,0.0,0.0,0.0,0.0,0.0,0.0,0.0,0.0,0.0,0.0,0.0,0.0,0.0,0.0,5.1797,5.227,5.227,5.3034,5.3549,5.3586,5.4006,0.0,0.0,0.0,5.4995,5.5377,5.5416,5.5396,5.5396,5.5233,5.5133,5.5133,5.5133,5.5133,5.5088,5.4216,5.3825,5.3825,5.3825,0.0,0.0,0.0,0.0,0.0,0.0,0.0,0.0,0.0,0.0,0.0,0.0,0.0,0.0,0.0,0.0,0.0,0.0,0.0,0.0,0.0,0.0,0.0,0.0,0.0,0.0,0.0,0.0,0.0,0.0,0.0,0.0,0.0,0.0,0.0,0.0,0.0,0.0,0.0,5.3209,5.3331,5.3651,5.3513,5.3366,0.0,0.0,0.0,0.0,0.0,0.0,0.0,0.0,0.0,5.3963,5.4002,5.4212,5.4594,5.4782,5.5511,5.675,5.6923,5.7478,5.8313,5.8313,5.8313,5.8313,5.8313,5.6939,5.4785,5.4995,5.532,5.5609,0.0,0.0,0.0,0.0,5.5109,5.5525,0.0,0.0,0.0,0.0,0.0,0.0,0.0,0.0,0.0,0.0,0.0,0.0,5.1982,5.2694,5.311,5.311,5.3913,5.4441,5.4508,5.5076,5.5413,5.5479,5.5437,5.5445,5.5445,5.5434,5.5403,5.5384,5.5212,5.5103,5.5103,5.4874,5.4797,5.4797,5.5027,5.5237,5.5396,5.5396,5.5021,5.439,0.0,0.0,0.0,0.0,0.0,0.0,0.0,0.0,0.0,0.0,0.0,0.0,0.0,0.0,0.0,0.0,0.0,0.0,0.0,0.0,0.0,0.0,0.0,0.0,0.0,0.0,0.0,0.0,0.0,0.0,0.0,0.0,0.0,0.0,0.0,0.0,0.0,5.3833,5.4092,5.4868,5.4853,5.4797,0.0,0.0,0.0,0.0,0.0,0.0,5.5549,5.56,5.5814,5.6285,5.6335,5.6472,5.6665,5.6665,5.7209,5.8292,5.8292,5.8748,5.9583,5.9583,5.9583,5.9583,5.9583,5.9204,5.8538,5.7768,5.7467,5.7365,5.6416,5.6185,5.6329,5.5971,5.6242,5.6861,0.0,0.0,0.0,0.0,0.0,0.0,0.0,0.0,0.0,0.0,0.0,5.283,5.2836,5.3535,5.4027,5.4027,5.483,5.5352,5.5338,5.5382,5.5413,5.5479,5.5517,5.5479,5.5479,5.5473,5.5443,5.5415,5.4709,5.4355,5.4355,5.3518,5.3134,5.3173,5.3972,5.475,5.5396,5.5396,5.5358,5.532,5.5307,0.0,0.0,0.0,0.0,0.0,0.0,0.0,0.0,0.0,0.0,0.0,0.0,0.0,0.0,0.0,0.0,0.0,0.0,0.0,0.0,0.0,0.0,0.0,0.0,0.0,0.0,0.0,0.0,0.0,0.0,0.0,0.0,0.0,0.0,0.0,0.0,0.0,0.0,5.4605,5.5171,0.0,0.0,0.0,0.0,5.5627,5.5627,5.6017,5.6841,5.6912,5.7297,5.8159,5.8159,5.8544,5.9319,5.9319,6.0165,6.1831,6.1831,6.2287,6.3045,6.3045,6.3045,6.3045,6.3045,6.3006,6.266,5.8692,5.7033,5.7033,5.6945,5.7434,5.8158,5.8131,5.8175,5.8214,0.0,0.0,0.0,0.0,0.0,0.0,0.0,0.0,5.1984,5.2554,5.3316,5.3825,5.3864,5.4535,5.4992,5.4992,5.5298,5.5482,5.5547,5.5547,5.5575,5.5638,5.5604,5.5295,5.475,5.4712,5.4739,5.4677,5.4432,5.4559,5.5057,5.475,5.4603,5.4603,5.4942,5.5225,5.5451,5.5402,5.5383,5.5383,5.5416,5.5396,0.0,0.0,0.0,0.0,0.0,0.0,0.0,0.0,0.0,0.0,0.0,0.0,0.0,0.0,0.0,0.0,0.0,0.0,0.0,0.0,0.0,0.0,0.0,0.0,0.0,0.0,0.0,0.0,0.0,0.0,0.0,0.0,0.0,0.0,0.0,0.0,0.0,5.6896,5.7203,0.0,5.8088,5.8165,5.8588,5.971,5.9825,6.0171,6.1012,6.1583,6.2044,6.2352,6.2897,6.332,6.3628,6.3628,6.4211,6.5327,6.5327,6.5743,6.6583,6.6583,6.6583,6.6583,6.6583,6.6276,6.5628,6.4134,6.2512,6.1012,6.0479,6.0479,6.0671,6.0127,6.0242,6.0748,0.0,0.0,0.0,0.0,0.0,0.0,0.0,0.0,5.2921,5.3496,5.4254,5.4769,5.4803,5.5213,5.5485,5.5485,5.5485,5.5547,5.5615,5.5615,5.5528,5.5318,5.4973,5.477,5.4747,5.4764,5.4917,5.5169,5.5192,5.5472,5.6009,5.5702,5.5587,5.5587,5.5856,5.5856,5.5581,5.5824,5.5705,5.5413,5.514,5.5198,5.5428,0.0,0.0,0.0,0.0,0.0,0.0,0.0,0.0,0.0,0.0,0.0,0.0,0.0,0.0,0.0,0.0,0.0,0.0,0.0,0.0,0.0,0.0,0.0,0.0,0.0,0.0,0.0,0.0,0.0,0.0,0.0,0.0,0.0,0.0,0.0,5.8517,5.9088,5.9627,6.0198,6.0737,6.105,6.1704,6.2864,6.3211,6.3749,6.4551,6.5128,6.5705,6.632,6.6898,6.7321,6.759,6.759,6.7859,6.8366,6.8468,6.8781,6.9359,6.9411,6.9451,6.9413,6.9142,6.8679,6.8105,6.7829,6.6709,6.5037,6.3566,6.2855,6.262,6.204,6.2195,6.2658,0.0,0.0,0.0,0.0,0.0,0.0,5.1962,5.3439,5.4521,5.4511,5.516,5.5626,5.5582,5.5564,5.5529,5.5529,5.5529,5.5558,5.5588,5.5582,5.522,5.4472,5.3664,5.3984,5.5544,5.5638,5.6104,5.6894,5.695,5.7022,5.7016,5.617,5.5785,5.5824,5.667,5.6555,5.578,5.6571,5.6393,5.5491,5.4635,5.4789,5.5446,0.0,0.0,0.0,0.0,0.0,0.0,0.0,0.0,0.0,0.0,0.0,0.0,0.0,0.0,0.0,0.0,0.0,0.0,0.0,0.0,0.0,0.0,0.0,0.0,0.0,0.0,0.0,0.0,0.0,0.0,0.0,0.0,0.0,5.866,5.9858,6.0896,6.0941,6.2358,6.3352,6.3429,6.416,6.4705,6.4705,6.5513,6.6365,6.7148,6.7225,6.8033,6.9732,6.9809,7.0194,7.1002,7.1002,7.1002,7.1009,7.1174,7.129,7.1301,7.1508,7.1591,7.1513,7.0693,7.0304,7.0266,6.9403,6.9053,6.8766,6.6016,6.4545,6.3966,6.3966,6.3966,6.3966,0.0,0.0,0.0,0.0,0.0,0.0,5.3587,5.4265,5.4809,5.5306,5.5634,5.5779,5.5659,5.5665,5.566,5.566,5.566,5.5696,5.5822,5.5194,5.4418,5.3582,5.3933,5.4351,5.4797,5.539,5.6121,5.6983,5.7006,5.7324,5.7934,5.7703,5.7588,5.7588,5.7857,5.7473,5.667,5.6885,5.683,5.6461,5.4906,5.4444,5.4559,0.0,0.0,0.0,0.0,0.0,0.0,0.0,0.0,0.0,0.0,0.0,0.0,0.0,0.0,0.0,0.0,0.0,0.0,0.0,0.0,0.0,0.0,0.0,0.0,0.0,0.0,0.0,0.0,0.0,0.0,0.0,0.0,6.2243,6.121,6.1935,6.2852,6.3474,6.3974,6.4705,6.5936,6.6282,6.6667,6.7314,6.8167,6.8802,6.9126,7.0324,7.1291,7.1925,7.2512,7.2934,7.3166,7.3166,7.3166,7.3166,7.3184,7.3212,7.3216,7.3307,7.3328,7.3289,7.3056,7.2978,7.2939,7.2702,7.2301,7.1602,6.8851,6.7646,6.7495,6.7495,6.7495,6.7495,0.0,0.0,0.0,0.0,0.0,0.0,5.4465,5.5017,5.5432,5.5827,5.5942,5.5966,5.5865,5.5817,5.5765,5.5765,5.5765,5.5654,5.5376,5.4201,5.3716,5.4246,5.4049,5.4626,5.6049,5.6549,5.7396,5.8583,5.8979,5.9556,6.039,6.039,6.039,6.039,6.039,5.9935,5.91,5.8748,5.8363,5.7857,5.5747,5.5099,5.5374,5.4874,5.4452,5.4145,5.4145,5.4145,5.4145,5.4145,0.0,0.0,0.0,0.0,0.0,0.0,0.0,0.0,0.0,0.0,0.0,0.0,0.0,0.0,0.0,0.0,0.0,0.0,0.0,0.0,0.0,0.0,0.0,0.0,6.4233,6.4443,6.4295,6.4357,6.4705,6.5551,6.6282,6.7128,6.809,6.8898,6.9583,7.0078,7.0996,7.1551,7.1606,7.2575,7.3364,7.3829,7.4295,7.4718,7.5107,7.5107,7.5107,7.5107,7.5141,7.5174,7.5174,7.5278,7.5303,7.5264,7.4913,7.4758,7.4719,7.4368,7.3976,0.0,0.0,0.0,0.0,0.0,7.02,7.02,0.0,0.0,0.0,0.0,0.0,0.0,5.4899,5.5647,5.6113,5.61,5.611,5.6113,5.6097,5.5974,5.5921,5.5921,5.5844,5.5375,5.44,5.305,5.3207,5.5366,5.3982,5.4851,5.8352,5.8434,5.9319,6.1089,6.1864,6.2589,6.3314,6.3314,6.3314,6.3314,6.3314,6.2858,6.2062,6.1364,6.0589,5.9588,5.7434,5.667,5.6824,5.6747,5.6247,5.5593,5.567,5.5708,5.5708,5.5708,0.0,0.0,0.0,0.0,0.0,0.0,0.0,0.0,0.0,0.0,0.0,0.0,0.0,0.0,0.0,0.0,0.0,0.0,0.0,0.0,0.0,0.0,0.0,0.0,6.5959,6.6847,6.7652,6.7138,6.6888,6.7475,6.9034,7.0054,7.0163,7.1682,7.2672,7.2672,7.3582,7.4148,7.4168,0.0,0.0,0.0,0.0,7.5864,7.6638,7.6676,7.6676,7.6676,7.6771,7.6824,7.6827,7.7032,7.7101,7.7062,7.6283,7.5932,7.5893,7.511,7.4798,7.4675,7.3588,7.2827,7.226,7.226,7.226,7.226,0.0,0.0,0.0,0.0,0.0,0.0,5.5751,5.6108,5.6212,5.6113,5.6189,5.621,5.611,5.6071,5.6054,5.6054,5.5465,5.4413,5.2858,5.3107,5.3473,5.3829,5.3441,5.5082,5.9165,5.9281,6.0435,6.2814,6.3006,6.316,6.3314,6.3314,6.3314,6.3314,6.3314,6.2858,6.2133,6.2627,6.2358,6.1595,6.1781,5.9473,5.5862,5.5247,5.49,5.4818,5.5478,5.5708,5.5708,5.5708,5.5708,5.5708,5.5708,5.5708,0.0,0.0,0.0,0.0,0.0,0.0,0.0,0.0,0.0,0.0,0.0,0.0,0.0,0.0,0.0,0.0,0.0,0.0,0.0,6.7828,6.8811,6.9713,7.0564,7.114,7.1176,7.0435,7.1347,7.2316,7.3013,7.3474,7.372,7.372,7.4528,7.5133,7.5294,7.5917,7.6426,7.6745,7.6747,7.6825,7.7018,7.7018,7.7018,7.7018,0.0,0.0,7.7043,7.7095,7.7101,7.7101,7.6906,7.6867,7.6828,7.6672,7.6594,7.6436,7.4823,7.4124,7.4017,7.4017,7.4017,7.4017,0.0,0.0,0.0,0.0,0.0,0.0,5.623,5.6422,5.6432,5.6353,5.6423,5.6432,5.6351,5.6264,5.6194,5.6194,5.5447,5.4246,5.2509,5.3638,5.4277,5.416,5.5292,5.7291,6.0171,6.0683,6.1923,6.4045,6.4045,6.4277,6.4701,6.4701,6.4671,6.4589,6.4589,6.4397,6.4019,6.3974,6.3705,6.3326,6.2897,6.1166,5.8825,5.7978,5.6863,5.5862,5.6703,5.6703,5.6401,5.6857,5.7011,5.7011,5.7011,5.7011,5.7088,0.0,0.0,0.0,0.0,0.0,0.0,0.0,0.0,0.0,0.0,0.0,0.0,0.0,0.0,6.6035,0.0,0.0,6.8769,7.0051,7.1003,7.1872,7.2723,7.3619,7.3749,7.2671,7.3385,7.4101,7.4567,7.5125,7.5468,7.5468,7.5936,7.6253,7.6337,7.6716,7.7004,7.7083,7.711,7.7106,7.7112,7.7112,7.7112,7.7112,7.7112,7.7112,7.7112,7.7104,7.7101,7.7101,7.7101,7.7101,7.7101,7.711,7.7112,7.6995,7.6136,7.5781,7.5813,7.5813,7.5813,7.5813,0.0,0.0,0.0,0.0,0.0,0.0,0.0,5.6605,5.6605,5.6605,5.6605,5.6605,5.6605,5.6447,5.6217,5.5866,5.5553,5.4506,5.2417,5.4032,5.5034,5.4929,5.6896,5.8997,6.1241,6.1785,6.3042,6.5064,6.5023,6.5389,6.604,6.604,6.598,6.5904,6.5915,6.5909,6.5865,6.5184,6.4869,6.4743,6.3364,6.2749,6.2518,6.1826,5.9979,5.7824,5.8511,5.8319,5.7824,5.8357,5.8655,5.8809,5.8809,5.8841,5.9037,5.9824,6.0094,0.0,0.0,0.0,0.0,0.0,0.0,0.0,0.0,0.0,6.5665,6.6695,6.7639,6.8513,6.934,7.024,7.1163,7.2057,7.2973,7.3803,7.4422,7.5278,7.5535,7.4714,7.5231,7.5641,7.5641,7.6442,7.6958,7.6958,7.7043,7.7098,7.7098,7.7248,7.7364,7.7333,7.7512,7.7624,7.7595,7.7595,7.7595,7.7595,7.7595,7.7517,7.736,7.735,7.7266,7.711,7.711,7.711,7.7111,7.7083,7.7087,7.7087,7.7087,7.7081,7.711,7.7103,7.7101,7.7101,0.0,0.0,0.0,0.0,0.0,0.0,0.0,0.0,5.6605,5.6605,5.6605,5.6605,5.6605,5.6561,5.5933,5.4372,5.5582,5.5037,5.1759,5.378,5.5106,5.5061,5.5236,5.7502,6.2242,6.1552,6.2723,6.5953,6.5824,6.5832,6.5909,6.5909,6.589,6.591,6.6019,6.5997,6.5916,6.5909,6.5876,6.575,6.5551,6.5013,6.432,6.4205,6.2589,6.0402,6.0473,6.0479,6.0287,5.9588,5.9957,6.0693,6.0693,6.0778,6.103,6.1924,6.2168,6.2334,6.3226,6.3479,6.3492,6.3624,6.4315,6.5123,0.0,0.0,6.7629,6.8502,6.9484,7.0478,7.1392,7.2327,7.324,7.4138,7.4998,7.5623,7.5701,7.6443,7.695,7.6872,7.6806,7.6811,7.6811,7.7047,7.718,7.718,7.7139,7.7098,7.7098,7.784,7.823,7.8231,7.901,7.9401,7.9402,7.9402,7.9402,7.9402,7.9402,7.9011,7.8269,7.8268,7.7838,7.7095,7.7095,7.7095,7.7095,7.7097,7.7097,7.7097,7.7097,7.7096,7.7093,7.7111,7.7101,7.7101,0.0,0.0,0.0,0.0,0.0,0.0,0.0,0.0,5.6605,5.6605,5.6605,5.6605,5.6605,5.6611,5.6109,5.4865,5.5876,5.5331,5.2334,5.4538,5.5538,5.4493,5.5874,5.7823,6.0336,6.0984,6.2468,6.4827,6.5265,6.5717,6.6149,6.6149,6.6074,6.5976,6.6041,6.603,6.5976,6.6003,6.6024,6.5982,6.6052,6.5879,6.5464,6.5034,6.3602,6.1845,6.2293,6.1858,0.0,6.0661,6.1143,6.1744,6.072,6.1158,6.2076,6.2441,6.2876,6.3364,6.3833,6.432,6.484,0.0,6.6188,6.6984,6.7943,6.8743,6.9586,7.0544,7.1465,7.2413,7.3313,7.4217,7.4922,0.0,7.6094,7.664,7.664,7.6953,7.7187,7.7187,7.7145,7.7101,7.7101,7.7185,7.7187,7.7187,7.7655,7.7928,7.7928,7.8707,7.9175,7.9178,7.9524,7.9718,7.9682,7.9682,7.9682,7.9682,7.9682,7.9525,7.9174,7.917,7.8974,7.8583,7.8075,7.784,7.7802,7.7336,7.7142,7.7142,7.7142,7.7142,7.7142,7.7092,7.7086,7.7086,0.0,0.0,0.0,0.0,0.0,0.0,0.0,0.0,0.0,0.0,5.661,5.6611,5.6614,5.6581,5.6236,5.5382,5.5885,5.5222,5.2847,5.4715,5.5338,5.4055,5.6045,5.7831,5.9278,6.027,6.1708,6.3617,6.3935,6.4489,6.5238,6.5238,6.5441,6.5765,6.5765,6.5889,6.6068,6.6068,6.5915,6.5677,6.577,6.5678,6.5387,6.4625,6.3735,6.2938,6.3204,6.2454,6.1346,6.1562,6.2255,6.2785,6.1531,6.2021,6.3102,6.3345,6.4172,6.5051,6.5183,0.0,0.0,6.7413,6.8143,6.8911,6.9918,7.073,7.1542,7.2538,7.3398,7.4219,7.4844,7.5664,7.625,7.625,7.6797,7.7187,7.7187,7.7187,7.7187,7.7187,7.7187,7.7305,7.7539,7.7578,7.7578,7.7578,7.8359,7.8828,7.8828,7.9609,8.0077,8.0078,8.0271,8.0426,8.0428,8.0428,8.0428,8.0428,8.0428,8.0272,8.0037,7.98,7.9682,7.9643,7.9018,7.8744,7.8706,7.8122,7.7889,7.7889,7.7654,7.7576,7.7537,7.7222,7.7101,7.7098,0.0,0.0,0.0,0.0,0.0,0.0,0.0,0.0,0.0,0.0,0.0,0.0,0.0,5.6592,5.6241,5.5383,5.5304,5.4598,5.2836,5.3582,5.4054,5.4016,5.4874,5.6946,6.0269,5.9441,6.0252,6.2828,6.1824,6.1758,6.2617,6.2617,6.3515,6.5119,6.5197,6.5587,6.6217,6.6256,6.5717,6.485,6.4861,6.4359,6.3494,6.2751,6.3053,6.3741,6.2924,6.2064,6.1445,6.2285,6.3214,6.4058,6.3978,6.4098,6.4403,6.5269,6.6717,6.8086,6.8086,6.8711,6.9375,6.9336,6.9961,7.0859,7.1719,7.2578,7.3476,7.4336,7.5195,7.582,7.5859,7.6562,7.7148,7.7148,7.7187,7.7187,7.7187,7.7187,7.7187,7.7187,7.7187,7.7539,0.0,7.8476,7.8476,7.8476,7.9219,7.9648,7.9648,8.0508,8.0976,8.0976,8.1797,8.2226,8.2226,8.2226,8.2226,8.2226,8.2226,8.1797,8.0937,8.0078,7.9687,7.9687,7.9687,7.9648,7.9648,7.9648,7.9609,7.9531,7.8789,7.8476,7.8359,7.75,7.7146,7.7098,0.0,0.0,0.0,0.0,0.0,0.0,0.0,0.0,0.0,0.0,0.0,0.0,0.0,0.0,0.0,0.0,5.6168,5.5426,5.367,5.3825,5.3747,5.3163,5.3983,5.5233,5.6992,5.7807,5.8921,6.0291,6.1086,6.1862,6.2647,6.3234,6.3823,6.4371,6.4371,6.4497,6.4594,6.4637,6.442,6.4018,6.3541,6.3167,6.2889,6.2774,6.2586,6.2581,0.0,6.4384,6.4106,6.3802,6.4359,6.4874,6.3741,6.4175,6.5468,6.6914,6.7734,6.832,6.8906,6.9687,7.043,7.0976,7.1797,7.2656,7.3515,7.4414,7.5117,7.539,7.6172,7.6758,7.6758,7.6992,7.7187,7.7187,7.7187,7.7187,7.7187,7.7187,7.7422,7.8008,7.8047,0.0,0.0,0.0,0.0,7.9258,8.0078,8.0547,8.0547,8.1406,8.1875,8.1875,8.2148,8.2304,8.2304,8.2304,8.2304,8.2304,8.2304,8.2148,8.1836,8.1562,8.1445,8.1406,8.082,8.0547,8.0508,7.9922,7.9687,7.9687,7.9414,7.9297,7.9258,7.8984,7.8828,7.8671,0.0,0.0,0.0,0.0,0.0,0.0,0.0,0.0,0.0,0.0,0.0,0.0,0.0,0.0,0.0,0.0,0.0,5.5663,5.4531,5.3866,5.3437,5.3164,5.3711,5.4531,5.5742,5.6875,5.781,5.8614,5.9434,6.0201,6.1018,6.1566,6.2309,6.3169,6.314,6.3446,6.3884,6.3825,6.3639,6.3255,6.2454,6.2157,6.2151,6.2039,6.2193,0.0,6.4529,6.5547,6.5976,6.5429,6.5586,6.5859,6.4765,6.539,6.6758,6.7851,6.8633,6.9297,7.0156,7.1015,7.1836,7.2695,7.3594,7.4375,7.4922,7.5742,7.6367,7.6367,7.6797,7.7187,7.7187,7.7187,7.7187,7.7187,7.7187,7.7187,7.7187,7.7461,7.7851,7.8437,7.875,7.9258,0.0,0.0,0.0,8.0117,8.0976,8.1445,8.1445,8.1992,8.2304,8.2304,8.2304,8.2304,8.2304,8.2304,8.2304,8.2304,8.2304,8.2304,8.2304,8.2304,8.2304,8.2265,8.1719,8.1445,8.1406,8.0859,8.0625,8.0586,8.0273,8.0156,8.0117,7.9805,7.9687,7.9492,0.0,0.0,0.0,0.0,0.0,0.0,0.0,0.0,0.0,0.0,0.0,0.0,0.0,0.0,0.0,0.0,0.0,0.0,5.5311,5.3711,5.3125,5.3905,5.3984,5.4765,5.6445,5.6562,5.6992,5.7812,5.7031,5.7109,5.789,5.7969,5.9258,6.1562,6.1543,6.2422,6.3897,6.3762,6.3294,6.2564,6.1629,6.1268,6.1268,6.0606,6.1918,6.4151,6.4295,6.5469,6.6914,6.6914,6.6914,6.6914,6.6914,6.75,6.8203,6.8242,6.9453,7.0976,7.1836,7.2734,7.3633,7.4453,7.5312,7.5976,7.5976,7.6601,7.7187,7.7187,7.7187,7.7187,7.7187,0.0,7.7187,7.7187,7.7187,7.7226,7.7265,7.7969,7.8515,0.0,0.0,0.0,0.0,0.0,0.0,8.1133,0.0,8.2304,8.2304,8.2304,8.2304,8.2304,8.2304,8.2304,8.2304,8.2304,8.2304,8.2304,8.2304,8.2304,8.2304,8.2304,8.2304,8.2304,8.2304,8.2304,8.2304,8.2304,8.2304,8.2226,8.1406,8.1054,8.0976,8.0156,7.9844,7.9726,0.0,0.0,0.0,0.0,0.0,0.0,0.0,0.0,0.0,0.0,0.0,0.0,0.0,0.0,0.0,0.0,0.0,0.0,5.5351,5.4297,5.3476,5.3047,5.3633,5.4219,5.4648,5.5937,5.6719,5.6914,5.7344,5.7695,5.789,5.8555,5.9219,5.9844,6.0467,6.0926,6.1327,6.1921,6.2,6.1641,6.084,6.0497,6.0571,6.1079,6.2076,6.3411,6.4764,6.5976,6.6914,6.6914,6.6914,6.6914,6.6914,6.75,6.832,6.8906,7.0312,7.1875,7.2734,7.4062,7.5273,7.5508,7.6211,7.6875,7.6875,7.7031,7.7187,7.7187,7.7187,7.7187,7.7187,7.7187,7.7187,7.7187,7.7187,0.0,7.8086,7.8359,0.0,8.0195,0.0,8.1015,8.1875,8.1953,0.0,0.0,8.2539,8.2304,8.2304,8.2304,8.2304,8.2304,8.2304,8.2304,8.2304,8.2304,8.2304,8.2304,8.2304,8.2304,8.2304,8.2304,8.2304,8.2304,8.2304,8.2304,8.2304,8.2304,8.2304,8.2265,8.207,8.1953,8.1953,8.1719,8.164,8.1523,0.0,0.0,0.0,0.0,0.0,0.0,0.0,0.0,0.0,0.0,0.0,0.0,0.0,0.0,0.0,0.0,0.0,0.0,0.0,5.5039,5.418,5.332,5.4101,5.4375,5.4023,5.5703,5.6601,5.6601,5.7109,5.7344,5.7344,5.7812,5.8242,5.8633,5.9101,5.9686,6.0378,6.0832,6.121,0.0,0.0,6.048,6.0936,6.1429,6.2177,6.3195,6.496,6.6172,6.6914,6.6914,6.6914,6.6953,6.7344,6.8047,6.8984,7.0195,7.1484,7.2851,7.4101,7.5156,7.5976,7.6367,7.6836,7.7187,7.7187,7.7187,7.7187,7.7187,7.7187,7.7187,7.7187,7.7187,7.7187,0.0,0.0,0.0,7.8398,7.8789,7.9531,0.0,8.1328,0.0,8.2265,8.2656,8.3086,0.0,8.3164,8.3047,8.3437,8.3437,8.3437,8.3437,8.3437,8.3242,8.2851,8.25,8.2304,8.2304,8.2304,8.2304,8.2304,8.2304,8.2304,8.2304,0.0,8.2304,8.2304,8.2304,8.2304,8.2304,8.2304,8.2304,8.2304,8.2304,8.2304,8.2226,0.0,0.0,0.0,0.0,0.0,0.0,0.0,0.0,0.0,0.0,5.6601,0.0,0.0,0.0,0.0,0.0,0.0,0.0,0.0,0.0,5.4961,5.4219,5.4805,5.4765,5.4023,5.5586,5.6445,5.6445,5.6523,5.6601,5.6601,5.6601,5.6992,5.7734,5.7851,5.8711,6.0078,6.0142,6.0693,6.1445,6.0649,6.0888,6.1719,0.0,6.2187,6.3047,6.4805,6.6055,6.6914,6.6914,6.6914,6.7031,6.793,6.875,6.9726,7.1484,7.2695,7.3828,7.5469,7.5976,7.625,7.6992,7.7187,7.7187,7.7187,7.7187,7.7187,7.7187,0.0,7.7187,7.7187,7.7187,7.7187,7.7187,0.0,7.7539,7.8515,7.9258,8.0078,8.1054,8.1836,8.2344,8.2461,8.3164,8.3711,8.3945,8.3945,8.4219,8.4883,8.4883,8.4883,8.4883,8.4883,8.4492,8.3594,8.2851,8.2422,8.2304,8.2304,8.2304,8.2304,8.2304,8.2304,8.2304,8.2304,8.2304,8.2304,8.2304,8.2304,8.2304,8.2304,8.2304,8.2304,8.2304,8.2304,8.2304,0.0,0.0,0.0,0.0,0.0,0.0,0.0,0.0,0.0,0.0,5.6601,5.6601,0.0,0.0,0.0,0.0,0.0,0.0,0.0,0.0,0.0,5.5078,5.4531,5.4141,5.3984,5.5,5.5547,5.5547,5.625,5.6601,5.6601,5.6601,5.668,5.6875,5.7578,5.8047,5.8398,5.9101,5.9882,6.0625,6.0468,6.0898,6.1719,6.1719,0.0,0.0,6.3906,6.5547,6.6914,6.6914,6.6914,6.7031,6.793,6.875,6.9726,7.1484,7.3125,7.4609,7.5625,7.6445,7.6992,7.7148,7.7187,7.7187,7.7187,7.7187,0.0,0.0,7.7187,7.7187,7.7187,7.7187,7.7187,7.7187,7.7187,7.7734,7.9297,0.0,8.0273,0.0,0.0,0.0,0.0,0.0,0.0,0.0,8.5742,8.5508,8.4922,8.4883,8.4883,8.4883,8.4883,8.4492,8.3594,8.3437,8.3008,8.2304,8.2304,8.2304,8.2304,8.2304,8.2304,8.2304,8.2304,0.0,8.2304,8.2304,8.2304,8.2304,8.2304,8.2304,8.2304,8.2304,8.2304,8.2304,0.0,0.0,0.0,0.0,0.0,0.0,0.0,5.6588,5.6594,5.6599,5.6601,5.6601,5.6601,5.6601,5.6601,0.0,0.0,0.0,0.0,0.0,0.0,5.5312,5.5312,5.4922,5.4023,5.4844,5.5312,5.5312,0.0,5.6172,5.6601,5.6601,5.6601,5.6601,5.7031,5.7461,5.793,5.8359,5.9023,5.9805,6.0234,6.0664,6.1055,0.0,0.0,0.0,6.3828,6.5117,6.6289,6.6758,6.6914,6.7148,6.8437,6.9101,6.9961,7.2578,7.3945,7.4883,7.6211,7.6875,7.7187,7.7187,7.7187,7.7187,7.7187,0.0,0.0,0.0,7.7187,7.7187,7.7187,7.7187,7.7187,7.7187,7.7187,7.7773,7.9453,7.9687,0.0,0.0,0.0,0.0,0.0,0.0,8.4804,8.6094,8.6601,8.6679,8.6289,8.625,8.625,8.625,8.582,8.539,8.4961,8.4062,8.3398,8.2969,8.2539,8.2304,8.2304,8.2304,8.2304,8.2304,8.2304,8.2304,8.2304,8.2304,8.2304,8.2304,8.2304,8.2304,8.2304,8.2304,8.2304,8.2304,0.0,0.0,0.0,0.0,0.0,0.0,0.0,5.6584,5.6593,5.6594,5.66,5.6601,5.6601,5.6601,5.6601,0.0,0.0,0.0,0.0,0.0,0.0,0.0,0.0,0.0,5.4297,0.0,0.0,5.5039,5.5039,0.0,0.0,0.0,0.0,0.0,5.6601,5.6992,5.7617,5.7617,5.8125,0.0,0.0,6.0078,0.0,0.0,0.0,0.0,0.0,6.4414,6.5469,6.6328,6.6758,6.7148,6.8672,6.9297,7.0078,7.3125,7.4297,7.4922,7.6484,7.707,7.7187,7.7187,7.7187,7.7148,7.6953,7.6914,0.0,7.668,7.6797,7.6914,7.6914,7.707,7.7187,7.7187,7.7187,7.7773,7.9453,7.9687,0.0,0.0,0.0,0.0,0.0,0.0,0.0,8.6406,8.7109,8.75,8.75,8.75,8.75,8.75,8.6836,8.6406,8.6211,8.4648,8.3789,8.3594,8.2734,8.2304,8.2304,8.2304,8.2304,8.2304,8.2304,8.2304,8.2304,8.2304,8.2304,8.2304,8.2304,8.2304,8.2304,8.2304,8.2304,8.2304,0.0,0.0,0.0,0.0,0.0,0.0,0.0,5.6588,5.6594,5.6598,5.6601,5.6601,5.6601,5.6601,5.6601,0.0,0.0,0.0,0.0,0.0,0.0,0.0,0.0,0.0,0.0,0.0,0.0,5.4101,5.4101,0.0,0.0,0.0,0.0,0.0,0.0,5.664,5.6719,5.6719,0.0,0.0,0.0,0.0,0.0,0.0,0.0,0.0,0.0,6.3008,6.4531,6.543,6.625,6.707,6.8008,6.8828,6.9765,7.168,0.0,0.0,7.5742,7.6601,7.7187,7.7187,7.7187,7.6992,7.6211,0.0,7.5781,7.5,7.5469,7.6015,7.6015,7.668,7.7187,7.7187,7.7187,7.7773,7.9453,7.9687,8.0351,0.0,0.0,0.0,0.0,0.0,0.0,8.7265,8.7461,8.75,8.75,8.75,8.75,8.75,8.7422,8.6992,8.6211,8.5273,8.4375,8.3594,8.2734,8.2304,8.2304,8.2304,8.2304,8.2304,8.2304,8.2304,0.0,8.2304,8.2304,8.2304,8.2304,8.2304,8.2304,8.2304,8.2304,8.2304,0.0,0.0,0.0,0.0,0.0,0.0,5.6611,5.6585,5.6593,5.6595,5.66,5.6406,5.5859,5.582,5.582,5.582,0.0,0.0,0.0,0.0,0.0,0.0,0.0,0.0,0.0,0.0,5.4531,5.3984,5.3984,0.0,0.0,0.0,0.0,0.0,0.0,5.6094,5.6601,5.6601,0.0,0.0,0.0,0.0,0.0,0.0,0.0,0.0,0.0,0.0,6.3711,6.5117,6.6172,6.6953,6.7305,6.8008,6.9101,0.0,7.25,7.3359,7.4726,7.5742,7.6289,7.5781,7.6015,7.6172,7.5312,0.0,7.5039,7.4687,7.5273,7.5898,7.5898,7.6601,7.7187,7.7187,7.7187,7.7773,7.9453,7.9687,8.0351,0.0,0.0,0.0,0.0,0.0,8.5625,8.7383,8.75,8.75,8.75,8.75,8.75,8.75,8.75,8.7344,8.6992,8.6133,8.5234,8.4375,8.3515,8.2812,8.2304,8.2304,8.2304,8.2304,8.2304,8.2304,0.0,8.2304,8.2304,8.2304,8.2304,8.2304,8.2304,8.2304,8.2304,8.2304,0.0,0.0,0.0,0.0,0.0,5.6606,5.661,5.6585,5.6593,5.6595,5.6366,5.5976,5.5351,5.5078,5.4805,5.4531,5.4765,0.0,0.0,0.0,0.0,0.0,0.0,0.0,0.0,0.0,5.4609,5.3984,5.375,5.3633,0.0,0.0,0.0,0.0,0.0,0.0,0.0,0.0,0.0,0.0,0.0,0.0,0.0,0.0,0.0,0.0,0.0,0.0,0.0,0.0,0.0,6.6562,6.6836,6.7305,6.8203,7.0273,7.1406,7.2265,7.3515,7.4648,7.5351,7.4765,7.5078,7.5273,0.0,0.0,7.414,7.3867,7.4726,7.5508,7.5508,7.6445,7.7187,7.7187,7.7187,7.7773,7.9453,7.9687,8.0351,0.0,0.0,8.2969,0.0,8.5351,8.6172,8.7422,8.75,8.75,8.75,8.75,8.75,8.75,8.75,8.75,8.75,8.664,8.5898,8.5273,8.414,8.3281,8.2695,8.2422,8.2304,8.2304,8.2304,8.2304,0.0,8.2304,8.2304,8.2304,8.2304,8.2304,8.2304,8.2304,8.2304,8.2304,0.0,0.0,0.0,0.0,0.0,0.0,5.6619,5.6589,5.6594,5.6599,5.5859,5.5312,5.5312,5.4531,5.3672,5.2812,5.3516,0.0,0.0,0.0,0.0,0.0,0.0,0.0,0.0,0.0,5.4023,5.3984,5.3125,5.2695,5.2695,5.2695,5.3164,5.4023,0.0,0.0,0.0,0.0,0.0,0.0,0.0,0.0,5.9297,0.0,0.0,0.0,0.0,0.0,0.0,0.0,0.0,0.0,0.0,6.6914,6.7109,6.7969,7.0039,7.1992,7.2031,7.3281,7.4609,7.4609,7.4609,7.4375,0.0,7.332,7.3086,7.2187,7.3398,7.4609,7.4609,7.6015,7.7187,7.7187,7.7187,7.7773,7.9453,7.9687,8.0351,0.0,0.0,8.2969,8.4726,8.6445,8.7461,8.75,8.75,0.0,8.75,8.75,8.75,8.75,8.75,8.75,8.75,8.664,8.6211,8.6172,8.4414,8.3594,8.3554,8.2695,8.2304,8.2304,8.2304,8.2304,0.0,8.2304,8.2304,8.2304,8.2304,8.2304,8.2304,8.2304,8.2304,8.2304,0.0,0.0,0.0,0.0,0.0,0.0,0.0,5.6592,5.6403,5.5779,5.5468,5.4844,5.3633,5.3281,5.2773,5.1875,5.2617,0.0,0.0,0.0,0.0,0.0,0.0,0.0,0.0,0.0,5.4297,5.3125,5.3437,5.2969,5.1797,5.1797,5.2266,5.3125,5.3125,0.0,0.0,0.0,0.0,0.0,0.0,5.8437,5.9297,0.0,0.0,0.0,0.0,0.0,0.0,0.0,0.0,0.0,0.0,0.0,0.0,6.7226,6.8281,6.9648,7.0781,7.1953,7.2812,7.2812,7.3281,7.3476,7.2617,7.2422,7.2344,7.207,7.289,7.3906,7.4492,7.5547,7.6523,7.7109,7.7187,7.7773,7.9453,0.0,0.0,8.2109,8.3359,8.4297,0.0,0.0,8.75,8.75,8.75,8.75,8.75,8.75,8.75,8.75,8.75,8.75,8.75,8.7226,8.6797,8.6172,8.5039,8.4179,8.3554,8.2695,8.2304,8.2304,8.2304,8.2304,8.2304,8.2304,8.2304,8.2304,8.2304,8.2304,8.2304,8.2304,8.2304,8.2304,0.0,0.0,0.0,0.0,0.0,0.0,0.0,5.6323,5.5896,5.535,5.4726,5.3906,5.2812,5.2381,5.1949,5.1402,5.1824,0.0,0.0,0.0,0.0,0.0,0.0,0.0,5.2695,5.4101,5.4101,5.2695,5.3555,5.3125,5.1406,5.1406,5.168,5.2226,5.2226,5.3008,0.0,0.0,0.0,0.0,5.7187,5.8125,5.9258,0.0,0.0,0.0,0.0,0.0,0.0,0.0,0.0,0.0,0.0,0.0,0.0,0.0,6.7265,6.8008,6.9375,7.0625,7.1523,7.1523,7.2148,0.0,7.2109,7.1992,7.1992,7.1992,7.2695,7.3555,7.4453,7.5312,7.6172,7.707,7.7187,7.7773,7.9453,0.0,0.0,8.2109,0.0,0.0,0.0,8.6484,8.75,8.75,8.75,8.75,8.75,8.75,8.75,8.75,8.75,8.75,8.75,8.75,8.7226,8.6679,8.582,8.4922,8.4062,8.3203,8.2617,8.2304,8.2304,8.2304,0.0,8.2304,8.2304,8.2304,8.2304,8.2304,8.2304,8.2304,8.2304,8.2304,0.0,0.0,0.0,0.0,0.0,0.0,0.0,5.5857,5.5272,5.5234,5.375,5.2695,5.2617,5.1826,5.13,5.1297,0.0,0.0,0.0,0.0,0.0,0.0,0.0,0.0,5.2578,5.3476,5.3476,5.2617,5.3476,5.3047,5.1406,5.1406,5.1406,5.1406,5.1406,5.1914,0.0,0.0,0.0,0.0,5.6601,5.7656,0.0,0.0,0.0,0.0,0.0,0.0,0.0,0.0,0.0,0.0,0.0,0.0,0.0,0.0,0.0,0.0,0.0,6.9297,7.0547,7.0664,7.1328,7.1914,7.1992,7.1992,0.0,7.1992,7.2695,7.3555,7.4453,7.5312,7.6172,7.707,7.7148,7.7695,7.9453,7.9805,0.0,0.0,8.3828,0.0,8.4883,8.6484,8.75,8.75,8.75,8.75,8.75,8.75,8.75,8.75,8.75,8.75,8.75,8.75,8.75,8.75,8.6601,8.5742,8.4883,8.3984,8.3125,0.0,8.2304,8.2304,8.2304,8.2304,8.2304,8.2304,8.2304,8.2304,8.2304,8.2304,8.2304,8.2304,0.0,0.0,0.0,0.0,0.0,0.0,0.0,0.0,0.0,0.0,5.3359,5.2461,5.1797,5.1523,5.1361,0.0,0.0,0.0,0.0,0.0,0.0,0.0,0.0,0.0,5.1719,5.2578,5.2578,5.1719,5.2578,5.2461,5.1406,5.1406,5.1406,5.1406,5.1406,5.2266,0.0,0.0,0.0,0.0,5.6601,5.7656,0.0,0.0,0.0,0.0,5.9219,5.8633,0.0,0.0,0.0,0.0,0.0,0.0,0.0,0.0,6.6914,6.6953,6.7148,0.0,6.9101,7.039,7.0859,7.1172,0.0,7.1992,7.1992,7.1992,7.2695,7.3555,7.4453,7.5312,7.6172,7.707,7.664,7.7031,7.9375,0.0,0.0,8.2265,8.3828,8.4883,8.4883,8.6484,8.75,8.75,8.75,8.75,8.75,8.75,8.75,8.75,8.75,8.75,8.75,8.75,8.75,8.75,8.6601,8.5742,8.4883,8.3984,8.3125,8.2304,8.2304,8.2304,8.2304,8.2304,8.2304,8.2304,8.2304,8.2304,8.2304,8.2304,8.2304,8.2304,0.0,0.0,0.0,0.0,0.0,0.0,0.0,0.0,0.0,0.0,0.0,5.1914,5.1445,5.1365,0.0,0.0,0.0,0.0,0.0,0.0,0.0,0.0,0.0,5.1297,5.1406,5.2266,5.2266,5.1406,5.2266,5.2266,5.1406,5.1406,5.1406,5.1406,5.1406,5.2383,0.0,0.0,0.0,5.6601,5.6601,0.0,0.0,0.0,0.0,0.0,5.875,5.8047,0.0,5.8828,6.039,6.2109,0.0,0.0,0.0,0.0,6.6914,6.6914,6.6914,6.7539,6.8515,6.9765,7.039,7.0937,7.1797,7.1992,7.1992,7.1992,7.2695,7.3555,7.4453,7.5312,7.6172,7.707,7.6797,7.7265,0.0,0.0,8.2304,8.2304,8.3476,8.4453,0.0,8.6133,8.707,8.7461,8.75,8.75,8.75,8.75,8.75,8.75,8.75,8.75,8.75,8.75,8.75,8.75,8.7031,8.6328,8.5469,8.4609,8.3711,8.2851,8.2461,8.2304,8.2304,8.2304,8.2304,8.2304,8.2304,8.2304,8.2304,8.2304,8.2304,8.2304,0.0,0.0,0.0,0.0,0.0,0.0,0.0,0.0,0.0,0.0,0.0,0.0,0.0,0.0,0.0,0.0,0.0,0.0,0.0,0.0,0.0,0.0,5.1448,5.1395,5.1406,5.2266,5.2266,5.1406,5.2148,5.2109,5.1406,5.1406,5.1406,5.1406,5.1523,5.25,0.0,0.0,0.0,5.6601,5.6601,0.0,0.0,0.0,0.0,0.0,0.0,0.0,0.0,5.7617,5.9023,6.0703,6.2461,0.0,0.0,0.0,0.0,0.0,6.6914,6.7422,6.8242,6.918,6.9961,7.0781,7.1758,7.1992,7.2031,7.2187,7.289,7.375,7.4648,7.5508,7.6328,7.707,7.7422,0.0,7.9336,8.1133,8.2304,8.2304,8.3086,0.0,8.4804,8.5703,8.6562,8.7422,8.75,8.75,8.75,8.75,8.75,8.75,8.75,8.75,8.75,8.75,8.75,8.75,8.75,8.7031,8.6172,8.5312,8.4414,8.3554,0.0,0.0,8.2304,8.2304,8.2304,8.2304,8.2304,8.2304,8.2304,8.2304,8.2304,8.2304,0.0,0.0,0.0,0.0,0.0,0.0,0.0,0.0,0.0,0.0,0.0,0.0,0.0,0.0,0.0,0.0,0.0,0.0,0.0,0.0,0.0,5.235,5.2385,5.209,5.1406,5.2266,5.2266,5.1406,5.1523,5.1523,5.1406,5.1406,5.1406,5.1445,5.2187,5.3047,5.4062,5.4805,0.0,5.6601,5.6601,0.0,0.0,0.0,0.0,0.0,0.0,0.0,0.0,5.7617,5.9023,6.0703,6.2461,0.0,0.0,0.0,0.0,0.0,6.6914,6.6992,6.7461,6.9101,6.9609,7.0078,7.164,7.1992,7.2226,7.2969,7.3789,7.4687,7.5547,7.6406,7.7031,7.7187,0.0,7.918,0.0,0.0,8.2304,8.2304,0.0,8.3945,8.4804,8.5703,8.6562,8.7422,8.75,8.75,8.75,8.75,8.75,8.75,8.75,8.75,8.75,8.75,8.75,8.75,8.75,8.7031,8.6172,8.5312,8.4414,8.3554,0.0,8.2304,8.2304,8.2304,8.2304,8.2304,8.2304,8.2304,8.2304,8.2304,8.2304,8.2304,0.0,0.0,0.0,0.0,0.0,0.0,0.0,0.0,0.0,0.0,0.0,0.0,0.0,0.0,0.0,0.0,0.0,0.0,0.0,0.0,5.2653,5.2649,5.3118,5.2965,5.2109,5.2031,5.1797,5.1406,5.1406,5.1406,5.1406,5.1406,5.1641,5.2109,5.2539,5.3437,5.4726,5.5117,5.5781,5.6601,0.0,0.0,0.0,0.0,0.0,0.0,0.0,0.0,0.0,0.0,5.8008,5.9336,6.1055,0.0,0.0,0.0,0.0,0.0,6.6914,6.6914,6.7305,6.9062,6.9492,6.9922,7.1601,7.1992,7.2265,7.3125,7.3984,7.4883,7.5742,7.6601,7.7187,7.7187,0.0,7.957,7.9219,8.0976,8.2304,0.0,0.0,8.3242,8.4101,8.457,8.5351,8.6719,8.6797,8.6992,8.7461,8.75,8.75,8.75,8.75,8.75,8.75,8.75,8.75,8.75,8.75,8.7304,8.6875,8.5508,8.4687,8.4219,0.0,8.2304,8.2304,8.2304,8.2304,8.2304,8.2304,8.2304,8.2304,8.2304,8.2304,8.2304,0.0,0.0,0.0,0.0,0.0,0.0,0.0,0.0,0.0,0.0,0.0,0.0,0.0,0.0,0.0,0.0,0.0,0.0,0.0,5.3274,5.3351,5.2734,5.3125,5.3086,5.2422,5.1953,5.1601,5.1406,5.1406,5.1406,5.1406,5.1601,5.207,5.2734,5.3125,5.4062,5.5312,5.5508,5.5976,5.6601,0.0,0.0,0.0,0.0,0.0,0.0,0.0,0.0,0.0,0.0,0.0,0.0,0.0,0.0,0.0,6.5078,6.6211,6.6914,6.6914,6.6914,6.7305,6.9062,6.9492,6.9922,7.1601,7.2148,7.2539,7.3437,7.4297,7.5156,7.6055,7.6758,7.7187,7.7187,7.8594,7.9687,7.9687,8.1171,8.2263,8.2263,8.2219,8.257,8.3473,8.3552,8.4217,8.5781,8.6094,8.6484,8.7148,8.7383,8.75,8.75,8.75,8.75,8.75,8.75,8.75,8.75,8.75,8.75,8.7422,8.5703,8.4883,8.4804,8.3047,8.2304,8.2304,8.2304,8.2304,8.2304,8.2304,8.2304,8.2304,8.2304,8.2304,8.2304,0.0,0.0,0.0,0.0,0.0,0.0,0.0,0.0,0.0,0.0,0.0,0.0,0.0,0.0,0.0,0.0,0.0,0.0,0.0,5.2734,5.2773,5.2695,5.1992,5.1562,5.1484,5.2226,5.2226,5.1406,5.1406,5.1406,5.1406,5.2226,5.2656,5.2773,5.4375,5.5195,5.5351,5.6172,5.6523,5.6601,5.6601,0.0,0.0,0.0,0.0,0.0,0.0,0.0,0.0,0.0,0.0,0.0,0.0,0.0,6.3359,6.5078,6.6211,6.6914,6.6914,6.6914,6.7305,6.9062,6.9453,6.9844,7.1601,7.2617,7.3437,7.4336,7.5195,7.6055,7.6953,7.7148,7.7187,7.7187,7.8594,7.9687,7.9687,0.0,8.2104,8.2104,8.2001,8.2333,8.331,8.3394,8.3845,8.4922,8.5742,8.6211,8.6289,8.707,8.75,8.75,8.75,8.75,8.75,8.75,8.75,8.75,8.75,8.75,8.7422,8.5703,8.4883,8.4804,8.3047,8.2304,8.2304,8.2304,8.2304,8.2304,8.2304,8.2304,8.2304,8.2304,8.2304,8.2304,0.0,0.0,0.0,0.0,0.0,0.0,0.0,0.0,0.0,0.0,0.0,0.0,0.0,0.0,0.0,0.0,0.0,0.0,0.0,5.3516,5.3281,5.2734,5.2383,5.1953,5.1406,5.1719,5.1719,5.1406,5.1406,5.168,5.2226,5.2539,5.3281,5.4336,5.5,5.5586,5.6133,5.6445,5.6601,5.6601,5.6601,5.6601,0.0,0.0,0.0,0.0,0.0,0.0,0.0,0.0,5.6836,5.7383,5.9101,6.082,6.2539,6.4297,6.5781,6.6914,6.6914,6.7222,6.7878,6.914,7.0152,7.1238,7.2539,7.3047,7.3711,7.5117,7.5664,7.6172,7.7031,7.7143,7.7091,7.7091,7.8432,7.9496,7.9496,8.0911,8.1977,8.1977,8.1939,8.2047,8.2443,8.2538,8.2968,8.3885,8.4333,8.4804,8.5351,8.6211,8.6679,8.6679,8.7226,8.75,8.75,8.75,8.75,8.75,8.75,8.75,8.7461,8.625,8.539,8.4844,8.3633,8.2812,8.2304,8.2304,8.2304,8.2304,8.2304,8.2304,8.2304,8.2304,8.2304,8.2304,0.0,0.0,0.0,0.0,0.0,0.0,0.0,0.0,0.0,0.0,0.0,0.0,0.0,0.0,0.0,0.0,0.0,0.0,5.3633,5.3594,5.3203,5.2344,5.2305,5.1992,5.1406,5.1406,5.1406,5.1406,5.168,5.2109,5.2695,5.3242,5.4141,5.5312,5.5586,5.6055,5.6601,5.6601,5.6601,5.6601,5.6601,5.6601,0.0,0.0,0.0,0.0,0.0,0.0,0.0,0.0,5.6601,5.6914,5.8633,6.0351,6.2031,6.3789,6.5507,6.6832,6.6832,6.7403,6.8208,6.9133,7.0614,7.217,7.3352,7.3905,7.4453,7.5582,7.605,7.6438,7.6975,7.7037,0.0,0.0,7.8338,7.9418,7.9418,8.0822,8.1842,8.1842,8.1797,8.1785,8.1838,8.1964,8.2306,8.2955,8.3342,8.3784,8.4409,8.5221,8.5801,8.6073,8.666,8.7088,8.7323,8.7323,8.7323,8.7323,8.7323,8.7413,8.7461,8.6601,8.5703,8.4844,8.3943,8.3042,8.2221,8.2172,8.2168,8.2168,8.2168,8.2168,8.2168,8.2168,8.2168,8.2168,0.0,0.0,0.0,0.0,0.0,0.0,0.0,0.0,0.0,0.0,0.0,0.0,0.0,0.0,0.0,0.0,0.0,0.0,5.2812,5.2695,5.2305,5.1445,5.1406,5.1406,5.1406,5.1406,5.1406,5.1406,5.2266,5.2695,5.2773,5.4492,5.5312,5.5351,5.6211,5.6601,5.6601,5.6601,5.6601,5.6601,5.6601,5.6601,5.6601,0.0,0.0,0.0,0.0,0.0,0.0,0.0,5.6601,5.6914,5.8672,6.0351,6.2031,6.3789,6.546,6.6718,6.6718,6.7343,6.8203,6.9063,7.0654,7.2459,7.4027,7.5184,7.5858,7.5746,7.6397,7.6961,7.6824,7.6891,0.0,7.6822,7.8243,7.9376,7.9415,8.0723,8.1694,8.1694,8.1575,8.1562,8.1675,8.182,8.1959,8.209,8.2916,8.3386,8.3386,8.4088,8.4883,8.5734,8.5773,8.616,8.6975,8.6975,8.6975,8.7014,8.7014,8.7174,8.7461,8.6601,8.5742,8.4843,8.3841,8.2916,8.209,8.1961,8.1912,8.1912,8.1912,8.1912,8.1912,8.1912,8.1912,8.1912,0.0,0.0,0.0,0.0,0.0,0.0,0.0,0.0,0.0,0.0,0.0,0.0,0.0,0.0,0.0,0.0,0.0,0.0,5.2734,5.2148,5.168,5.1406,5.1406,5.1406,5.1406,5.1992,5.2305,5.2305,5.2578,5.332,5.4531,5.5078,5.5625,5.6211,5.6484,5.6601,5.6601,5.6601,5.6601,5.6601,5.6601,5.6601,5.6601,0.0,0.0,0.0,0.0,0.0,0.0,0.0,0.0,0.0,5.9336,6.082,6.2148,6.4531,6.5976,6.6832,6.6832,6.7809,6.8873,6.9204,7.1415,7.3603,7.4153,7.5126,7.6053,7.6527,7.6745,7.6846,7.681,7.6758,0.0,7.6653,7.7514,7.8432,7.9047,7.9997,8.0882,8.1496,8.1508,8.1528,8.1567,8.1665,8.1765,8.1816,8.2149,8.2357,8.2357,8.3145,8.3711,8.3942,8.4569,8.5309,8.616,8.616,8.6433,8.7014,8.7014,8.7055,8.7121,8.6887,8.63,8.5398,8.4551,8.3677,8.2814,8.2158,8.1912,8.1912,8.1912,8.1912,8.1912,8.1912,8.1912,8.1912,0.0,0.0,0.0,0.0,0.0,0.0,0.0,0.0,0.0,0.0,5.5781,5.5351,0.0,0.0,0.0,0.0,0.0,0.0,0.0,5.168,5.1406,5.1406,5.1406,5.1562,5.1914,5.2422,5.3047,5.3711,5.3711,5.4258,5.5312,5.5664,5.6094,5.6601,5.6601,5.6601,5.6601,5.6601,5.6601,5.6601,5.6601,5.6601,5.6601,0.0,0.0,0.0,0.0,0.0,0.0,0.0,0.0,0.0,5.9609,6.1015,6.2187,6.4761,6.6118,6.6845,6.7134,6.8103,6.9107,6.9533,7.1932,7.4329,7.5072,7.5703,7.6285,7.6737,7.678,7.6703,7.6638,7.6631,0.0,7.6541,7.7191,7.7867,7.8409,7.9453,8.0376,8.0917,8.1304,8.1497,8.1497,8.1607,8.1698,8.1698,8.1765,8.1823,8.1823,8.2266,8.2699,8.3049,8.3559,8.4259,8.5109,8.5459,8.5844,8.6344,8.6694,8.685,8.6854,8.6957,8.6504,8.564,8.4415,8.3571,8.2958,8.2107,8.1757,8.1757,8.1757,8.1757,8.1757,8.1757,8.1757,8.1757,0.0,0.0,0.0,0.0,0.0,0.0,0.0,0.0,0.0,0.0,5.4492,5.3984,0.0,0.0,0.0,0.0,0.0,0.0,0.0,5.1406,5.1406,5.1406,5.1484,5.1875,5.2695,5.2851,5.3711,5.5312,5.5312,5.5351,5.543,5.6211,5.6601,5.6601,5.6601,5.6601,5.6601,5.6601,5.6601,5.6601,5.6601,5.6601,5.6601,5.6601,0.0,0.0,0.0,0.0,0.0,0.0,0.0,0.0,5.9726,6.1133,6.2304,6.4778,6.6048,6.6777,6.7497,6.8299,6.9107,6.9966,7.2203,7.4622,7.6378,7.6657,7.6578,7.66,7.6591,7.6526,7.6405,7.6496,7.6522,7.6438,7.7061,7.7597,7.7674,7.9028,8.0027,8.0182,8.0917,8.142,8.1497,8.163,8.167,8.167,8.167,8.167,8.167,8.1585,8.1845,8.267,8.267,8.3096,8.3979,8.4714,8.5101,8.5217,8.6068,8.6487,8.6507,8.6825,8.6501,8.5556,8.3921,8.3065,8.2748,8.1968,8.1575,8.1497,8.1497,8.1491,8.1491,8.1491,8.1485,8.1478,0.0,0.0,0.0,0.0,0.0,0.0,0.0,0.0,0.0,0.0,0.0,0.0,0.0,0.0,0.0,0.0,0.0,0.0,0.0,5.1406,5.1406,5.1406,5.207,5.25,5.2695,5.4023,5.4922,5.5312,5.5312,5.5664,5.6328,5.6523,5.6601,5.6601,5.6601,5.6601,5.6601,5.6601,5.6601,5.6601,5.6601,5.6601,5.6601,5.6601,5.6601,0.0,0.0,0.0,0.0,0.0,0.0,0.0,6.0625,6.2031,6.3202,6.5677,6.6553,6.6839,6.7598,6.8281,6.905,6.9904,7.2037,7.433,7.6077,7.6438,7.6394,7.6564,7.6521,7.6422,7.6415,7.6405,7.6422,7.6409,7.6558,7.6906,7.7597,7.8022,7.8718,8.0034,8.0376,8.0762,8.142,8.1508,8.1544,8.1544,8.1544,8.1544,8.1544,8.1528,8.1575,8.1768,8.1768,8.22,8.3057,8.3251,8.367,8.4366,8.5178,8.5565,8.5604,8.6344,8.6198,8.534,8.4976,8.403,8.2786,8.2593,8.2122,8.1497,8.1497,8.1466,8.142,8.142,8.138,8.1333,0.0,0.0,0.0,0.0,0.0,0.0,0.0,0.0,0.0,0.0,0.0,0.0,0.0,0.0,0.0,0.0,0.0,0.0,0.0,0.0,5.1601,5.1992,5.2461,5.3086,5.3945,5.4844,5.5508,5.5937,5.5937,5.6133,5.6601,5.6601,5.6601,5.6601,5.6601,5.6601,5.6601,5.6601,5.6601,5.6601,5.6601,5.6601,5.6601,5.6601,5.6601,5.6601,5.6601,0.0,0.0,0.0,0.0,0.0,0.0,0.0,6.3475,6.5918,6.6668,6.6796,6.7472,6.8196,6.9231,7.1296,7.2788,7.4217,7.5915,7.6276,7.6262,7.6383,7.6382,7.6362,7.6397,7.6403,7.6392,7.6362,7.6356,7.6511,7.6974,7.74,7.7986,7.8906,7.9724,8.0376,8.084,8.1265,8.1497,8.1497,8.1497,8.1497,8.1497,8.1466,8.1446,8.1446,8.1446,8.1665,8.2064,8.2529,8.2947,8.3378,8.4189,8.4807,8.5232,8.6189,8.6332,8.5907,8.5455,8.4745,8.3888,8.3043,8.2444,8.198,8.1555,8.138,8.1347,8.1347,8.1319,8.1284,0.0,0.0,0.0,0.0,0.0,0.0,0.0,0.0,0.0,0.0,0.0,0.0,0.0,0.0,0.0,0.0,0.0,0.0,0.0,0.0,0.0,5.2891,5.3086,5.3828,5.5273,5.5469,5.5898,5.6601,5.6601,5.6601,5.6601,5.6601,5.6601,5.6601,5.6601,5.6601,5.6601,5.6601,5.6601,5.6601,5.6601,5.6601,5.6601,5.6758,0.0,5.6836,5.6992,5.7031,5.7148,5.789,0.0,0.0,0.0,0.0,6.3865,6.6003,6.6607,6.6741,6.7341,6.8214,6.9699,7.2874,7.3671,7.4134,7.5806,7.6185,7.6179,7.6192,7.6244,7.6301,7.6356,7.6368,7.635,7.6295,7.6282,7.6282,7.6282,7.69,7.7428,7.7638,7.8881,7.9842,8.0151,8.0808,8.1311,8.1466,8.1466,8.1466,8.1466,8.1407,8.138,8.138,8.138,8.1347,8.1284,8.2048,8.2435,8.241,8.3189,8.4038,8.4925,8.5896,8.6415,8.6531,8.5734,8.5327,8.5088,8.3635,8.2873,8.2526,8.1831,8.1431,8.127,8.127,8.1263,8.1287,0.0,0.0,0.0,0.0,0.0,0.0,0.0,0.0,0.0,0.0,0.0,0.0,0.0,0.0,0.0,0.0,0.0,0.0,0.0,0.0,0.0,5.3828,5.4531,5.5078,5.5273,5.6055,5.6484,5.6601,5.6601,5.6601,5.6601,5.6601,5.6601,5.6601,5.6601,5.6601,5.6601,5.6601,5.6601,5.6601,5.6601,5.6601,5.668,5.7422,0.0,5.7812,5.8594,5.8867,5.8867,5.8984,6.0,0.0,0.0,0.0,6.5429,6.6412,6.666,6.6758,6.7491,6.8684,7.0367,7.2964,7.3599,7.4082,7.5793,7.6152,7.6125,0.0,7.6198,7.6212,7.6225,7.6225,7.6218,7.6212,7.6205,7.6205,7.6205,7.6327,7.6681,7.7428,7.7704,7.8431,7.9891,8.0123,8.0509,8.128,8.1319,8.1319,8.1319,8.1305,8.1305,8.1305,8.1305,8.1298,8.1284,8.1414,8.1491,8.1477,8.2333,8.3182,8.3999,8.4901,8.5719,8.6414,8.6283,8.582,8.5087,8.4841,8.3915,8.2603,8.2487,8.1943,8.1229,8.1229,8.1184,8.1124,0.0,0.0,0.0,0.0,0.0,0.0,0.0,0.0,0.0,0.0,0.0,0.0,0.0,0.0,0.0,0.0,0.0,0.0,0.0,0.0,0.0,5.4726,5.5117,5.5547,5.6015,5.6406,5.6601,5.6601,5.6601,5.6601,5.6601,5.6601,5.6601,5.6601,5.6601,5.6601,5.664,5.7109,5.7344,5.7422,5.8359,5.8711,5.8828,0.0,0.0,0.0,0.0,0.0,6.0664,6.1172,6.1836,6.2656,6.4023,0.0,0.0,0.0,6.6668,6.6816,6.7913,6.8674,6.9764,7.2204,7.3178,7.3878,7.5068,7.5702,7.6041,7.6069,7.6076,7.6097,7.6179,7.6192,7.6185,7.6145,7.6138,7.6138,7.6138,7.6138,7.6313,7.6739,7.7208,7.7787,7.852,7.9439,8.0165,8.0551,8.1014,8.1284,8.1284,8.1249,8.1227,8.1227,8.1227,8.1244,8.1199,8.1244,8.1244,8.1199,8.2047,8.2625,8.2979,8.3865,8.4797,8.5682,8.6107,8.6084,8.5699,8.5183,8.4543,8.3772,8.2817,8.2178,8.1762,8.1301,8.1124,8.1093,0.0,0.0,0.0,0.0,0.0,0.0,0.0,0.0,0.0,0.0,0.0,0.0,0.0,0.0,0.0,0.0,0.0,0.0,0.0,0.0,0.0,5.5586,5.5625,5.5937,5.6601,5.6601,5.6601,5.6601,5.6601,5.6601,5.6601,5.6836,5.6914,5.6914,5.6914,5.6914,5.6992,5.8086,5.8555,5.8672,6.0156,6.0742,0.0,0.0,0.0,0.0,0.0,0.0,0.0,0.0,0.0,0.0,6.5195,6.5742,0.0,0.0,0.0,6.6795,6.7982,6.8449,6.9146,7.1344,7.2528,7.3437,7.4469,7.5207,7.5745,7.5938,7.6015,7.6012,7.6118,7.6138,7.6125,7.6076,7.6062,7.6062,7.6062,7.6062,7.6083,7.6131,7.673,7.7193,7.7424,7.8574,7.9499,7.9916,8.0533,8.1034,8.1234,8.1214,8.1184,8.1184,8.1184,8.1154,8.1093,8.1154,8.1154,8.1093,8.1708,8.2016,8.2016,8.287,8.3664,8.4427,8.5452,8.5998,8.6106,8.5464,8.5085,8.4739,8.3208,8.2516,8.2208,8.14,8.1093,8.1093,0.0,0.0,0.0,0.0,0.0,0.0,0.0,0.0,0.0,0.0,0.0,0.0,5.3867,5.3906,5.3945,5.3945,0.0,0.0,0.0,0.0,0.0,5.6523,5.6523,0.0,5.6601,5.6601,5.6601,5.6601,5.6601,5.6601,5.6601,5.7461,5.7812,5.7812,5.7812,5.7812,5.793,5.957,6.0273,6.0351,0.0,0.0,0.0,0.0,0.0,0.0,0.0,0.0,0.0,0.0,0.0,0.0,0.0,0.0,0.0,0.0,0.0,0.0,6.7253,6.8021,6.8998,7.0664,7.1684,7.2668,7.4315,7.4738,7.5007,7.5822,7.6015,7.6015,7.6022,7.6029,7.6022,7.6022,7.6022,7.6022,7.6022,7.6022,7.6022,7.6029,7.6068,7.6414,7.7222,7.7376,7.8107,7.9677,7.9831,8.0254,8.107,8.11,8.11,8.11,8.11,8.1093,8.1093,8.1093,8.1093,8.1093,8.1131,8.117,8.1208,8.2016,8.2408,8.2532,8.4217,8.5401,8.6094,8.6055,8.5593,8.4816,8.3901,8.3024,8.2208,8.14,8.1093,8.1093,0.0,0.0,0.0,0.0,0.0,0.0,0.0,0.0,0.0,0.0,0.0,0.0,0.0,5.4492,5.4844,5.4844,5.5351,0.0,0.0,0.0,0.0,5.6601,5.6601,5.6601,5.6601,5.6601,5.6601,5.6601,5.7148,5.7381,5.7329,5.828,5.8982,5.9439,5.8944,5.9023,5.957,6.0694,0.0,0.0,0.0,0.0,0.0,0.0,0.0,0.0,0.0,0.0,0.0,0.0,0.0,0.0,0.0,0.0,0.0,0.0,0.0,6.6535,6.7219,6.8011,6.8936,6.999,7.1255,7.2422,7.299,7.3937,7.4776,7.5091,7.563,7.6015,7.6015,7.6015,7.6015,7.6015,7.6015,7.6015,7.6015,7.6015,7.6015,7.6015,7.6015,7.613,7.6438,7.6984,7.7561,7.813,7.9208,7.9931,8.0246,8.0785,8.1093,8.1093,8.1093,8.1093,8.1093,8.1093,8.1093,8.1093,8.1093,8.1093,8.1093,8.14,8.1823,8.2324,8.2978,8.4016,8.5316,8.5316,8.5478,8.5593,8.4747,8.3901,8.3024,8.217,8.1554,8.1093,0.0,0.0,0.0,0.0,0.0,0.0,0.0,0.0,0.0,5.4453,0.0,0.0,0.0,0.0,5.5742,5.5742,5.6289,5.6601,5.6601,5.6875,5.7031,5.7031,5.7305,5.7461,5.7461,5.7187,5.7187,5.7461,5.7693,5.7961,5.8225,5.9396,6.0209,6.0743,6.0795,6.0963,6.1322,0.0,0.0,6.3826,0.0,0.0,6.5808,0.0,0.0,0.0,0.0,0.0,0.0,0.0,0.0,0.0,0.0,0.0,0.0,0.0,0.0,0.0,6.6871,0.0,6.8436,6.9242,7.0459,7.1608,7.21,7.3074,7.4014,7.4584,7.5168,7.5668,7.5938,7.6015,7.6015,7.6015,7.6015,7.6015,7.6015,7.6015,7.6015,7.6015,7.6015,7.6015,7.6015,7.6515,7.6984,7.7292,7.8323,7.9208,7.9777,8.0362,8.0785,8.1093,8.1093,8.1093,8.1093,8.1093,8.1093,8.1093,8.1093,8.1093,8.1093,8.1093,8.14,8.19,8.19,8.2862,8.4478,8.4786,8.5201,8.5632,8.5132,8.4555,8.3901,8.2708,8.1939,8.1477,0.0,0.0,0.0,0.0,0.0,0.0,0.0,0.0,5.5351,5.5351,0.0,0.0,0.0,0.0,0.0,5.668,5.668,5.668,5.668,5.7461,5.793,5.793,0.0,0.0,5.9219,5.8359,5.8359,5.9219,5.8263,5.8302,5.9296,6.0779,6.1564,6.1785,6.3345,6.3631,6.3112,0.0,6.5294,6.5411,0.0,6.6582,6.6582,0.0,0.0,0.0,6.666,6.6663,0.0,0.0,0.0,0.0,0.0,0.0,0.0,0.0,0.0,0.0,0.0,0.0,0.0,0.0,6.9248,7.0234,7.1891,7.2223,7.2675,7.4284,7.4661,7.4969,7.5822,7.5976,7.6015,7.6015,7.6015,7.6015,7.6015,7.6015,7.6015,7.6015,7.6015,7.6015,7.6015,7.6015,7.6361,7.7215,7.7292,7.8015,7.9623,7.9777,8.0208,8.1054,8.1093,8.1093,8.1093,8.1093,8.1093,8.1093,8.1093,8.1093,8.1093,8.1093,8.1093,8.1093,8.1093,8.2016,8.3601,8.4478,8.4854,8.4893,8.4893,8.4893,8.47,8.3016,8.2324,8.217,0.0,0.0,0.0,0.0,0.0,0.0,5.5937,5.6094,5.6484,0.0,0.0,0.0,5.8398,5.8476,5.8476,5.8476,5.8476,5.8476,5.8476,5.8711,5.8828,5.8828,5.9062,5.9219,5.9219,5.8859,5.8858,5.9219,5.9983,6.0516,6.0849,6.2515,6.3595,6.4133,6.4594,6.5025,6.5414,6.5216,0.0,6.609,6.6247,6.6312,0.0,0.0,0.0,0.0,0.0,6.7808,6.7308,0.0,6.6948,6.6504,0.0,0.0,0.0,0.0,0.0,0.0,6.6185,0.0,0.0,0.0,0.0,0.0,7.114,7.1839,7.239,7.2797,7.386,7.4776,7.5007,7.5553,7.6015,7.6015,7.6015,7.6015,7.6015,7.6015,7.6015,7.6015,7.6015,7.6015,7.6015,7.6015,7.6092,0.0,7.6938,7.7484,7.7977,7.9131,8.0208,8.1054,8.1093,8.1093,8.1093,8.1093,8.1093,8.1093,8.1093,8.1093,8.1093,8.1093,8.1093,8.1093,8.1093,8.1362,8.1862,8.267,8.3747,8.4893,8.4893,8.4893,8.4854,8.4354,8.3362,8.2285,0.0,0.0,0.0,0.0,0.0,5.7695,5.7695,5.7695,5.7851,0.0,0.0,0.0,5.9609,6.0039,6.0234,6.0234,6.0234,6.0234,6.0234,6.0586,6.0781,6.0781,6.1133,6.1328,6.1328,6.0882,6.0833,6.1242,6.1669,6.2052,6.2525,6.3826,6.4658,6.5102,6.5415,0.0,0.0,0.0,0.0,0.0,6.6235,0.0,0.0,6.7307,6.7717,0.0,0.0,0.0,6.8065,6.8041,6.7505,0.0,0.0,0.0,0.0,0.0,0.0,0.0,0.0,0.0,0.0,0.0,0.0,0.0,7.0367,7.1159,7.1839,0.0,7.2997,7.386,7.4584,7.513,7.5592,7.5938,7.6015,7.6015,7.6015,7.6015,7.6015,7.6015,7.6015,7.6015,7.6015,7.6015,7.6015,7.6015,7.6476,7.6907,7.7292,7.89,8.0046,8.0554,8.09,8.1093,8.1093,8.1093,8.1093,8.1093,8.1093,8.1093,8.1093,8.1093,8.1093,8.1093,8.1093,8.1093,8.1131,8.1593,8.2593,8.3862,8.4209,8.4593,8.4854,8.4478,8.3939,8.3324,0.0,0.0,5.8047,5.8047,5.875,5.9336,5.9336,5.9414,5.9492,0.0,5.9726,6.0039,6.0742,6.1523,6.1992,6.1992,6.1992,6.1992,6.1992,6.2695,6.3125,6.3124,6.3867,6.4257,6.4256,6.3445,6.3378,6.409,6.3193,6.3238,6.414,6.4804,6.5155,6.5254,6.5915,0.0,0.0,0.0,0.0,6.633,6.634,6.6799,0.0,0.0,6.8226,6.8828,6.8944,6.8905,6.8811,6.8642,6.812,0.0,0.0,0.0,0.0,0.0,6.6258,0.0,0.0,0.0,0.0,0.0,0.0,0.0,6.9843,7.0559,7.1242,0.0,7.2184,7.2675,7.4168,7.4507,7.4853,7.5707,7.5861,7.5899,7.5976,7.6015,7.6015,7.6015,7.6015,7.6015,7.6015,7.6015,7.6015,7.6015,7.6015,7.6361,7.7253,7.8707,7.9623,7.9777,8.0554,8.1016,8.1093,8.1093,8.1093,8.1093,8.1093,8.1093,8.1093,8.1093,8.1093,8.1093,8.1093,8.1093,8.1093,8.1093,8.1554,8.2362,8.3139,8.4055,8.4816,8.4016,8.4247,8.4786,0.0,0.0,5.8945,5.8945,5.9609,6.0156,6.0156,6.0742,6.1445,6.2187,6.2851,6.3359,6.3515,6.3672,6.3789,6.3789,6.3789,6.3789,6.3789,6.3945,6.3982,6.388,6.4036,6.4094,6.407,6.3773,6.3759,6.4001,6.4365,6.4632,6.4899,6.5634,6.5973,6.6008,6.6128,6.6185,6.6185,0.0,0.0,6.7161,6.7209,0.0,6.7581,6.8933,6.9511,6.9767,7.0385,7.02,6.9495,0.0,6.841,6.8318,0.0,0.0,0.0,0.0,0.0,0.0,0.0,0.0,0.0,0.0,0.0,0.0,7.0633,7.1026,7.1107,0.0,7.1761,7.229,7.2629,7.3245,7.4007,7.4815,7.493,7.5207,7.5899,7.6015,7.6015,7.6015,7.6015,7.6015,7.6015,7.6015,7.6015,7.6015,7.6015,7.6361,7.7253,7.7599,7.84,7.9738,7.9969,8.04,8.1093,8.1093,8.1093,8.1093,8.1093,8.1093,8.1093,8.1093,8.1093,8.1093,8.1093,8.1093,8.1093,8.1093,8.1554,8.2324,8.2477,8.3516,8.4893,8.4709,8.4739,8.4901,0.0,6.0469,6.0586,6.1015,6.1445,6.1836,6.2265,6.2734,6.3164,6.3594,6.4414,6.4961,6.4961,6.5351,6.5585,6.5499,6.5498,6.549,6.5468,6.5465,6.5414,6.5338,6.5336,6.5314,6.5302,6.5181,6.5139,6.5207,6.5476,6.5621,6.5665,6.6037,6.617,6.6144,6.6175,6.6402,6.6801,0.0,6.7325,6.8072,6.7646,0.0,6.8723,6.9573,7.0421,7.1215,7.1601,7.1422,7.0882,7.0029,6.9483,0.0,0.0,6.8654,6.7994,0.0,6.7785,6.7426,0.0,0.0,0.0,6.8578,0.0,0.0,0.0,7.0892,7.1142,7.1112,7.1371,7.1722,7.2184,7.258,7.3129,7.3969,7.4084,7.4392,7.5245,7.5745,7.6015,7.6015,7.6015,7.6015,7.6015,7.6015,7.6015,7.6015,7.6015,7.6207,7.663,7.7061,7.7861,7.9092,7.9592,8.0208,8.1093,8.1093,8.1093,8.1093,8.1093,8.1093,8.1093,8.1093,8.1093,8.1093,8.1093,8.1093,8.1093,8.1093,8.1323,8.1708,8.1708,8.2477,8.367,8.4093,8.4516,8.497,0.0,0.0,6.2422,6.3125,6.3398,6.375,6.4453,6.4687,6.4804,6.4764,6.5389,6.5818,6.5775,6.6439,6.6782,6.6663,6.6657,6.6631,6.659,6.6585,6.6577,6.656,6.656,6.6549,6.6525,6.6411,6.6341,6.6341,6.6269,6.6185,6.6185,6.6185,6.6155,6.6102,6.6343,6.6801,6.7415,0.0,0.0,6.8966,0.0,6.8944,7.0152,7.0328,7.1329,7.2624,7.2611,7.2532,7.2336,7.171,0.0,7.0348,7.0317,6.9672,0.0,0.0,0.0,0.0,0.0,0.0,0.0,0.0,0.0,7.0059,0.0,0.0,0.0,7.1207,7.1112,0.0,0.0,0.0,0.0,7.2668,0.0,0.0,0.0,7.4861,0.0,7.5976,7.6015,7.6015,7.6015,7.6015,7.6015,7.6015,7.6015,7.6015,7.6015,7.6669,7.7407,7.8253,7.9092,7.9977,8.0823,8.1016,8.1093,8.1093,8.1093,8.1093,8.1093,8.1093,8.1093,8.1093,8.1093,8.1093,8.1093,8.1093,8.1093,8.1093,8.1093,8.1593,8.2401,8.3101,8.4016,8.497,6.414,6.3984,0.0,6.414,6.4805,6.5351,6.543,6.6094,6.656,6.6459,6.6492,6.6551,6.6482,0.0,0.0,0.0,0.0,0.0,6.6521,0.0,0.0,6.6422,6.6418,6.6388,6.6259,6.6235,6.622,6.622,6.6195,6.6185,6.6185,6.6185,6.6155,6.6135,6.6918,6.7305,6.7448,0.0,6.9009,0.0,7.0456,7.0839,0.0,7.1831,7.2694,7.3477,7.3402,7.3367,7.3367,0.0,7.2745,7.2039,0.0,7.1035,6.9713,0.0,0.0,0.0,0.0,0.0,0.0,0.0,6.9943,0.0,0.0,0.0,7.1207,7.1207,0.0,0.0,0.0,0.0,0.0,0.0,0.0,0.0,7.1437,7.2738,7.4353,7.5822,7.6015,7.6015,7.6015,7.6015,7.6015,7.6015,7.6015,7.6015,7.6015,7.6092,7.6553,7.7407,7.8215,7.9054,7.9931,8.0708,8.1093,8.1093,8.1093,8.1093,8.1093,8.1093,8.1093,8.1093,8.1093,8.1093,8.1093,8.1093,8.1093,8.1093,8.1093,8.1593,8.2324,8.2401,8.3478,8.4893,6.5898,6.582,0.0,6.582,6.6094,6.6327,6.6239,6.6918,6.7393,6.736,6.7783,6.8078,0.0,0.0,0.0,0.0,0.0,6.7091,0.0,0.0,0.0,0.0,6.7318,0.0,6.6959,6.6456,6.6185,6.6185,6.6185,6.6441,6.6907,6.6907,6.7145,6.7552,6.7938,6.8363,6.8915,0.0,7.0625,0.0,0.0,0.0,0.0,7.3157,7.3606,7.4304,7.4228,7.4199,7.413,0.0,7.3348,0.0,0.0,0.0,0.0,0.0,0.0,0.0,0.0,0.0,0.0,0.0,0.0,0.0,7.1209,0.0,7.1258,0.0,0.0,0.0,0.0,0.0,0.0,0.0,7.0975,0.0,0.0,0.0,7.336,0.0,0.0,0.0,7.5938,7.6015,7.6015,7.6015,7.6015,7.6015,7.6015,7.6015,7.6399,7.7292,7.8099,7.89,7.9777,8.0669,8.1093,8.1093,8.1093,8.1093,8.1093,8.1093,8.1093,8.1093,8.1093,8.1093,8.1093,8.1093,8.1093,8.1093,8.1093,8.1323,8.167,8.2131,8.2747,8.3555,6.7575,0.0,0.0,0.0,6.7184,6.7255,6.7325,6.7807,6.8138,6.8104,0.0,0.0,6.9016,6.9003,0.0,0.0,6.7847,6.7812,0.0,0.0,6.8022,0.0,0.0,0.0,0.0,6.7214,6.691,6.6894,6.691,6.7209,6.7785,6.7785,6.8088,6.8592,6.8862,6.9435,7.0277,0.0,7.1973,7.2817,7.3716,7.4539,7.5129,7.4524,7.4651,7.5117,7.5067,7.5053,7.4976,7.4382,7.4112,0.0,7.3906,0.0,0.0,0.0,0.0,0.0,7.1804,0.0,0.0,0.0,0.0,0.0,0.0,0.0,0.0,0.0,0.0,0.0,0.0,0.0,0.0,0.0,0.0,7.0975,0.0,7.1552,0.0,0.0,0.0,0.0,0.0,7.5861,7.6015,7.6015,7.6015,7.6015,7.6015,7.6015,7.6284,7.6907,7.7753,7.86,7.9438,8.0323,8.0862,8.1093,8.1093,8.1093,8.1093,8.1093,8.1093,8.1093,8.1093,8.1093,8.1093,8.1093,8.1093,8.1093,8.1093,8.1093,8.117,8.1747,8.2093,8.2516,6.9264,6.7959,0.0,0.0,6.7965,6.8216,6.8904,6.9042,0.0,0.0,0.0,0.0,0.0,0.0,0.0,0.0,0.0,6.8474,6.8462,0.0,6.8559,0.0,0.0,6.8679,0.0,0.0,6.8668,6.8613,6.8668,6.8733,6.8772,6.8772,6.8707,6.8631,6.9479,7.0259,7.1005,7.1897,7.2784,7.3631,7.4434,7.5233,7.5952,0.0,7.601,7.5976,7.5976,0.0,0.0,7.5992,7.5467,0.0,0.0,0.0,0.0,0.0,0.0,0.0,0.0,0.0,0.0,7.1389,0.0,0.0,0.0,0.0,7.1297,0.0,0.0,0.0,0.0,0.0,0.0,0.0,0.0,0.0,0.0,0.0,0.0,0.0,0.0,0.0,0.0,7.5515,7.6015,7.6015,7.6015,7.6015,7.6015,7.6015,7.6015,7.6053,7.6899,7.7715,7.8523,7.94,8.0285,8.1093,8.1093,8.1093,8.1093,8.1093,8.1093,8.1093,8.1093,8.1093,8.1093,8.1093,8.1093,8.1093,8.1093,8.1093,8.1093,8.1131,8.1631,8.2439,0.0,0.0,0.0,0.0,0.0,0.0,0.0,6.9338,0.0,0.0,0.0,0.0,0.0,7.0293,7.0064,0.0,0.0,6.9342,6.9342,6.9367,0.0,0.0,0.0,6.9506,0.0,0.0,0.0,0.0,6.8707,6.8982,6.9447,6.9447,6.9725,7.0221,7.1069,7.1601,0.0,0.0,0.0,0.0,0.0,7.5767,7.6015,0.0,7.5998,7.6015,7.6015,7.6015,0.0,7.6044,7.5856,7.566,7.5639,7.5488,7.5195,7.4583,7.4442,7.4276,0.0,0.0,7.3151,7.2954,0.0,0.0,0.0,0.0,0.0,0.0,0.0,0.0,0.0,0.0,0.0,0.0,0.0,0.0,0.0,0.0,0.0,0.0,0.0,0.0,0.0,0.0,7.5399,7.5976,7.6015,7.6015,7.6015,7.6015,7.6015,7.6015,7.6861,7.7676,7.8484,7.9361,8.0246,8.1093,8.1093,8.1093,8.1093,8.1093,8.1093,8.1093,8.1093,8.1093,8.1093,8.1093,8.1093,8.1093,8.1093,8.1093,8.1093,8.1093,8.1285,8.1708,6.9938,0.0,0.0,0.0,0.0,0.0,0.0,0.0,0.0,0.0,7.1065,0.0,7.1562,0.0,7.1743,0.0,7.1133,7.1119,7.1119,7.1139,0.0,7.191,7.1229,0.0,0.0,0.0,0.0,0.0,0.0,6.9806,7.0266,7.0574,7.0985,7.1499,7.2345,7.2877,7.3237,7.4315,7.4903,0.0,0.0,7.6015,0.0,0.0,7.6015,7.6015,0.0,7.6015,7.6015,7.6015,7.6012,7.6048,7.5991,7.6041,7.5995,7.5401,7.5267,7.5116,7.4268,7.4003,0.0,7.3774,7.3266,0.0,7.3014,0.0,0.0,0.0,0.0,0.0,0.0,0.0,0.0,0.0,0.0,0.0,0.0,7.0898,0.0,0.0,0.0,0.0,0.0,7.4361,7.493,7.5515,7.5822,7.6015,7.6015,7.6015,7.6015,7.6015,7.6553,7.7253,7.8061,7.89,7.9785,8.0631,8.0939,8.1093,8.1093,8.1093,8.1093,8.1093,8.1093,8.1093,8.1093,8.1093,8.1093,8.1093,8.1093,8.1093,8.1093,8.1093,8.1285,8.1747,0.0,0.0,0.0,0.0,7.0879,0.0,0.0,0.0,7.1273,0.0,7.1985,7.2443,7.2443,7.3157,7.3586,7.3586,7.3549,7.3507,7.3507,7.3538,0.0,0.0,7.2835,7.2386,7.2259,0.0,0.0,0.0,0.0,7.1209,7.1241,7.2058,7.2405,7.2385,7.3278,7.4046,7.47,7.4738,7.5245,7.6015,7.6015,7.6015,7.6015,7.6015,7.6015,7.6015,7.6015,7.6015,7.6015,7.6015,7.6015,7.6015,7.6015,7.6015,7.6015,7.6015,7.6015,7.5822,7.4976,7.4776,7.4606,7.3919,7.3702,0.0,0.0,0.0,7.2542,0.0,0.0,0.0,0.0,0.0,0.0,0.0,0.0,0.0,0.0,0.0,0.0,0.0,0.0,0.0,0.0,7.3668,7.4661,7.47,7.5515,7.6015,0.0,7.6015,7.6015,7.6015,7.6015,7.6399,7.7292,7.8099,7.8938,7.9815,8.0669,8.1093,8.1093,8.1093,8.1093,8.1093,8.1093,8.1093,8.1093,8.1093,8.1093,8.1093,8.1093,8.1093,8.1093,8.1093,8.1593,8.2362,7.128,7.1208,7.1284,0.0,7.1506,7.1456,0.0,0.0,0.0,0.0,7.311,7.3217,7.3217,7.3395,7.3542,7.3542,7.3521,0.0,0.0,0.0,0.0,7.3507,7.3311,7.323,7.3251,7.3053,0.0,7.2931,0.0,7.2931,7.287,7.3101,7.321,7.3227,7.4043,7.4529,7.4738,7.5399,7.5784,7.6015,7.6015,7.6015,7.6015,0.0,7.6015,7.6015,7.6015,7.6015,7.6015,7.6015,7.6015,7.6015,7.6015,7.6015,7.6015,7.6015,7.6015,7.5938,7.5745,7.5668,7.5644,7.5498,7.4973,7.4524,0.0,0.0,0.0,0.0,0.0,0.0,0.0,0.0,0.0,0.0,0.0,0.0,0.0,0.0,0.0,7.0898,0.0,0.0,0.0,7.3168,7.4046,7.4661,7.5515,7.6015,7.6015,7.6015,7.6015,7.6015,7.6015,7.6399,7.7292,7.8099,7.8938,7.9815,8.0669,8.1093,8.1093,8.1093,8.1093,8.1093,8.1093,8.1093,8.1093,8.1093,8.1093,8.1093,8.1093,8.1093,8.1093,8.1093,8.1246,8.1631,7.2249,0.0,0.0,7.2836,0.0,0.0,7.2963,7.2919,0.0,7.3547,7.3864,0.0,7.4007,7.4353,7.4591,7.4591,7.4591,0.0,7.4591,0.0,0.0,7.4591,7.4238,7.4028,7.4077,7.3731,0.0,7.3577,0.0,7.3549,7.3507,7.3853,7.4007,7.4046,7.4892,7.5284,7.5284,7.5784,7.6015,7.6015,7.6015,7.6015,0.0,7.6015,7.6015,7.6015,7.6015,7.6015,7.6015,7.6015,7.6015,7.6015,7.6015,7.6015,7.6015,7.6015,7.6015,7.6015,7.6015,7.6015,7.6022,7.6034,7.5695,7.5324,7.5399,7.4796,7.4166,0.0,7.3465,7.288,0.0,0.0,0.0,0.0,0.0,0.0,0.0,0.0,0.0,0.0,7.0898,0.0,7.1591,7.2745,7.3699,7.4123,7.5322,7.6015,7.6015,7.6015,7.6015,7.6015,7.6015,7.6245,7.6746,7.7561,7.8407,7.9246,8.0131,8.0746,8.1093,8.1093,8.1093,8.1093,8.1093,8.1093,8.1093,8.1093,8.1093,8.1093,8.1093,8.1093,8.1093,8.1093,8.1093,8.1285,7.3593,0.0,0.0,0.0,0.0,0.0,0.0,7.3844,0.0,7.3881,0.0,7.4853,7.4853,7.5553,7.6015,7.6015,0.0,7.6015,7.6015,7.6015,7.6015,7.6015,7.5284,7.4853,7.4853,7.4199,0.0,0.0,0.0,7.3815,7.3853,7.4546,7.4853,7.4892,7.5668,7.6015,0.0,7.6015,7.6015,7.6015,7.6015,7.6015,7.6015,7.6015,7.6015,7.6015,7.6015,7.6015,7.6015,7.6015,7.6015,7.6015,7.6015,7.6015,7.6015,7.6015,7.6015,7.6015,7.6015,7.6015,7.6015,7.6015,7.6015,7.6037,7.6062,7.5492,7.4952,7.4959,7.4304,7.3745,7.3675,0.0,0.0,0.0,0.0,0.0,0.0,0.0,0.0,0.0,0.0,0.0,0.0,7.2476,7.3507,7.3507,7.5053,7.6015,0.0,0.0,7.6015,7.6015,7.6015,7.6015,7.6015,7.6868,7.7715,7.8523,7.9361,8.0246,8.1093,8.1093,8.1093,8.1093,8.1093,8.1093,8.1093,8.1093,8.1093,8.1093,8.1093,8.1093,8.1093,8.1093,8.1093,8.1208,7.3599,0.0,0.0,0.0,0.0,7.4767,7.5474,7.4966,7.476,7.5498,7.5676,7.5784,7.5784,7.5899,7.6015,7.6015,7.6015,0.0,0.0,0.0,0.0,7.6015,7.5861,7.5784,7.5784,7.563,7.5553,0.0,0.0,0.0,7.5553,7.5707,7.5784,7.5784,7.5938,7.6015,7.6015,7.6015,0.0,7.6015,7.6015,7.6015,7.6015,7.6015,7.6015,7.6015,7.6015,7.6015,7.6015,7.6015,7.6015,7.6015,7.6015,7.6015,7.6015,7.6015,7.6015,7.6015,7.6015,7.6015,7.6015,7.6015,7.6015,7.6015,7.5991,7.5921,7.5798,7.5806,7.5106,7.449,7.4476,0.0,0.0,0.0,0.0,0.0,0.0,0.0,0.0,0.0,0.0,7.0898,0.0,0.0,0.0,0.0,0.0,0.0,0.0,0.0,7.6015,7.6015,7.6015,7.6015,7.6015,7.6868,7.7715,7.8523,7.9361,8.0246,8.1093,8.1093,8.1093,8.1093,8.1093,8.1093,8.1093,8.1093,8.1093,8.1093,8.1093,8.1093,8.1093,8.1093,8.1093,8.1208,0.0,0.0,0.0,0.0,0.0,0.0,0.0,7.563,7.5515,7.5938,7.6015,7.6015,7.6015,7.6015,7.6015,7.6015,7.6015,7.6015,7.6015,7.6015,7.6015,7.6015,7.6015,0.0,7.6015,7.6015,7.6015,7.6015,0.0,0.0,7.6015,7.6015,7.6015,7.6015,7.6015,7.6015,0.0,7.6015,7.6015,7.6015,7.6015,7.6015,7.6015,7.6015,7.6015,7.6015,7.6015,7.6015,7.6015,7.6015,7.6015,7.6015,7.6015,7.6015,7.6015,7.6015,7.6015,7.6015,7.6015,7.6015,7.6015,7.6015,7.6015,7.6015,7.6015,7.6015,7.6015,7.6015,7.5668,7.5245,7.4776,7.4392,0.0,0.0,0.0,0.0,0.0,0.0,0.0,0.0,0.0,0.0,0.0,0.0,0.0,0.0,0.0,0.0,0.0,7.6015,7.6015,7.6015,7.6015,7.6015,7.6015,7.6399,7.7253,7.8523,7.8938,7.9823,8.1093,8.1093,8.1093,8.1093,8.1093,8.1093,8.1093,8.1093,8.1093,8.1093,8.1093,8.1093,8.1093,8.1093,8.1093,8.117,0.0,7.6015,0.0,0.0,7.6015,7.6015,7.6015,7.6015,7.6015,7.6015,7.6015,7.6015,7.6015,7.6015,7.6015,7.6015,7.6015,7.6015,7.6015,7.6015,7.6015,7.6015,7.6015,7.6015,7.6015,7.6015,7.6015,0.0,0.0,0.0,7.6015,7.6015,7.6015,7.6015,7.6015,7.6015,7.6015,7.6015,7.6015,7.6015,7.6015,7.6015,7.6015,7.6015,7.6015,7.6015,7.6015,7.6015,7.6015,7.6015,7.6015,7.6015,7.6015,7.6015,7.6015,7.6015,7.6015,7.6015,7.6015,7.6015,7.6015,7.6015,7.6015,7.6015,7.6015,7.6015,7.6015,7.6015,7.6015,7.5784,7.5091,7.4976,0.0,0.0,0.0,0.0,0.0,0.0,0.0,0.0,0.0,0.0,0.0,0.0,0.0,0.0,0.0,0.0,7.6015,7.6015,7.6015,7.6015,7.6015,7.6015,7.6015,7.6015,7.6823,7.8484,7.8484,7.94,8.1093,8.1093,8.1093,8.1093,8.1093,8.1093,8.1093,8.1093,8.1093,8.1093,8.1093,8.1093,8.1093,8.1093,8.1093,8.1093,0.0,0.0,0.0,0.0,0.0,7.6015,7.6015,7.6015,7.6015,7.6015,7.6015,7.6015,7.6015,7.6015,7.6015,7.6015,7.6015,7.6015,7.6015,7.6015,7.6015,7.6015,7.6015,7.6015,7.6015,7.6015,7.6015,0.0,0.0,7.6015,7.6015,7.6015,7.6015,7.6015,7.6015,7.6015,7.6015,7.6015,7.6015,7.6015,7.6015,7.6015,7.6015,7.6015,7.6015,7.6015,7.6015,7.6015,7.6015,7.6015,7.6015,7.6015,7.6015,7.6015,7.6015,7.6015,7.6015,7.6015,7.6015,7.6015,7.6015,7.6015,7.6015,7.6015,7.6015,7.6015,7.6015,7.6015,7.6015,7.5976,7.5899,7.5861,7.5592,0.0,0.0,0.0,0.0,0.0,0.0,0.0,0.0,0.0,0.0,7.4123,0.0,0.0,7.5476,0.0,0.0,7.6015,7.6015,7.6015,7.6015,7.6015,7.6015,7.6015,7.6823,7.8484,7.8484,7.94,8.1093,8.1093,8.1093,8.1093,8.1093,8.1093,8.1093,8.1093,8.1093,8.1093,8.1093,8.1093,8.1093,8.1093,8.1093,8.1093,0.0,0.0,7.6015,7.6015,0.0,7.6784,7.6784,7.7169,7.7484,7.7484,7.663,7.6015,7.6015,7.6015,7.6015,7.6015,7.6015,7.6015,7.6015,7.6015,7.6015,7.6015,7.6015,7.6015,7.6015,7.6015,7.6015,0.0,0.0,0.0,0.0,7.6015,7.6015,7.6015,7.6015,7.6015,7.6015,7.6015,7.6284,7.6784,7.6784,7.7053,7.7484,7.7484,7.7484,7.7484,7.7484,7.7169,7.6784,7.6784,7.6438,7.6015,7.6015,7.6015,7.6015,7.6015,7.6015,7.6015,7.6015,7.6015,7.6015,7.6015,7.6015,7.6015,7.6015,7.6015,7.6015,7.6015,7.6015,7.6015,7.6015,7.6015,7.5899,7.5553,0.0,0.0,0.0,0.0,0.0,0.0,0.0,0.0,0.0,0.0,0.0,0.0,0.0,0.0,0.0,7.6015,7.6015,7.6015,7.6015,7.6015,7.6015,7.6015,7.6823,7.8484,7.8484,7.94,8.1093,8.1093,8.1093,8.1093,8.1093,8.1093,8.1093,8.1093,8.1093,8.1093,8.1093,8.1093,8.1093,8.1093,8.1093,8.1093,7.6361,7.6553,7.6746,7.6746,7.7246,7.7638,7.7638,7.8138,7.8484,7.8484,7.7476,7.6746,7.6746,7.6746,7.6746,7.6746,7.6746,7.6746,7.6746,7.6515,7.6361,7.6361,7.613,0.0,7.6015,7.6015,7.6015,7.6015,7.6015,0.0,0.0,7.6015,7.6015,7.6015,7.6015,7.613,7.6361,7.6361,7.6861,7.7638,7.7638,7.7984,7.8484,7.8484,7.8484,7.8484,7.8484,7.8138,7.7638,7.7638,7.7099,7.6322,7.6092,7.6015,7.6015,7.6015,7.6015,7.6015,7.6015,7.6015,7.6015,7.6015,7.6015,7.6015,7.6015,7.6015,7.6015,7.6015,7.6015,7.6015,7.6015,7.6015,7.6015,7.6015,0.0,0.0,0.0,0.0,0.0,0.0,7.5084,7.5084,7.5084,7.5084,0.0,0.0,0.0,0.0,0.0,7.6015,7.6015,7.6015,7.6015,7.6015,7.6015,7.6015,7.6823,7.8484,7.8484,7.94,8.1093,8.1093,8.1093,8.1093,8.1093,8.1093,8.1093,8.1093,8.1093,8.1093,8.1093,8.1093,8.1093,8.1093,8.1093,8.1093,7.7292,7.7907,7.8484,7.8484,7.8484,7.8484,7.8484,7.8484,7.8484,7.8484,7.8484,7.8484,7.8484,7.8484,7.8484,7.8484,7.8484,7.8484,7.8484,7.7715,7.7292,0.0,0.0,7.6015,7.6015,7.6015,7.6015,7.6015,0.0,0.0,7.6015,7.6015,7.6015,7.6015,7.6015,7.6476,7.7292,7.7292,7.7753,7.8484,7.8484,7.8484,7.8484,7.8484,7.8484,7.8484,7.8484,7.8484,7.8484,7.8484,7.7946,7.7138,7.6284,7.6015,7.6015,7.6015,7.6015,7.6015,7.6015,7.6015,7.6015,7.6015,7.6015,7.6015,7.6015,7.6015,7.6015,7.6015,7.6015,7.6015,7.6015,7.6015,7.6015,7.6015,0.0,0.0,0.0,0.0,0.0,0.0,7.5976,7.5976,7.5976,7.5976,0.0,0.0,0.0,0.0,0.0,7.6015,7.6015,7.6015,7.6015,7.6015,7.6015,7.6015,7.6823,7.8484,7.8484,7.94,8.1093,8.1093,8.1093,8.1093,8.1093,8.1093,8.1093,8.1093,8.1093,8.1093,8.1093,8.1093,8.1093,8.1093,8.1093,8.1093,7.8138,7.833,7.8484,7.8484,7.8977,7.94,7.94,7.99,8.0285,8.0285,8.0285,8.0285,8.0285,7.9215,7.8484,0.0,7.8484,7.8484,0.0,7.8253,7.8138,7.8138,7.7869,7.7715,7.7715,7.7715,7.7715,7.7715,0.0,7.7715,7.7715,7.7715,7.7715,7.7715,7.7715,7.7869,7.8138,7.8138,7.8592,7.94,7.94,7.9746,8.0285,8.0285,8.0285,8.0285,8.0285,7.99,7.94,7.94,7.8823,7.7984,7.7138,7.6476,7.6015,7.6015,7.6015,7.6015,7.6015,7.6015,7.6015,7.6015,7.6015,7.6015,7.6015,7.6015,7.6015,7.6015,7.6015,7.6015,7.6015,7.6015,7.6015,7.6015,7.6015,0.0,7.6015,0.0,0.0,0.0,7.6015,7.6015,7.6015,7.6015,0.0,0.0,0.0,0.0,0.0,7.6015,7.6015,7.6015,7.6015,0.0,7.6015,7.6015,7.6823,7.8484,7.8484,7.94,8.1093,8.1093,8.1093,8.1093,8.1093,8.1093,8.1093,8.1093,8.1093,8.1093,8.1093,8.1093,8.1093,8.1093,8.1093,8.1093,7.8977,7.9254,7.9485,7.9485,7.9939,8.0277,8.0277,8.0746,8.1093,8.1093,8.1093,8.1093,8.1093,8.0131,7.9485,7.9485,7.9485,7.9485,7.9485,7.9169,7.8977,7.8977,7.8677,7.8484,7.8484,7.8484,7.8484,7.8484,7.8484,7.8484,7.8484,7.8484,7.8484,7.8484,7.8484,7.8677,7.8977,7.8977,7.9477,8.0277,8.0277,8.0631,8.1093,8.1093,8.1093,8.1093,8.1093,8.0746,8.0277,8.0277,7.9708,7.89,7.84,7.7438,7.6438,7.6092,7.6015,7.6015,7.6015,7.6015,7.6015,7.6015,7.6015,7.6015,7.6015,7.6015,7.6015,7.6015,7.6015,7.6015,7.6015,7.6015,7.6015,7.6015,7.6015,7.6015,7.6015,0.0,0.0,0.0,0.0,0.0,0.0,7.6015,7.6015,0.0,0.0,0.0,0.0,7.6015,7.6015,7.6015,7.6015,7.6015,7.6015,7.6015,7.6823,7.8523,7.9177,8.0054,8.1093,8.1093,8.1093,8.1093,8.1093,8.1093,8.1093,8.1093,8.1093,8.1093,8.1093,8.1093,8.1093,8.1093,8.1093,8.1093,7.9892,8.0554,8.1093,8.1093,8.1093,8.1093,8.1093,8.1093,8.1093,8.1093,8.1093,8.1093,8.1093,8.1093,8.1093,8.1093,8.1093,8.1093,8.1093,8.0323,7.9892,7.9892,7.9092,7.8677,7.8677,7.8654,7.8639,7.8639,7.8661,7.8677,7.8677,7.8677,7.8677,7.8677,7.8677,7.9131,7.9892,7.9892,8.0362,8.1093,8.1093,8.1093,8.1093,8.1093,8.1093,8.1093,8.1093,8.1093,8.1093,8.1093,8.0554,7.9892,7.9815,7.8746,7.7284,7.6361,7.6053,7.6015,7.6015,7.6015,7.6015,7.6015,7.6015,7.6015,7.6015,7.6015,7.6015,7.6015,7.6015,7.6015,7.6015,7.6015,7.6015,7.6015,7.6015,7.6015,7.6015,7.6015,0.0,0.0,0.0,7.6015,7.6015,7.6015,7.6015,0.0,0.0,0.0,7.6015,7.6015,7.6015,7.6015,7.6015,7.6015,7.6015,7.6015,7.6823,7.8523,8.0285,8.1093,8.1093,8.1093,8.1093,8.1093,8.1093,8.1093,8.1093,8.1093,8.1093,8.1093,8.1093,8.1093,8.1093,8.1093,8.1093,8.1093,8.0785,8.0977,8.1093,8.1093,8.1093,8.1093,8.1093,8.1093,8.1093,8.1093,8.1093,8.1093,8.1093,8.1093,8.1093,8.1093,8.1093,8.1093,8.1093,8.09,8.0785,8.0785,8.0592,8.0477,8.0477,8.014,7.9954,7.9954,8.0312,8.0477,8.0477,8.0477,8.0477,8.0477,8.0477,8.0592,8.0785,8.0785,8.09,8.1093,8.1093,8.1093,8.1093,8.1093,8.1093,8.1093,8.1093,8.1093,8.1093,8.1093,8.0977,8.0669,8.0015,7.9508,7.8938,7.7438,7.6515,7.6015,7.6015,7.6015,7.6015,7.6015,7.6015,7.6015,7.6015,7.6015,7.6015,7.6015,7.6015,7.6015,7.6015,7.6015,7.6015,7.6015,7.6015,7.6015,7.6015,7.6015,7.6015,0.0,7.6015,7.6015,7.6015,7.6015,7.6015,0.0,0.0,7.6015,7.6015,7.6015,7.6015,7.6015,7.6015,7.6015,7.6015,7.6015,7.6823,7.8523,8.0285,8.1093,8.1093,8.1093,8.1093,8.1093,8.1093,8.1093,8.1093,8.1093,8.1093,8.1093,8.1093,8.1093,8.1093,8.1093,8.1093,8.1093,8.1093,8.1093,8.1093,8.1093,8.1093,8.1093,8.1093,8.1093,8.1093,8.1093,8.1093,8.1093,8.1093,8.1093,8.1093,8.1093,8.1093,8.1093,8.1093,8.1093,8.1093,8.1093,8.1093,8.0983,8.078,8.0745,8.0611,8.0391,8.0419,8.0476,8.0476,8.0476,8.0476,8.0476,8.0476,8.0476,8.0476,8.0476,8.0476,8.0494,8.0711,8.0638,8.0522,8.0934,8.0959,8.0796,8.1037,8.1093,8.1093,8.1093,8.1093,8.1016,8.0554,8.0123,7.9631,7.8707,7.7553,7.6515,7.6092,7.6015,7.6015,7.6015,7.6015,7.6015,7.6015,7.6015,7.6015,7.6015,7.6015,7.6015,7.6015,7.6015,7.6015,7.6015,7.6015,7.6015,7.6015,7.6015,7.6015,7.6015,7.6015,7.6015,7.6015,7.6015,7.6015,7.6015,7.6015,0.0,7.6015,7.6015,7.6015,7.6015,7.6015,7.6015,7.6015,7.6746,7.7599,7.8523,8.0285,8.1093,8.1093,8.1093,8.1093,8.1093,8.1093,8.1093,8.1093,8.1093,8.1093,8.1093,8.1093,8.1093,8.1093,8.1093,8.1093,8.1093,8.1093,8.1093,8.1093,8.1093,8.1093,8.1093,8.1093,8.1093,8.1093,8.1093,8.1093,8.1093,8.1093,8.1093,8.1093,8.1093,8.1093,8.1093,8.1093,8.1093,8.1093,8.1093,8.1093,8.0918,8.0522,8.0902,8.086,8.0297,7.9961,7.9773,7.9697,7.9697,7.9697,7.9697,7.9697,7.9697,7.9697,7.9697,7.9697,7.9741,8.0113,8.0043,7.9783,8.0585,8.0629,8.0344,8.0745,8.0934,8.0975,8.0975,8.1053,8.1093,8.1093,8.0592,7.9969,7.9854,7.8707,7.7292,7.6438,7.6092,7.6015,7.6015,7.6015,7.6015,7.6015,7.6015,7.6015,7.6015,7.6015,7.6015,7.6015,7.6015,7.6015,7.6015,7.6015,7.6015,7.6015,0.0,7.6015,7.6015,7.6015,7.6015,7.6015,7.6015,7.6015,7.6015,7.6015,7.6015,7.6015,7.6015,7.6015,7.6015,7.6015,7.6015,7.6015,7.7585,7.8431,7.8523,8.0105,8.0926,8.0975,8.0975,8.0975,8.1021,8.1069,8.1093,8.1093,8.1093,8.1093,8.1093,8.1093,8.1093,8.1093,8.1093,8.1093,8.1093,8.1093,8.1093,8.1093,8.1093,8.1093,8.1093,8.1093,8.1093,8.1093,8.1093,8.1093,8.1093,8.1093,8.1093,8.1093,8.1093,8.1093,8.1093,8.1093,8.1093,8.1093,8.1093,8.1093,8.1069,8.0975,8.1069,8.0693,7.9805,8.0113,8.0073,7.9697,7.9697,7.9697,7.9697,7.9697,7.9697,7.9697,7.9697,7.9697,7.9708,7.9783,7.9762,7.9719,7.9858,7.9868,7.9815,7.9889,8.019,8.0522,8.0522,8.0771,8.1093,8.1093,8.1016,8.0746,8.0015,7.9092,7.8138,7.733,7.6553,7.6015,7.6015,7.6015,7.6015,7.6015,7.6015,7.6015,7.6015,7.6015,7.6015,7.6015,7.6015,7.6015,7.6015,7.6015,7.6015,7.6015,7.6015,7.6015,7.6015,7.6015,7.6015,7.6015,7.6015,7.6015,7.6015,7.6015,7.6015,7.6015,7.6015,7.6015,7.6015,7.6015,7.6015,7.6015,7.7262,7.8113,7.8515,7.9457,8.0103,8.0522,8.0522,8.0522,8.054,8.0926,8.1093,8.1093,8.1093,8.1093,8.1093,8.1093,8.1093,8.1093,8.1093,8.1093,8.1093,8.1093,8.1093,8.1093,8.1093,8.1093,8.1093,8.1093,8.1093,8.1093,8.1093,8.1093,8.1093,8.1093,8.1093,8.1093,8.1093,8.1093,8.1093,8.1093,8.1093,8.1093,8.1093,8.0877,8.0728,8.0728,8.0239,7.9878,7.9697,7.9418,7.9149,7.8941,7.8941,7.8941,7.8941,7.8941,7.8941,7.8941,7.8941,7.8941,7.8966,7.9208,7.9149,7.9004,7.9509,7.9543,7.9361,7.961,7.9836,8.0012,8.0012,8.018,8.0382,8.0629,8.0728,8.0694,8.0538,7.9246,7.7676,7.6823,7.6322,7.6015,7.6015,7.6015,7.6015,7.6015,7.6015,7.6015,7.6015,7.6015,7.6015,7.6015,7.6015,7.6015,7.6015,7.6015,7.6015,7.6015,7.6015,7.6015,7.6015,7.6015,7.591,7.5654,7.5638,7.5638,7.5638,7.5638,7.5718,7.6007,7.6015,7.6015,7.6015,7.6015,7.6079,7.6312,7.7291,7.8033,7.8464,7.9291,7.9815,8.0023,8.0287,8.0391,8.041,8.0902,8.0951,8.0728,8.0728,8.0728,8.0711,8.0428,8.0638,8.1045,8.054,8.0512,8.0702,8.1093,8.1093,8.1093,8.1093,8.1093,8.1093,8.1093,8.1093,8.1093,8.1093,8.1093,8.1093,8.1093,8.1093,8.1093,8.1093,8.1093,8.1093,8.1093,8.1021,8.0967,8.1093,8.0638,8.0344,8.0249,7.9532,7.9267,7.9543,7.8828,7.8414,7.829,7.829,7.829,7.829,7.829,7.829,7.829,7.829,7.829,7.8332,7.8686,7.8631,7.8386,7.9114,7.9137,7.8879,7.9232,7.9441,7.9543,7.9543,7.961,7.9762,8.0103,8.0316,8.0485,8.0813,7.9338,7.7369,7.6284,7.6015,7.6015,7.6015,7.6015,7.6015,7.6015,7.6015,7.6015,7.6015,7.6015,7.6015,7.6015,7.6015,7.5954,7.5879,7.5826,7.5803,7.5724,7.5708,7.5708,7.5708,7.5708,7.5597,7.5327,7.531,7.5344,7.543,7.5476,7.563,7.5962,7.591,7.5795,7.5716,7.5787,7.6076,7.6591,7.7208,7.7802,7.8409,7.906,7.943,7.9554,7.991,8.0063,8.0093,8.0576,8.0567,8.0249,8.0249,8.0249,8.022,7.9836,8.0123,8.0702,7.9961,7.992,8.02,8.1093,8.1093,8.1093,8.1093,8.1093,8.1093,8.1093,8.1093,8.1093,8.1093,8.1093,8.1093,8.1093,8.1093,8.1093,8.1093,8.1093,8.1093,8.1093,8.0711,8.0629,8.1077,8.0638,8.021,7.9762,7.9686,7.9453,7.904,7.8979,7.8725,7.829,7.829,7.829,7.829,7.829,7.829,7.829,7.829,7.829,7.829,7.8332,7.8332,7.8304,7.8386,7.8386,7.8359,7.84,7.8686,7.904,7.904,7.9338,7.9708,7.9741,8.0043,8.0391,8.0428,7.9497,7.8061,7.6438,7.6015,7.6015,7.6015,7.6015,7.6015,7.6015,7.6015,7.6015,7.6015,7.6015,7.6015,7.6015,7.6015,7.5841,7.5404,7.5353,7.523,7.4865,7.4805,7.4805,7.4805,7.4805,7.4942,7.5283,7.531,7.5493,7.5917,7.5939,7.5954,7.6015,7.5567,7.5194,7.4815,7.5167,7.5747,7.6582,7.6609,7.7217,7.8398,7.8416,7.862,7.904,7.9076,7.91,7.9125,7.961,7.9783,7.9751,7.9751,7.9751,7.9751,7.9719,7.9741,7.9794,7.973,7.9719,7.9751,8.1053,8.1093,8.1093,8.1093,8.1093,8.1093,8.1093,8.1093,8.1093,8.1093,8.1093,8.1093,8.1093,8.1093,8.1093,8.1093,8.0822,8.0685,8.0685,8.0239,7.991,7.9805,7.9899,7.9751,7.9279,7.9267,7.9173,7.9016,7.8712,7.8458,7.829,7.829,7.829,7.829,7.829,7.829,7.829,7.829,7.829,7.829,7.829,7.829,7.829,7.829,7.829,7.829,7.829,7.839,7.8578,7.8578,7.8686,7.8866,7.9161,7.9395,7.9371,7.8635,7.8074,7.7367,7.5952,7.5787,7.6015,7.6015,7.6015,7.6015,7.6015,7.6015,7.6015,7.6015,7.6015,7.6015,7.6015,7.5772,7.551,7.5336,7.531,7.5176,7.4776,7.5149,7.54,7.5121,7.5348,7.5451,7.5318,7.531,7.5274,7.5185,7.5176,7.5176,7.5176,7.5038,7.4875,7.4715,7.5094,7.5701,7.6522,7.7029,7.7604,7.8353,7.8309,7.84,7.8592,7.8854,7.9004,7.904,7.9498,7.9543,7.9267,7.9267,7.9267,7.9232,7.8941,7.9173,7.9632,7.9053,7.9016,7.9208,8.078,8.0893,8.0893,8.0893,8.0983,8.1093,8.1093,8.0967,8.0934,8.1077,8.0822,8.0728,8.0838,8.0754,8.0646,8.0646,8.0363,8.02,8.02,7.9741,7.9326,7.9016,7.9303,7.9256,7.8777,7.8765,7.8765,7.8765,7.8444,7.829,7.829,7.829,7.829,7.829,7.829,7.829,7.829,7.829,7.829,7.829,7.829,7.829,7.829,7.829,7.829,7.829,7.829,7.829,7.829,7.829,7.829,7.8359,7.8686,7.8691,7.8437,7.7495,7.7028,7.6569,7.5399,7.5365,7.5646,7.5924,7.6015,7.6015,7.6015,7.6015,7.6015,7.6015,7.6015,7.6015,7.6015,7.563,7.531,7.531,7.5174,7.5038,7.4756,7.5194,7.5417,7.4952,7.5185,7.5239,7.4933,7.4904,7.4846,7.4725,7.4715,7.4654,7.447,7.446,7.4547,7.4658,7.5189,7.587,7.6681,7.7242,7.776,7.829,7.829,7.829,7.8304,7.8607,7.8789,7.879,7.91,7.9089,7.8765,7.8765,7.8765,7.8763,7.8441,7.8686,7.9173,7.8538,7.8498,7.8725,8.0306,8.0391,8.0391,8.0382,8.078,8.1085,8.1085,8.0711,8.0567,8.1037,8.0287,7.9878,8.0335,7.9972,7.9697,7.9697,7.9697,7.9697,7.9686,7.9232,7.8991,7.8978,7.8978,7.8802,7.8304,7.829,7.829,7.829,7.829,7.829,7.829,7.829,7.829,7.829,7.829,7.829,7.829,7.829,7.829,7.829,7.829,7.829,7.829,7.829,7.829,7.829,7.829,7.829,7.829,7.829,7.829,7.829,7.829,7.8084,7.7711,7.7295,7.6611,7.5787,7.4943,7.4705,7.4904,7.5772,7.6007,7.6007,7.6007,7.6007,7.6007,7.6007,7.6007,7.6007,7.6007,7.5622,7.5301,7.5301,7.4943,7.4705,7.4705,7.4705,7.455,7.4079,7.4021,7.4021,7.4021,7.4021,7.4177,7.4674,7.4705,7.4508,7.4033,7.4009,7.4185,7.4588,7.5392,7.6209,7.7101,7.7101,7.751,7.829,7.829,7.829,7.829,7.829,7.829,7.829,7.829,7.829,7.829,7.829,7.829,7.829,7.829,7.829,7.829,7.829,7.829,7.829,7.9815,8.0152,8.0297,7.9961,8.0297,8.0512,8.018,7.9992,7.9951,8.0083,7.9868,7.9751,7.9889,7.9783,7.9697,7.9697,7.9395,7.9077,7.8738,7.8605,7.8498,7.8512,7.8512,7.8431,7.829,7.829,7.829,7.829,7.829,7.829,7.829,7.829,7.829,7.829,7.829,7.829,7.829,7.829,7.829,7.829,7.829,7.829,7.829,7.829,7.829,7.829,7.829,7.829,7.829,7.829,7.829,7.829,7.829,7.7842,7.7159,7.643,7.5658,7.4883,7.4361,7.4199,7.4342,7.4952,7.5084,7.5084,7.5084,7.5084,7.5084,7.5084,7.5084,7.5084,7.5084,7.4708,7.4406,7.4406,7.4287,7.4113,7.3836,7.4314,7.455,7.4079,7.4276,7.447,7.447,7.447,7.4396,7.421,7.3954,7.3715,7.3603,7.3591,7.3887,7.4574,7.5392,7.6209,7.7101,7.7658,7.8067,7.829,7.829,7.829,7.829,7.829,7.829,7.829,7.829,7.829,7.829,7.829,7.829,7.829,7.829,7.829,7.829,7.829,7.829,7.829,7.9326,7.9654,7.9762,7.9475,7.9815,8.0023,7.9741,7.9543,7.9498,7.9675,7.9372,7.9208,7.9407,7.9256,7.9162,7.9162,7.8879,7.8618,7.8304,7.829,7.829,7.829,7.829,7.829,7.829,7.829,7.829,7.829,7.829,7.829,7.829,7.829,7.829,7.829,7.829,7.829,7.829,7.829,7.829,7.829,7.829,7.829,7.829,7.829,7.829,7.829,7.829,7.829,7.829,7.829,7.829,7.8253,7.7919,7.725,7.6432,7.5578,7.476,7.4082,7.3815,7.3751,7.3823,7.4101,7.4455,7.4715,7.4715,7.4715,7.4715,7.4715,7.4715,7.4715,7.4715,7.4309,7.4041,7.4232,7.4109,7.3975,7.3918,7.4369,7.455,7.4079,7.4232,7.4379,7.4192,7.4207,7.4082,7.3775,7.354,7.3385,7.3385,7.3683,7.424,7.5057,7.5875,7.6729,7.7584,7.8067,7.829,7.829,7.829,7.829,7.829,7.829,7.829,7.829,7.829,7.829,7.829,7.829,7.829,7.829,7.829,7.829,7.829,7.829,7.829,7.829,7.8866,7.8954,7.8979,7.8954,7.9326,7.9621,7.9587,7.9208,7.9076,7.952,7.8816,7.8458,7.8891,7.8565,7.829,7.829,7.829,7.829,7.829,7.829,7.829,7.829,7.829,7.829,7.829,7.829,7.829,7.829,7.829,7.829,7.829,7.829,7.829,7.829,7.829,7.829,7.829,7.829,7.829,7.829,7.829,7.829,7.829,7.829,7.829,7.829,7.829,7.829,7.829,7.829,7.829,7.8179,7.7361,7.6507,7.5652,7.4834,7.4017,7.3385,7.3385,7.3385,7.3385,7.3385,7.4001,7.4592,7.4592,7.4592,7.4592,7.4592,7.4592,7.4592,7.4592,7.421,7.4101,7.4529,7.4237,7.4101,7.454,7.4592,7.4444,7.4009,7.3951,7.3799,7.3437,7.3385,7.3385,7.3385,7.3385,7.3423,7.3497,7.4203,7.4983,7.5912,7.6692,7.7473,7.829,7.829,7.829,7.829,7.829,7.829,7.829,7.829,7.829,7.829,7.829,7.829,7.829,7.829,7.829,7.829,7.829,7.829,7.829,7.829,7.829,7.829,7.8417,7.8751,7.8866,7.8512,7.8828,7.904,7.8647,7.8525,7.8485,7.8605,7.8441,7.8332,7.8431,7.8359,7.829,7.829,7.829,7.829,7.829,7.829,7.829,7.829,7.829,7.829,7.829,7.829,7.829,7.829,7.829,7.829,7.829,7.829,7.829,7.829,7.829,7.829,7.829,7.829,7.829,7.829,7.829,7.829,7.829,7.829,7.829,7.829,7.829,7.829,7.829,7.829,7.829,7.8179,7.7361,7.6507,7.5652,7.4834,7.4017,7.3385,7.3385,7.3385,7.3385,7.3385,7.3528,7.3666,7.3666,7.3666,7.3666,7.3666,7.3666,7.3666,7.3666,7.3603,7.3566,7.3678,7.3603,7.3566,7.3678,7.3666,7.3653,7.354,7.3528,7.3514,7.3398,7.3385,7.3385,7.3385,7.3385,7.3683,7.4314,7.45,7.528,7.6767,7.699,7.7473,7.829,7.829,7.829,7.829,7.829,7.829,7.829,7.829,7.829,7.829,7.829,7.829,7.829,7.829,7.829,7.829,7.829,7.829,7.829,7.829,7.829,7.829,7.829,7.8485,7.8592,7.8345,7.8498,7.8568,7.8332,7.829,7.829,7.829,7.829,7.829,7.829,7.829,7.829,7.829,7.829,7.829,7.829,7.829,7.829,7.829,7.829,7.829,7.829,7.829,7.829,7.829,7.829,7.829,7.829,7.829,7.829,7.829,7.829,7.829,7.829,7.829,7.829,7.829,7.829,7.829,7.829,7.829,7.829,7.829,7.829,7.829,7.829,7.829,7.803,7.7584,7.6729,7.5912,7.5057,7.4277,7.372,7.3385,7.3385,7.3385,7.3385,7.3385,7.3385,7.3385,7.3385,7.3385,7.3385,7.3385,7.3385,7.3385,7.3385,7.3385,7.3385,7.3385,7.3385,7.3385,7.3385,7.3385,7.3385,7.3385,7.3385,7.3385,7.3385,7.3385,7.3385,7.3385,7.3757,7.4166,7.4574,7.5355,7.6145,7.6917,7.7325,7.7691,7.8066,7.8066,7.8066,7.8066,7.8221,7.829,7.829,7.829,7.829,7.829,7.829,7.829,7.829,7.829,7.829,7.829,7.829,7.829,7.829,7.829,7.829,7.829,7.829,7.829,7.829,7.829,7.829,7.829,7.829,7.829,7.829,7.829,7.829,7.829,7.829,7.829,7.829,7.829,7.829,7.829,7.829,7.829,7.829,7.829,7.829,7.829,7.829,7.829,7.829,7.829,7.829,7.829,7.829,7.829,7.829,7.829,7.829,7.829,7.829,7.829,7.829,7.829,7.829,7.829,7.829,7.829,7.829,7.829,7.829,7.829,7.829,7.8141,7.7658,7.6915,7.5912,7.5132,7.4426,7.3645,7.3385,7.3385,7.3385,7.3385,7.3385,7.3385,7.3385,7.3385,7.3385,7.3385,7.3385,7.3385,7.3385,7.3385,7.3385,7.3385,7.3385,7.3385,7.3385,7.3385,7.3385,7.3385,7.3385,7.3385,7.3385,7.3385,7.3385,7.3385,7.346,7.3571,7.4203,7.471,7.4943,7.628,7.7028,7.6986,7.7601,7.7914,7.782,7.782,7.782,7.7783,7.808,7.8207,7.8207,7.8235,7.8248,7.8248,7.8248,7.8262,7.829,7.829,7.829,7.829,7.829,7.829,7.829,7.829,7.829,7.829,7.829,7.829,7.829,7.829,7.829,7.829,7.829,7.829,7.829,7.829,7.829,7.829,7.829,7.829,7.829,7.829,7.829,7.829,7.829,7.829,7.829,7.829,7.829,7.829,7.829,7.829,7.829,7.829,7.829,7.829,7.829,7.829,7.829,7.829,7.829,7.829,7.829,7.829,7.829,7.829,7.829,7.829,7.829,7.829,7.829,7.829,7.829,7.829,7.8179,7.751,7.7175,7.6841,7.5243,7.4686,7.4426,7.3645,7.3385,7.3385,7.3385,7.3385,7.3385,7.3385,7.3385,7.3385,7.3385,7.3385,7.3385,7.3385,7.3385,7.3385,7.3385,7.3385,7.3385,7.3385,7.3385,7.3385,7.3385,7.3385,7.3385,7.3385,7.3385,7.3385,7.3385,7.3385,7.3683,7.4389,7.4537,7.5139,7.6426,7.6709,7.7083,7.7628,7.7776,7.7835,7.782,7.782,7.782,7.782,7.7864,7.7879,7.7879,7.7986,7.8043,7.8043,7.8043,7.8127,7.829,7.829,7.829,7.829,7.829,7.829,7.829,7.829,7.829,7.829,7.829,7.829,7.829,7.829,7.829,7.829,7.829,7.829,7.829,7.829,7.829,7.829,7.829,7.829,7.829,7.829,7.829,7.829,7.829,7.829,7.829,7.829,7.829,7.829,7.829,7.829,7.829,7.829,7.829,7.829,7.829,7.829,7.829,7.829,7.829,7.829,7.829,7.829,7.829,7.829,7.829,7.829,7.829,7.829,7.829,7.829,7.829,7.829,7.8253,7.7881,7.7138,7.6246,7.5503,7.4649,7.3868,7.3497,7.3385,7.3385,7.3385,7.3385,7.3385,7.3385,7.3385,7.3385,7.3385,7.3385,7.3385,7.3385,7.3385,7.3385,7.3385,7.3385,7.3385,7.3385,7.3385,7.3385,7.3385,7.3385,7.3385,7.3385,7.3385,7.3385,7.3385,7.3794,7.4203,7.4574,7.5349,7.612,7.6755,7.7151,7.7443,7.7688,7.7688,7.7643,7.7502,7.7502,7.7502,7.7502,7.7643,7.7732,7.7783,7.7856,7.7885,7.7885,7.7885,7.7928,7.8023,7.8023,7.808,7.8113,7.8113,7.8207,7.829,7.829,7.829,7.829]}]]